[[{"header":{"parameterUnit":"m.s-1","parameterCategory":1,"la1":30.6,"la2":28.766,"lo1":-90.7593,"lo2":-88.6598,"dy":0.0162,"dx":0.0183,"nx":116,"ny":114,"refTime":"2024-06-25T06:00:00:Z","depth":0,"parameterNumber":2,"parameterNumberName":"U-component_of_WINDS"},"data":[0.0,0.0,0.0,0.0,0.0,0.0,0.0,0.0,0.0,0.0,0.0,0.0,0.0,0.0,0.0,0.0,0.0,0.0,0.0,0.0,0.0,0.0,0.0,0.0,0.0,0.0,0.0,0.0,0.0,0.0,0.0,0.0,0.0,0.0,0.0,0.0,0.0,0.0,0.0,0.0,0.0,0.0,0.0,0.0,0.0,0.0,0.0,0.0,0.0,0.0,0.0,0.0,0.0,0.0,0.0,0.0,0.0,0.0,0.0,0.0,0.0,0.0,0.0,0.0,0.0,0.0,0.0,0.0,0.0,0.0,0.0,0.0,0.0,0.0,0.0,0.0,0.0,0.0,0.0,0.0,0.0,0.0,0.0,0.0,0.0,0.0,0.0,0.0,0.0,0.0,0.0,0.0,0.0,0.0,0.0,0.0,0.0,0.0,0.0,0.0,0.0,0.0,0.0,0.0,0.0,0.0,0.0,0.0,0.0,0.0,0.0,0.0,0.0,0.0,0.0,0.0,0.0,0.0,0.0,0.0,0.0,0.0,0.0,0.0,0.0,0.0,0.0,0.0,0.0,0.0,0.0,0.0,0.0,0.0,0.0,0.0,0.0,0.0,0.0,0.0,0.0,0.0,0.0,0.0,0.0,0.0,0.0,0.0,0.0,0.0,0.0,0.0,0.0,0.0,0.0,0.0,0.0,0.0,0.0,0.0,0.0,0.0,0.0,0.0,0.0,0.0,0.0,0.0,0.0,0.0,0.0,0.0,0.0,0.0,0.0,0.0,0.0,0.0,0.0,0.0,0.0,0.0,0.0,0.0,0.0,0.0,0.0,0.0,0.0,0.0,0.0,0.0,0.0,0.0,0.0,0.0,0.0,0.0,0.0,0.0,0.0,0.0,0.0,0.0,0.0,0.0,0.0,0.0,0.0,0.0,0.0,0.0,0.0,0.0,0.0,0.0,0.0,0.0,0.0,0.0,0.0,0.0,0.0,0.0,0.0,0.0,0.0,0.0,0.0,0.0,0.0,0.0,0.0,0.0,0.0,0.0,0.0,0.0,0.0,0.0,0.0,0.0,0.0,0.0,0.0,0.0,0.0,0.0,0.0,0.0,0.0,0.0,0.0,0.0,0.0,0.0,0.0,0.0,0.0,0.0,0.0,0.0,0.0,0.0,0.0,0.0,0.0,0.0,0.0,0.0,0.0,0.0,0.0,0.0,0.0,0.0,0.0,0.0,0.0,0.0,0.0,0.0,0.0,0.0,0.0,0.0,0.0,0.0,0.0,0.0,0.0,0.0,0.0,0.0,0.0,0.0,0.0,0.0,0.0,0.0,0.0,0.0,0.0,0.0,0.0,0.0,0.0,0.0,0.0,0.0,0.0,0.0,0.0,0.0,0.0,0.0,0.0,0.0,0.0,0.0,0.0,0.0,0.0,0.0,0.0,0.0,0.0,0.0,0.0,0.0,0.0,0.0,0.0,0.0,0.0,0.0,0.0,0.0,0.0,0.0,0.0,0.0,0.0,0.0,0.0,0.0,0.0,0.0,0.0,0.0,0.0,0.0,0.0,0.0,0.0,0.0,0.0,0.0,0.0,0.0,0.0,0.0,0.0,0.0,0.0,0.0,0.0,0.0,0.0,0.0,0.0,0.0,0.0,0.0,0.0,0.0,0.0,0.0,0.0,0.0,0.0,0.0,0.0,0.0,0.0,0.0,0.0,0.0,0.0,0.0,0.0,0.0,0.0,0.0,0.0,0.0,0.0,0.0,0.0,0.0,0.0,0.0,0.0,0.0,0.0,0.0,0.0,0.0,0.0,0.0,0.0,0.0,0.0,0.0,0.0,0.0,0.0,0.0,0.0,0.0,0.0,0.0,0.0,0.0,0.0,0.0,0.0,0.0,0.0,0.0,0.0,0.0,0.0,0.0,0.0,0.0,0.0,0.0,0.0,0.0,0.0,0.0,0.0,0.0,0.0,0.0,0.0,0.0,0.0,0.0,0.0,0.0,0.0,0.0,0.0,0.0,0.0,0.0,0.0,0.0,0.0,0.0,0.0,0.0,0.0,0.0,0.0,0.0,0.0,0.0,0.0,0.0,0.0,0.0,0.0,0.0,0.0,0.0,0.0,0.0,0.0,0.0,0.0,0.0,0.0,0.0,0.0,0.0,0.0,0.0,0.0,0.0,0.0,0.0,0.0,0.0,0.0,0.0,0.0,0.0,0.0,0.0,0.0,0.0,0.0,0.0,0.0,0.0,0.0,0.0,0.0,0.0,0.0,0.0,0.0,0.0,0.0,0.0,0.0,0.0,0.0,0.0,0.0,0.0,0.0,0.0,0.0,0.0,0.0,0.0,0.0,0.0,0.0,0.0,0.0,0.0,0.0,0.0,0.0,0.0,0.0,0.0,0.0,0.0,0.0,0.0,0.0,0.0,0.0,0.0,0.0,0.0,0.0,0.0,0.0,0.0,0.0,0.0,0.0,0.0,0.0,0.0,0.0,0.0,0.0,0.0,0.0,0.0,0.0,0.0,0.0,0.0,0.0,0.0,0.0,0.0,0.0,0.0,0.0,0.0,0.0,0.0,0.0,0.0,0.0,0.0,0.0,0.0,0.0,0.0,0.0,0.0,0.0,0.0,0.0,0.0,0.0,0.0,0.0,0.0,0.0,0.0,0.0,0.0,0.0,0.0,0.0,0.0,0.0,0.0,0.0,0.0,0.0,0.0,0.0,0.0,0.0,0.0,0.0,0.0,0.0,0.0,0.0,0.0,0.0,0.0,0.0,0.0,0.0,0.0,0.0,0.0,0.0,0.0,0.0,0.0,0.0,0.0,0.0,0.0,0.0,0.0,0.0,0.0,0.0,0.0,0.0,0.0,0.0,0.0,0.0,0.0,0.0,0.0,0.0,0.0,0.0,0.0,0.0,0.0,0.0,0.0,0.0,0.0,0.0,0.0,0.0,0.0,0.0,0.0,0.0,0.0,0.0,0.0,0.0,0.0,0.0,0.0,0.0,0.0,0.0,0.0,0.0,0.0,0.0,0.0,0.0,0.0,0.0,0.0,0.0,0.0,0.0,0.0,0.0,0.0,0.0,0.0,0.0,0.0,0.0,0.0,0.0,0.0,0.0,0.0,0.0,0.0,0.0,0.0,0.0,0.0,0.0,0.0,0.0,0.0,0.0,0.0,0.0,0.0,0.0,0.0,0.0,0.0,0.0,0.0,0.0,0.0,0.0,0.0,0.0,0.0,0.0,0.0,0.0,0.0,0.0,0.0,0.0,0.0,0.0,0.0,0.0,0.0,0.0,0.0,0.0,0.0,0.0,0.0,0.0,0.0,0.0,0.0,0.0,0.0,0.0,0.0,0.0,0.0,0.0,0.0,0.0,0.0,0.0,0.0,0.0,0.0,0.0,0.0,0.0,0.0,0.0,0.0,0.0,0.0,0.0,0.0,0.0,0.0,0.0,0.0,0.0,0.0,0.0,0.0,0.0,0.0,0.0,0.0,0.0,0.0,0.0,0.0,0.0,0.0,0.0,0.0,0.0,0.0,0.0,0.0,0.0,0.0,0.0,0.0,0.0,0.0,0.0,0.0,0.0,0.0,0.0,0.0,0.0,0.0,0.0,0.0,0.0,0.0,0.0,0.0,0.0,0.0,0.0,0.0,0.0,0.0,0.0,0.0,0.0,0.0,0.0,0.0,0.0,0.0,0.0,0.0,0.0,0.0,0.0,0.0,0.0,0.0,0.0,0.0,0.0,0.0,0.0,0.0,0.0,0.0,0.0,0.0,0.0,0.0,0.0,0.0,0.0,0.0,0.0,0.0,0.0,0.0,0.0,0.0,0.0,0.0,0.0,0.0,0.0,0.0,0.0,0.0,0.0,0.0,0.0,0.0,0.0,0.0,0.0,0.0,0.0,0.0,0.0,0.0,0.0,0.0,0.0,0.0,0.0,0.0,0.0,0.0,0.0,0.0,0.0,0.0,0.0,0.0,0.0,0.0,0.0,0.0,0.0,0.0,0.0,0.0,0.0,0.0,0.0,0.0,0.0,0.0,0.0,0.0,0.0,0.0,0.0,0.0,0.0,0.0,0.0,0.0,0.0,0.0,0.0,0.0,0.0,0.0,0.0,0.0,0.0,0.0,0.0,0.0,0.0,0.0,0.0,0.0,0.0,0.0,0.0,0.0,0.0,0.0,0.0,0.0,0.0,0.0,0.0,0.0,0.0,0.0,0.0,0.0,0.0,0.0,0.0,0.0,0.0,0.0,0.0,0.0,0.0,0.0,0.0,0.0,0.0,0.0,0.0,0.0,0.0,0.0,0.0,0.0,0.0,0.0,0.0,0.0,0.0,0.0,0.0,0.0,0.0,0.0,0.0,0.0,0.0,0.0,0.0,0.0,0.0,0.0,0.0,0.0,0.0,0.0,0.0,0.0,0.0,0.0,0.0,0.0,0.0,0.0,0.0,0.0,0.0,0.0,0.0,0.0,0.0,0.0,0.0,0.0,0.0,0.0,0.0,0.0,0.0,0.0,0.0,0.0,0.0,0.0,0.0,0.0,0.0,0.0,0.0,0.0,0.0,0.0,0.0,0.0,0.0,0.0,0.0,0.0,0.0,0.0,0.0,0.0,0.0,0.0,0.0,0.0,0.0,0.0,0.0,0.0,0.0,0.0,0.0,0.0,0.0,0.0,0.0,0.0,0.0,0.0,0.0,0.0,0.0,0.0,0.0,0.0,0.0,0.0,0.0,0.0,0.0,0.0,0.0,0.0,0.0,0.0,0.0,0.0,0.0,0.0,0.0,0.0,0.0,0.0,0.0,0.0,0.0,0.0,0.0,0.0,0.0,0.0,0.0,0.0,0.0,0.0,0.0,0.0,0.0,0.0,0.0,0.0,0.0,0.0,0.0,0.0,0.0,0.0,0.0,0.0,0.0,0.0,0.0,0.0,0.0,0.0,0.0,0.0,0.0,0.0,0.0,0.0,0.0,0.0,0.0,0.0,0.0,0.0,0.0,0.0,0.0,0.0,0.0,0.0,0.0,0.0,0.0,0.0,0.0,0.0,0.0,0.0,0.0,0.0,0.0,0.0,0.0,0.0,0.0,0.0,0.0,0.0,0.0,0.0,0.0,0.0,0.0,0.0,0.0,0.0,0.0,0.0,0.0,0.0,0.0,0.0,0.0,0.0,0.0,0.0,0.0,0.0,0.0,0.0,0.0,0.0,0.0,0.0,0.0,0.0,0.0,0.0,0.0,0.0,0.0,0.0,0.0,0.0,0.0,0.0,0.0,0.0,0.0,0.0,0.0,0.0,0.0,0.0,0.0,0.0,0.0,0.0,0.0,0.0,0.0,0.0,0.0,0.0,0.0,0.0,0.0,0.0,0.0,0.0,0.0,0.0,0.0,0.0,0.0,0.0,0.0,0.0,0.0,0.0,0.0,0.0,0.0,0.0,0.0,0.0,0.0,0.0,0.0,0.0,0.0,0.0,0.0,0.0,0.0,0.0,0.0,0.0,0.0,0.0,0.0,0.0,0.0,0.0,0.0,0.0,0.0,0.0,0.0,0.0,0.0,0.0,0.0,0.0,0.0,0.0,0.0,0.0,0.0,0.0,0.0,0.0,0.0,0.0,0.0,0.0,0.0,0.0,0.0,0.0,0.0,0.0,0.0,0.0,0.0,0.0,0.0,0.0,0.0,0.0,0.0,0.0,0.0,0.0,0.0,0.0,0.0,0.0,0.0,0.0,0.0,0.0,0.0,0.0,0.0,0.0,0.0,0.0,0.0,0.0,0.0,0.0,0.0,0.0,0.0,0.0,0.0,0.0,0.0,0.0,0.0,0.0,0.0,0.0,0.0,0.0,0.0,0.0,0.0,0.0,0.0,0.0,0.0,0.0,0.0,0.0,0.0,0.0,0.0,0.0,0.0,0.0,0.0,0.0,0.0,0.0,0.0,0.0,0.0,0.0,0.0,0.0,0.0,0.0,0.0,0.0,0.0,0.0,0.0,0.0,0.0,0.0,0.0,0.0,0.0,0.0,0.0,0.0,0.0,0.0,0.0,0.0,0.0,0.0,0.0,0.0,0.0,0.0,0.0,0.0,0.0,0.0,0.0,0.0,-3.831,0.0,0.0,0.0,0.0,0.0,0.0,0.0,0.0,0.0,0.0,0.0,0.0,0.0,0.0,0.0,0.0,0.0,0.0,0.0,0.0,0.0,0.0,0.0,0.0,-2.4537,-2.3705,-2.3356,-2.3002,-2.2816,-2.2855,0.0,0.0,0.0,0.0,0.0,-2.4663,-2.5014,-2.5216,-2.5241,-2.5241,-2.5241,-2.5275,-2.6077,-2.6385,-2.6328,0.0,0.0,0.0,0.0,0.0,0.0,0.0,0.0,0.0,0.0,0.0,0.0,0.0,0.0,0.0,0.0,0.0,0.0,0.0,0.0,0.0,0.0,0.0,0.0,0.0,0.0,0.0,0.0,0.0,0.0,0.0,0.0,0.0,0.0,0.0,0.0,0.0,0.0,0.0,0.0,0.0,0.0,0.0,0.0,0.0,0.0,0.0,0.0,0.0,0.0,0.0,0.0,0.0,0.0,0.0,0.0,0.0,0.0,0.0,0.0,0.0,0.0,0.0,0.0,0.0,0.0,0.0,0.0,0.0,0.0,0.0,-3.9261,0.0,0.0,0.0,0.0,0.0,0.0,0.0,0.0,0.0,0.0,0.0,0.0,0.0,0.0,0.0,0.0,0.0,0.0,0.0,0.0,0.0,-2.2315,-2.4744,-2.4233,-2.3461,-2.2868,-2.2881,-2.2889,-2.2919,0.0,0.0,0.0,0.0,-2.402,-2.3999,-2.458,-2.4908,-2.4917,-2.4795,-2.4725,-2.4725,-2.4778,-2.4756,0.0,-2.5042,0.0,0.0,0.0,0.0,0.0,0.0,0.0,0.0,0.0,0.0,0.0,0.0,0.0,0.0,0.0,0.0,0.0,0.0,0.0,0.0,0.0,0.0,0.0,0.0,0.0,0.0,0.0,0.0,0.0,0.0,0.0,0.0,0.0,0.0,0.0,0.0,0.0,0.0,0.0,0.0,0.0,0.0,0.0,0.0,0.0,0.0,0.0,0.0,0.0,0.0,0.0,0.0,0.0,0.0,0.0,0.0,0.0,0.0,0.0,0.0,0.0,0.0,0.0,-4.0584,-4.0912,-4.0912,-4.0912,-4.0912,-4.086,-4.0198,-4.0214,-4.0645,-3.9922,0.0,0.0,0.0,0.0,0.0,0.0,0.0,0.0,0.0,0.0,0.0,0.0,0.0,0.0,0.0,0.0,0.0,0.0,0.0,-2.1711,-2.4763,-2.3807,-2.2933,-2.2893,-2.2889,-2.2914,-2.2977,0.0,0.0,0.0,-2.3688,-2.3752,-2.3584,-2.3673,-2.3608,-2.3393,-2.2739,-2.2435,-2.2435,0.0,0.0,0.0,-2.4432,-2.5181,0.0,0.0,0.0,0.0,0.0,0.0,0.0,0.0,0.0,0.0,0.0,0.0,0.0,0.0,0.0,0.0,0.0,0.0,0.0,0.0,0.0,0.0,0.0,0.0,0.0,0.0,0.0,0.0,0.0,0.0,0.0,0.0,0.0,0.0,0.0,0.0,0.0,0.0,0.0,0.0,0.0,0.0,-3.1947,-3.2867,0.0,0.0,0.0,0.0,0.0,0.0,0.0,0.0,0.0,0.0,0.0,0.0,0.0,-3.9888,-4.0601,-4.0687,-4.0739,-4.0739,-4.086,-4.0912,-4.0912,-4.0912,-4.0912,-4.0894,-4.0791,0.0,-4.0673,-4.0334,0.0,0.0,0.0,0.0,0.0,0.0,0.0,0.0,0.0,0.0,0.0,0.0,0.0,0.0,0.0,0.0,0.0,0.0,0.0,0.0,0.0,-2.351,-2.2914,-2.294,-2.2995,-2.3077,0.0,0.0,0.0,-2.3657,-2.3635,-2.3587,-2.3504,-2.3354,-2.3211,-2.3107,-2.2364,-2.2008,0.0,0.0,0.0,0.0,-2.3007,-2.3563,0.0,0.0,0.0,0.0,0.0,0.0,0.0,0.0,0.0,0.0,0.0,0.0,0.0,0.0,0.0,0.0,0.0,0.0,0.0,0.0,0.0,0.0,0.0,0.0,0.0,0.0,0.0,0.0,0.0,0.0,0.0,0.0,0.0,0.0,0.0,0.0,0.0,0.0,0.0,0.0,0.0,-3.1681,-3.3273,-3.3619,-3.4419,-3.477,0.0,0.0,0.0,0.0,0.0,0.0,0.0,0.0,0.0,-3.9664,-3.9698,-4.0077,-4.0894,-4.0912,-4.0912,-4.0912,-4.0912,-4.0912,-4.0912,-4.0912,-4.0864,-4.0793,-4.0704,-4.0419,-3.9961,-3.991,-3.9781,-3.9484,0.0,0.0,0.0,0.0,-3.6033,-3.5925,0.0,0.0,0.0,0.0,0.0,0.0,0.0,0.0,0.0,0.0,0.0,0.0,-2.3883,-2.3397,-2.3008,-2.3015,0.0,0.0,0.0,0.0,0.0,-2.3735,-2.3707,-2.3638,-2.3531,-2.3247,-2.3002,0.0,0.0,0.0,0.0,0.0,0.0,0.0,0.0,0.0,0.0,0.0,0.0,0.0,0.0,0.0,0.0,0.0,0.0,0.0,0.0,0.0,0.0,0.0,0.0,0.0,0.0,0.0,0.0,0.0,0.0,0.0,0.0,0.0,0.0,0.0,0.0,0.0,0.0,0.0,0.0,0.0,0.0,0.0,0.0,0.0,0.0,0.0,0.0,0.0,0.0,-3.2905,-3.4251,-3.4631,-3.5628,-3.5873,0.0,0.0,0.0,0.0,0.0,0.0,-3.8801,-3.9083,-3.9549,-4.0267,-4.0474,-4.0894,-4.1481,-4.1291,-4.1188,-4.1188,-4.0998,-4.0912,-4.0912,-4.0912,-4.084,-4.0697,-4.0444,-3.9969,-3.9411,-3.9463,-3.9415,-3.9198,-3.8201,-3.7596,-3.7233,-3.6472,-3.6487,-3.6805,0.0,0.0,0.0,0.0,0.0,0.0,0.0,0.0,0.0,0.0,0.0,-2.315,0.0,0.0,0.0,0.0,0.0,0.0,0.0,0.0,0.0,-2.3599,-2.3976,-2.3986,-2.3599,-2.3277,0.0,0.0,0.0,0.0,0.0,0.0,0.0,0.0,0.0,0.0,0.0,0.0,0.0,0.0,0.0,0.0,0.0,0.0,0.0,0.0,0.0,0.0,0.0,0.0,0.0,0.0,0.0,0.0,0.0,0.0,0.0,0.0,0.0,0.0,0.0,0.0,0.0,0.0,0.0,0.0,0.0,0.0,0.0,0.0,0.0,0.0,0.0,0.0,0.0,0.0,0.0,0.0,0.0,-3.6025,-3.6249,0.0,0.0,0.0,0.0,-3.7443,-3.8099,-3.8819,-3.9595,-4.0377,-4.1119,-4.1854,-4.2637,-4.3034,-4.3086,-4.2327,-4.1947,-4.1947,-4.124,-4.0912,-4.0912,-4.0912,-4.084,-4.0673,-4.0095,-3.9655,-3.9385,-3.9269,-3.8171,-3.6584,-3.6524,-3.5754,-3.4762,-3.5335,-3.5567,-3.5675,0.0,0.0,0.0,-1.8552,-1.8387,-1.8688,-1.9556,-2.0941,-2.2035,-2.244,-2.3571,0.0,0.0,0.0,0.0,0.0,0.0,0.0,0.0,0.0,-2.3829,-2.4106,-2.3998,-2.3813,-2.3549,-2.3418,-2.2958,0.0,0.0,0.0,0.0,0.0,0.0,0.0,0.0,0.0,0.0,0.0,0.0,0.0,0.0,0.0,0.0,0.0,0.0,0.0,0.0,0.0,0.0,0.0,0.0,0.0,0.0,0.0,0.0,0.0,0.0,0.0,0.0,0.0,0.0,0.0,0.0,0.0,0.0,0.0,0.0,0.0,0.0,0.0,0.0,0.0,0.0,0.0,0.0,0.0,0.0,0.0,0.0,-3.696,-3.7473,0.0,-3.7767,-3.8025,-3.841,-3.887,-3.8715,-3.9146,-4.0411,-4.0739,-4.124,-4.1999,-4.2775,-4.3189,-4.3189,-4.2413,-4.2016,-4.1974,-4.1257,-4.0912,-4.0912,-4.0912,-4.0614,-4.0104,-3.9817,-3.9113,-3.8234,-3.8096,-3.7668,-3.7008,-3.6624,-3.6182,-3.5829,-3.6076,-3.6122,-3.6168,-1.8711,-1.8703,0.0,-1.8068,-1.8016,-1.8498,-1.9878,-2.1354,-2.2375,-2.2495,-2.3854,-2.436,0.0,0.0,0.0,0.0,0.0,0.0,0.0,0.0,-2.3894,-2.4162,-2.3907,-2.3696,-2.3567,-2.326,0.0,0.0,0.0,0.0,0.0,0.0,0.0,0.0,0.0,0.0,0.0,0.0,0.0,0.0,0.0,0.0,-2.1628,0.0,0.0,0.0,0.0,0.0,0.0,0.0,0.0,0.0,0.0,0.0,0.0,0.0,0.0,0.0,0.0,0.0,0.0,0.0,0.0,0.0,0.0,0.0,0.0,0.0,0.0,0.0,0.0,0.0,0.0,0.0,0.0,0.0,0.0,0.0,-3.6215,-3.6991,-3.7996,-3.8594,-3.8594,-3.906,-3.9457,-3.9681,-3.925,-3.9405,-4.0446,-4.0998,-4.1619,-4.2378,-4.3388,-4.3923,-4.3923,-4.293,-4.2413,-4.2396,-4.1395,-4.0912,-4.0894,-4.0686,-4.0286,-3.9714,-3.9209,-3.8446,-3.7517,-3.7238,-3.7104,-3.7074,-3.6662,-3.6492,-3.6492,-3.6492,-3.6492,-3.6492,-1.7337,-1.767,-1.7922,-1.7994,-1.8076,-1.8931,-2.1251,-2.1625,-2.2228,-2.3884,-2.4089,0.0,0.0,0.0,0.0,0.0,0.0,0.0,0.0,-2.3623,-2.37,-2.37,-2.3711,-2.3711,-2.37,0.0,0.0,0.0,0.0,0.0,0.0,0.0,0.0,0.0,0.0,0.0,0.0,0.0,0.0,0.0,0.0,0.0,-2.0376,0.0,0.0,0.0,0.0,0.0,0.0,0.0,0.0,0.0,0.0,0.0,0.0,0.0,0.0,0.0,0.0,0.0,0.0,0.0,0.0,0.0,0.0,0.0,0.0,0.0,0.0,0.0,0.0,0.0,0.0,0.0,0.0,0.0,-3.5094,-3.5214,-3.5508,-3.6284,-3.768,-3.8617,-3.8629,-3.9997,-4.0532,-3.9715,-3.9629,-3.9646,-3.9698,-4.1112,-4.2309,-4.3138,-4.4596,-4.5363,-4.5363,-4.3889,-4.3172,-4.3172,-4.1585,-4.0843,-4.0836,-4.0218,-3.9783,-3.9449,-3.8253,-3.7571,-3.7265,-3.6692,-3.643,-3.643,-3.6476,-3.6492,-3.6492,-3.6492,-3.6492,-3.6492,-1.7068,-1.7368,-1.7687,-1.7961,-1.8504,-1.9516,-2.132,-2.2044,-2.2803,-2.3954,-2.4089,0.0,0.0,0.0,0.0,0.0,0.0,0.0,-2.3645,0.0,-2.3771,-2.3771,-2.3915,0.0,0.0,0.0,0.0,0.0,0.0,0.0,0.0,0.0,0.0,0.0,0.0,0.0,0.0,0.0,0.0,0.0,0.0,0.0,-2.046,0.0,0.0,0.0,0.0,0.0,0.0,0.0,0.0,0.0,0.0,0.0,0.0,0.0,0.0,0.0,0.0,0.0,0.0,0.0,0.0,0.0,0.0,0.0,0.0,0.0,0.0,0.0,0.0,0.0,0.0,0.0,0.0,-3.4956,-3.5163,-3.5663,-3.649,-3.7801,-3.8336,-3.8801,-3.9353,-3.9767,-3.9715,-3.8957,-3.8427,-3.8582,-3.9629,-4.0095,-4.094,-4.2292,-4.3828,-4.4596,-4.4596,-4.3103,-4.262,-4.3172,-4.0498,-3.9514,-4.0008,-3.8785,-3.8019,-3.7505,-3.6588,-3.5913,-3.5412,-3.5163,-3.5059,-3.5152,-3.6107,-3.6492,-3.6492,-3.6492,-3.6492,-3.6492,-1.6955,-1.726,-1.7607,-1.795,-1.8933,-2.0135,-2.1406,-2.2233,-2.3045,-2.3971,-2.3811,0.0,0.0,0.0,0.0,0.0,0.0,0.0,-2.3285,-2.3601,-2.3806,0.0,0.0,0.0,0.0,0.0,0.0,0.0,0.0,0.0,0.0,0.0,0.0,0.0,0.0,0.0,0.0,0.0,0.0,0.0,0.0,0.0,-2.0098,-1.9887,-1.9797,-1.9762,-1.9654,-1.9705,-1.978,-1.978,0.0,0.0,0.0,0.0,0.0,0.0,0.0,0.0,0.0,0.0,0.0,0.0,0.0,0.0,0.0,0.0,0.0,0.0,0.0,0.0,0.0,0.0,0.0,0.0,-3.4404,-3.5301,-3.5611,-3.6025,-3.6628,-3.7525,-3.8198,-3.8646,-3.8767,-3.9336,-3.9267,-3.8237,-3.8047,-3.8318,-3.9181,-3.9836,-4.0733,-4.1964,-4.3207,-4.3845,-4.3845,-4.2309,-4.1774,-4.2206,-3.953,-3.8471,-3.8794,-3.7559,-3.675,-3.6247,-3.5605,-3.5049,-3.4606,-3.4534,-3.4505,0.0,0.0,0.0,0.0,0.0,-3.6492,-3.6492,-1.7245,-1.7572,-1.7933,-1.8359,-1.9663,-2.0956,-2.1854,-2.2457,-2.3166,-2.411,0.0,0.0,0.0,0.0,0.0,0.0,0.0,0.0,0.0,0.0,0.0,0.0,0.0,0.0,0.0,0.0,0.0,0.0,0.0,0.0,0.0,0.0,0.0,0.0,0.0,0.0,0.0,0.0,0.0,0.0,0.0,0.0,-1.9593,-1.9483,-1.9376,-1.9284,-1.9157,-1.9269,-1.9457,-1.9457,0.0,0.0,0.0,0.0,0.0,0.0,0.0,0.0,0.0,0.0,0.0,0.0,0.0,0.0,0.0,0.0,0.0,0.0,0.0,0.0,0.0,0.0,0.0,0.0,-3.4783,-3.5542,-3.6215,-3.6301,-3.6335,-3.6422,-3.7629,-3.8237,-3.7564,-3.8681,-3.887,-3.7478,-3.8043,-3.8491,-3.8594,0.0,0.0,0.0,0.0,-4.3051,-4.3051,-4.1533,-4.0825,-4.0877,-3.8685,-3.7581,-3.7458,-3.646,-3.5781,-3.535,-3.4842,-3.4475,-3.4274,-3.4274,-3.4274,-3.4289,-3.452,-3.4982,-3.5598,-3.6245,-3.6492,-3.6492,-1.912,-1.9444,-1.9979,-2.0975,-2.1732,-2.2667,-2.4129,-2.3905,-2.3926,-2.4861,-2.3254,0.0,0.0,0.0,0.0,0.0,0.0,0.0,0.0,0.0,0.0,0.0,0.0,0.0,0.0,0.0,0.0,0.0,0.0,0.0,0.0,0.0,0.0,0.0,0.0,0.0,0.0,0.0,0.0,0.0,0.0,0.0,-1.9593,-1.9574,-1.9465,-1.9302,-1.9265,-1.9228,-1.9195,-1.9195,-1.9195,-1.9195,-1.9195,0.0,0.0,0.0,0.0,0.0,0.0,0.0,0.0,0.0,0.0,0.0,0.0,0.0,0.0,0.0,0.0,0.0,0.0,0.0,0.0,-3.4061,-3.5214,-3.6146,-3.6284,-3.6301,-3.6542,-3.718,-3.753,-3.7668,-3.7512,-3.7771,-3.7547,-3.6594,-3.7288,-3.7978,-3.8582,-3.9439,-4.0284,-4.1101,-4.1843,-4.224,-4.224,-4.0698,-4.025,-4.0877,0.0,0.0,-3.6834,-3.5414,-3.4484,-3.3946,-3.3193,-3.2838,-3.2798,-3.2798,-3.2798,-3.2967,-3.4659,-3.5398,-3.5598,-3.6245,-3.6492,-3.6492,-2.1408,-2.0936,-2.0746,-2.17,-2.2708,-2.3629,-2.425,-2.4391,-2.4461,-2.4632,-2.3306,0.0,0.0,0.0,0.0,0.0,0.0,0.0,0.0,0.0,0.0,0.0,0.0,0.0,0.0,0.0,0.0,0.0,0.0,0.0,0.0,0.0,0.0,0.0,0.0,0.0,0.0,0.0,0.0,0.0,0.0,0.0,-1.9501,-1.9501,-1.9413,-1.9302,-1.9213,-1.9157,-1.9101,-1.9101,-1.9101,-1.9101,-1.9101,-1.9666,-2.0235,0.0,0.0,0.0,0.0,0.0,0.0,0.0,0.0,0.0,0.0,0.0,0.0,0.0,0.0,-3.0749,-3.2618,0.0,-3.3869,-3.5007,-3.5508,-3.587,-3.6249,-3.6301,-3.6439,-3.6853,-3.7254,-3.734,-3.6939,-3.7271,-3.7185,-3.6353,-3.7064,-3.7823,-3.8543,-3.9301,-4.006,-4.0877,-4.1257,-4.1274,-4.0836,-3.9715,-3.9163,-3.9169,-3.6997,-3.583,-3.5623,-3.4676,-3.3834,-3.3082,-3.278,-3.2551,-3.2398,-3.2398,-3.2398,-3.2536,-3.3906,-3.4445,-3.4522,-3.526,-3.5506,-3.5446,-2.3363,-2.2369,-2.1571,-2.2132,-2.3302,-2.407,-2.3782,-2.4325,-2.4585,-2.405,-2.3232,-2.2504,-2.2025,-2.1998,-2.1829,0.0,0.0,0.0,0.0,0.0,0.0,0.0,0.0,0.0,0.0,0.0,0.0,0.0,0.0,0.0,0.0,0.0,0.0,0.0,0.0,0.0,0.0,0.0,0.0,0.0,0.0,0.0,-1.9395,-1.9321,-1.9265,-1.9246,-1.9064,-1.9045,-1.9101,-1.9101,-1.9101,-1.9101,-1.9101,-1.9566,-2.0103,-2.0103,-2.0719,0.0,0.0,0.0,0.0,0.0,0.0,0.0,0.0,0.0,-2.8773,-3.0088,-3.0764,-3.1867,-3.4286,-3.3973,-3.3955,-3.5783,-3.5714,-3.5611,-3.6215,-3.6301,-3.6249,-3.6094,-3.6784,-3.7008,-3.6353,-3.6887,-3.6991,-3.6353,-3.7064,-3.7771,-3.8336,-3.9077,-3.9767,-4.0446,-4.0463,-4.0152,-3.9491,-3.8732,-3.8099,-3.7495,-3.6207,-3.526,-3.4616,-3.4226,-3.3549,-3.2703,-3.28,-3.2676,-3.2398,-3.2398,-3.2398,-3.2444,-3.2998,-3.3213,-3.3306,-3.4181,-3.4401,-3.4224,-2.4071,-2.403,-2.386,-2.3774,-2.3948,-2.4062,-2.3899,-2.3907,-2.3849,-2.3591,-2.2617,-2.1929,-2.1913,-2.1346,-2.1297,-2.2096,0.0,0.0,0.0,0.0,0.0,0.0,0.0,0.0,0.0,0.0,0.0,0.0,0.0,0.0,0.0,0.0,0.0,0.0,0.0,0.0,0.0,0.0,0.0,0.0,0.0,0.0,-1.9358,-1.9007,-1.8969,-1.9082,-1.8765,-1.8841,-1.9101,-1.9101,-1.9101,-1.9101,-1.9101,-1.9566,-2.0103,-2.0103,0.0,-2.1126,-2.1405,-2.2384,-2.344,-2.4151,-2.4719,-2.5412,0.0,0.0,-2.7705,-2.9209,-3.0609,-3.1867,-3.2958,-3.4128,-3.5025,-3.5283,-3.5801,-3.6215,-3.6284,-3.6301,-3.6059,-3.5387,-3.5973,-3.6404,-3.6301,-3.6387,-3.6404,-3.6301,-3.7064,-3.7547,-3.7616,-3.8301,-3.875,-3.8836,-3.8876,-3.8801,-3.8715,-3.7996,-3.7581,-3.7495,-3.6207,-3.5305,-3.4745,-3.4136,-3.3533,-3.3016,-3.2757,-3.2551,-3.2398,-3.2398,-3.2398,-3.2398,-3.2475,-3.2505,-3.2659,-3.4012,-3.4119,-3.3607,-2.4235,-2.4302,-2.4025,-2.316,-2.3649,-2.3946,-2.326,-2.3226,-2.3116,-2.2635,-2.2227,-2.1998,-2.2077,-2.2007,-2.2146,-2.2617,-2.2581,0.0,0.0,0.0,0.0,0.0,0.0,0.0,0.0,0.0,0.0,0.0,0.0,0.0,0.0,0.0,0.0,0.0,0.0,0.0,0.0,0.0,0.0,0.0,0.0,0.0,-1.9358,-1.8936,-1.8917,-1.9026,-1.8364,-1.8553,0.0,0.0,-1.8898,-1.9101,-1.9101,-1.9566,-2.0103,-2.0103,-2.0524,0.0,-2.1645,-2.332,0.0,0.0,-2.548,-2.6741,-2.6514,-2.7099,-2.7965,-2.8906,-3.0108,-3.1425,-3.2974,-3.3974,-3.4855,0.0,-3.6094,-3.6146,-3.5714,-3.5663,-3.5387,-3.4645,-3.5197,-3.5663,-3.5663,-3.6042,-3.6301,-3.6301,-3.6611,-3.7012,-3.7478,-3.7806,-3.8168,-3.8599,-3.8594,-3.8387,-3.7961,-3.765,-3.7141,-3.6376,-3.5835,-3.5184,-3.4391,-3.4093,-3.3652,-3.3069,-3.2757,-3.2578,-3.2523,-3.2425,-3.2398,-3.2398,-3.2398,-3.2398,-3.2459,-3.3072,-3.2872,-3.2273,-2.4302,-2.4302,-2.3948,-2.2778,-2.3352,-2.354,-2.2215,-2.2356,-2.2392,-2.1817,-2.1955,-2.2153,-2.2281,-2.2554,-2.276,-2.281,-2.2738,-2.2655,0.0,0.0,0.0,0.0,0.0,0.0,0.0,0.0,0.0,0.0,0.0,0.0,0.0,0.0,0.0,0.0,0.0,0.0,0.0,0.0,0.0,0.0,0.0,0.0,-1.9815,-1.9229,-1.9171,-1.9253,-1.8335,-1.8461,0.0,0.0,-1.886,-1.9101,-1.9101,-1.9435,-1.9856,-2.0045,-2.0654,-2.1403,-2.1954,0.0,0.0,-2.4311,-2.5663,-2.7041,-2.6198,-2.6783,-2.7705,-2.8323,-2.9354,-3.0786,-3.2672,-3.3436,-3.4249,-3.5749,-3.5818,-3.5576,-3.5249,-3.5108,-3.4842,-3.4324,-3.4911,-3.5342,-3.5362,-3.5935,-3.6301,-3.6301,-3.6301,-3.6542,-3.715,-3.7185,-3.7404,-3.7939,-3.7956,-3.7698,-3.7163,-3.7185,-3.6637,-3.5594,-3.5459,-3.4927,-3.4101,-3.3949,-3.3607,-3.3085,-3.2839,-3.2676,-3.2578,-3.2496,-3.2425,-3.2398,-3.2398,-3.2398,-3.2398,-3.2216,-3.1766,-3.1116,-2.4302,-2.4302,-2.4087,-2.3394,-2.337,-2.2785,-2.0871,-2.1294,-2.1709,-2.1356,-2.1763,-2.2198,-2.2457,-2.2563,-2.2604,-2.2604,-2.2603,-2.2554,-2.2409,-2.2274,0.0,0.0,0.0,0.0,0.0,0.0,0.0,0.0,0.0,0.0,0.0,0.0,0.0,0.0,0.0,0.0,0.0,0.0,0.0,0.0,0.0,0.0,-2.1032,-1.9981,-1.9792,-1.9927,-1.8857,0.0,0.0,0.0,-1.9082,-1.9101,-1.9101,-1.9116,0.0,-1.9914,-2.0988,0.0,0.0,0.0,-2.4133,-2.4421,-2.4778,-2.5254,-2.5866,-2.604,-2.6286,-2.7081,-2.8428,-2.9931,-3.1548,-3.2455,-3.3438,-3.4973,-3.4628,-3.4424,-3.5094,-3.4857,-3.4633,-3.4671,-3.5282,-3.5719,0.0,-3.6099,-3.6301,-3.6301,-3.6301,-3.6318,-3.6335,-3.6335,-3.6353,-3.637,-3.637,-3.6353,-3.6335,-3.6335,-3.6105,-3.5594,-3.5052,-3.4586,-3.4075,-3.3555,-3.3229,-3.3096,-3.3096,-3.2908,-3.2594,-3.2594,-3.2523,-3.2398,-3.2398,-3.2398,-3.2342,-3.1737,-3.1087,-3.0419,-2.3717,-2.364,-2.3286,-2.2166,-2.204,-2.1711,-2.0665,-2.119,-2.155,-2.1038,-2.1324,0.0,0.0,0.0,0.0,0.0,-2.2167,-2.2181,-2.2139,-2.2084,0.0,0.0,0.0,0.0,0.0,0.0,0.0,0.0,0.0,0.0,0.0,0.0,0.0,0.0,0.0,0.0,0.0,0.0,0.0,0.0,0.0,0.0,-2.1155,-2.0799,-2.0431,-2.0054,0.0,0.0,0.0,0.0,0.0,0.0,-1.9101,0.0,0.0,-1.9899,0.0,-2.0788,0.0,0.0,-2.3173,-2.2597,-2.3368,-2.4207,-2.3986,-2.4286,-2.4757,-2.5289,-2.6751,-2.85,-3.0328,-3.1497,-3.2835,-3.4869,-3.4596,-3.4372,-3.5094,-3.4898,-3.4671,-3.4689,-3.5561,0.0,0.0,0.0,0.0,-3.6301,-3.6301,-3.6301,-3.6301,-3.6301,-3.6301,-3.6301,-3.6301,-3.6301,-3.6301,-3.6301,-3.5881,-3.5068,-3.4202,-3.3704,-3.3555,-3.3372,-3.3229,-3.3112,-3.3005,-3.2827,-3.2578,-3.2496,-3.2425,-3.2398,-3.2398,-3.2398,-3.2272,-3.1233,-3.0703,-3.0389,-2.3425,-2.3302,-2.2948,-2.1858,-2.1698,0.0,0.0,0.0,0.0,0.0,0.0,0.0,0.0,0.0,0.0,0.0,0.0,-2.1955,-2.1926,0.0,0.0,0.0,0.0,0.0,0.0,0.0,0.0,0.0,0.0,0.0,0.0,0.0,0.0,0.0,0.0,0.0,0.0,0.0,0.0,0.0,0.0,0.0,-2.1784,-2.1566,-2.1195,0.0,0.0,0.0,0.0,0.0,0.0,0.0,0.0,0.0,0.0,-1.9972,-2.0248,-2.0424,-2.0493,-2.1538,-2.2426,-2.1623,-2.2491,-2.3433,-2.3009,-2.3417,-2.4001,-2.441,-2.6167,-2.8048,-2.9448,-3.1079,-3.2766,-3.4507,-3.4525,-3.4515,-3.5114,-3.5128,-3.5119,-3.5296,-3.606,-3.6523,0.0,0.0,0.0,-3.6322,-3.6301,-3.6301,-3.6301,-3.6301,-3.6301,-3.6301,-3.6301,-3.6301,-3.6301,-3.6301,-3.5793,-3.4785,-3.3781,-3.3309,-3.3309,-3.3309,-3.3256,-3.3176,-3.3085,-3.2935,-3.2757,-3.2648,-3.2551,-3.2453,-3.216,-3.2076,-3.1936,-3.0615,-3.0133,-3.0056,-2.3379,-2.3225,-2.2978,0.0,0.0,0.0,0.0,0.0,0.0,0.0,0.0,0.0,0.0,0.0,0.0,0.0,0.0,0.0,0.0,0.0,0.0,0.0,0.0,0.0,0.0,0.0,0.0,0.0,0.0,0.0,0.0,0.0,0.0,0.0,0.0,0.0,0.0,0.0,0.0,0.0,0.0,0.0,-2.283,-2.2265,0.0,0.0,0.0,0.0,0.0,0.0,0.0,0.0,0.0,0.0,0.0,-2.0088,-2.048,-2.0831,-2.0562,-2.1173,-2.1812,-2.1417,-2.2084,-2.2787,-2.2787,-2.3338,-2.3973,-2.4398,-2.6533,-2.8486,-2.8942,0.0,-3.3128,-3.3975,-3.4427,-3.4802,-3.5189,-3.5528,-3.5907,0.0,0.0,0.0,0.0,0.0,0.0,-3.6346,0.0,-3.6301,-3.6301,-3.6301,-3.6301,-3.6301,-3.6301,-3.6301,-3.6301,-3.6259,-3.5749,-3.4785,-3.3781,-3.3309,-3.3309,-3.3309,-3.3309,-3.3282,-3.3282,-3.3203,-3.3085,-3.2951,-3.2773,-3.2523,-3.1794,-3.1508,-3.1364,-2.9997,-2.9504,-2.9425,0.0,0.0,0.0,0.0,0.0,0.0,0.0,0.0,0.0,0.0,0.0,0.0,0.0,0.0,0.0,0.0,0.0,0.0,0.0,0.0,0.0,0.0,0.0,0.0,0.0,0.0,0.0,0.0,0.0,0.0,0.0,0.0,0.0,0.0,0.0,0.0,0.0,0.0,0.0,0.0,0.0,0.0,-2.2873,0.0,0.0,0.0,0.0,0.0,0.0,0.0,0.0,0.0,0.0,0.0,-1.9449,0.0,0.0,-1.9672,-2.0084,-2.034,-2.0494,-2.0368,-2.0848,-2.1348,-2.1348,-2.228,-2.3351,-2.3982,-2.5922,-2.7907,-2.9144,0.0,0.0,-3.3889,-3.4194,0.0,-3.5856,-3.6123,0.0,-3.7131,0.0,-3.8148,-3.7982,-3.7861,0.0,0.0,-3.6471,-3.6301,-3.6301,-3.6301,-3.6301,-3.6301,-3.6301,-3.6301,-3.6301,-3.5571,-3.5052,-3.4785,-3.3781,-3.3309,-3.3309,-3.3309,-3.3256,-3.315,-3.315,-3.3069,-3.2951,-3.2897,-3.287,-3.2746,-3.1964,-3.1637,-3.1493,-3.0086,-2.9532,-2.9425,0.0,0.0,0.0,0.0,0.0,0.0,0.0,0.0,0.0,0.0,0.0,0.0,0.0,0.0,0.0,0.0,0.0,0.0,0.0,0.0,0.0,0.0,0.0,0.0,0.0,0.0,0.0,0.0,0.0,0.0,0.0,0.0,0.0,0.0,0.0,0.0,0.0,0.0,0.0,0.0,0.0,0.0,0.0,0.0,0.0,0.0,0.0,0.0,0.0,0.0,0.0,-2.0393,-1.9841,-1.9783,-1.9899,-1.9711,0.0,-1.957,-1.9792,-1.9916,-2.0041,-2.0148,-2.0494,-2.0873,-2.1205,-2.2503,-2.384,-2.4555,-2.6709,0.0,-2.9603,0.0,0.0,0.0,0.0,0.0,-3.6452,-3.6911,-3.7306,0.0,-3.8269,0.0,-3.8103,-3.8069,-3.7721,0.0,-3.6678,-3.6492,-3.6322,-3.6301,-3.6301,-3.6301,-3.6301,-3.6301,-3.6301,-3.5549,-3.5028,-3.4785,-3.4034,-3.3529,-3.3309,-3.3309,-3.3256,-3.3176,0.0,-3.315,-3.3069,-3.3005,-3.2978,-3.2881,-3.1879,-3.1392,-3.1116,-2.9856,-2.9247,-2.9044,0.0,0.0,0.0,0.0,0.0,0.0,0.0,0.0,0.0,-2.0936,0.0,0.0,0.0,0.0,0.0,0.0,0.0,0.0,0.0,0.0,0.0,0.0,0.0,0.0,0.0,0.0,0.0,0.0,0.0,0.0,0.0,0.0,0.0,0.0,0.0,0.0,0.0,0.0,0.0,0.0,0.0,0.0,0.0,0.0,0.0,0.0,0.0,0.0,0.0,0.0,-2.1645,-2.086,-1.9769,-2.0099,-2.0644,-1.9534,-1.9622,-2.0016,-1.9657,-1.9797,-2.0113,-2.0342,-2.0596,-2.1,-2.1779,-2.3258,-2.4691,-2.5579,0.0,-2.9999,-3.0138,-3.2334,-3.4113,-3.4113,0.0,-3.6841,-3.688,-3.7542,-3.8051,-3.8101,-3.8332,-3.8399,-3.8103,-3.8052,-3.7739,-3.6935,-3.6937,-3.6779,-3.6322,-3.6301,-3.6301,-3.6301,-3.6301,-3.6301,-3.6301,-3.5815,-3.5345,-3.4793,-3.4333,-3.3822,-3.3309,-3.3309,-3.3309,-3.3309,-3.3309,-3.3309,-3.3309,-3.3176,-3.3123,-3.3016,-3.1694,-3.0999,-3.06,-2.9435,-2.8844,-2.8587,0.0,0.0,0.0,0.0,0.0,0.0,0.0,-2.1045,-2.1508,-2.1613,-2.1801,-2.2207,0.0,0.0,0.0,0.0,0.0,0.0,0.0,0.0,0.0,0.0,0.0,0.0,0.0,0.0,0.0,0.0,0.0,0.0,0.0,0.0,0.0,0.0,0.0,0.0,0.0,0.0,0.0,0.0,0.0,0.0,0.0,0.0,0.0,0.0,0.0,0.0,0.0,0.0,-2.2203,-2.1375,-2.1139,-2.0661,-2.0131,-1.9924,-1.9921,-1.9999,-1.9932,-2.0115,-2.0342,-2.0393,-2.0596,-2.1083,-2.2084,-2.3026,0.0,0.0,0.0,-2.9478,-3.0433,-3.2504,0.0,-3.4113,0.0,0.0,0.0,0.0,-3.7739,0.0,0.0,0.0,0.0,0.0,0.0,0.0,0.0,-3.7015,-3.6343,-3.6301,-3.6301,-3.6301,-3.6301,-3.6301,-3.6301,-3.5815,-3.5345,-3.4793,-3.4333,-3.3822,-3.3309,-3.3309,-3.3309,-3.3309,-3.3309,0.0,-3.3309,-3.3282,-3.3282,-3.3107,-3.1548,-3.0925,-3.069,-2.9247,-2.8651,-2.8587,0.0,0.0,0.0,0.0,0.0,0.0,0.0,-2.1155,-2.1821,-2.2309,-2.2762,-2.3201,-2.3644,-2.3499,-2.3644,0.0,0.0,0.0,0.0,0.0,0.0,0.0,0.0,0.0,0.0,0.0,0.0,0.0,0.0,0.0,0.0,0.0,0.0,0.0,0.0,0.0,0.0,0.0,0.0,0.0,0.0,0.0,0.0,0.0,0.0,0.0,0.0,0.0,0.0,0.0,-2.3061,-2.2338,-2.1506,-2.0877,-2.0412,-2.0096,-2.0005,-2.0025,-2.0168,-2.0306,-2.052,-2.1049,-2.0995,-2.1274,-2.3087,0.0,0.0,0.0,-2.8987,-3.0173,-3.1109,0.0,0.0,0.0,0.0,0.0,0.0,0.0,0.0,0.0,0.0,0.0,0.0,0.0,0.0,0.0,0.0,-3.7073,-3.6343,-3.6301,-3.6301,-3.6301,-3.6301,-3.6301,-3.6301,-3.6071,-3.5571,-3.4793,-3.4569,-3.4059,-3.3309,-3.3309,-3.3309,-3.3309,-3.3309,0.0,-3.3309,-3.3309,-3.3309,-3.3214,-3.217,-3.1433,-3.0778,-2.9827,-2.9103,-2.8587,0.0,0.0,0.0,0.0,0.0,0.0,0.0,-2.1374,-2.2137,-2.2799,-2.3623,-2.4223,-2.4454,-2.3935,-2.3965,0.0,0.0,0.0,0.0,0.0,0.0,0.0,0.0,0.0,0.0,0.0,0.0,0.0,0.0,0.0,0.0,0.0,0.0,0.0,0.0,0.0,0.0,0.0,0.0,0.0,0.0,0.0,0.0,0.0,0.0,0.0,0.0,0.0,0.0,0.0,-2.4025,-2.3301,-2.2009,-2.1504,-2.1222,-2.0579,-2.0413,-2.0419,-2.0474,-2.0495,-2.07,-2.1659,-2.1458,-2.1704,-2.4277,-2.5154,0.0,0.0,-3.0071,-3.0955,-3.1869,0.0,0.0,0.0,0.0,0.0,0.0,0.0,0.0,0.0,0.0,0.0,0.0,0.0,0.0,0.0,0.0,0.0,-3.6301,-3.628,-3.628,-3.628,-3.6301,-3.6301,-3.6301,-3.6301,-3.5793,-3.4793,-3.4793,-3.4276,-3.3309,-3.3309,-3.3309,-3.3309,-3.3309,0.0,0.0,-3.3309,-3.3309,-3.324,-3.2695,-3.1875,-3.0969,-3.0465,-2.9608,-2.8716,0.0,0.0,0.0,0.0,0.0,0.0,0.0,-2.2004,-2.2598,-2.2786,-2.403,-2.5031,-2.5347,-2.5217,-2.5255,0.0,0.0,0.0,0.0,0.0,0.0,0.0,0.0,0.0,0.0,0.0,0.0,0.0,0.0,0.0,0.0,0.0,0.0,0.0,0.0,0.0,0.0,0.0,0.0,0.0,0.0,0.0,0.0,0.0,0.0,0.0,0.0,0.0,0.0,0.0,0.0,-2.3834,-2.3689,-2.3217,-2.2589,-2.1925,0.0,0.0,-2.0951,-2.0761,-2.0951,-2.1711,-2.1837,-2.2539,-2.5384,0.0,0.0,-2.9934,-3.0627,-3.1145,-3.2541,-3.3834,-3.4918,0.0,0.0,0.0,0.0,0.0,0.0,0.0,0.0,0.0,0.0,0.0,0.0,0.0,0.0,0.0,-3.6208,-3.6208,-3.6208,-3.6208,-3.6276,-3.6301,-3.6301,-3.6301,-3.5793,-3.4793,-3.4793,-3.4276,-3.3309,-3.3309,-3.3309,-3.3309,-3.3309,0.0,0.0,-3.3309,-3.3309,-3.3214,-3.2446,-3.1804,-3.1275,-3.0555,-2.9763,-2.9035,0.0,0.0,0.0,0.0,0.0,0.0,-2.0793,-2.1472,-2.2188,-2.2737,-2.3711,-2.4569,-2.5141,-2.5767,-2.6154,-2.6154,0.0,0.0,0.0,0.0,0.0,0.0,0.0,0.0,0.0,0.0,0.0,0.0,0.0,0.0,0.0,0.0,0.0,0.0,0.0,0.0,0.0,0.0,0.0,0.0,0.0,0.0,0.0,0.0,0.0,0.0,0.0,0.0,0.0,0.0,0.0,0.0,-2.5313,-2.4982,0.0,0.0,-2.2234,-2.1837,-2.1537,-2.1442,-2.1678,-2.2814,-2.3319,-2.4225,-2.6858,0.0,-2.7893,-3.0211,-3.1041,-3.1679,-3.2714,-3.444,-3.5971,0.0,-3.8725,-4.0086,0.0,0.0,0.0,0.0,0.0,0.0,0.0,0.0,0.0,0.0,0.0,0.0,-3.5971,-3.6036,-3.6122,-3.6204,-3.6229,-3.6255,-3.6301,-3.6301,-3.5793,-3.4793,-3.4793,-3.4276,-3.3309,-3.3309,-3.3309,-3.3309,-3.3309,0.0,0.0,-3.3309,-3.3309,-3.3266,-3.2942,-3.2241,-3.1362,-3.1072,-3.0313,-2.9383,0.0,0.0,0.0,0.0,0.0,-2.0613,-2.0665,-2.1379,-2.2095,-2.2669,-2.3611,-2.4471,-2.5082,-2.638,-2.71,-2.6838,-2.7399,0.0,0.0,0.0,0.0,0.0,0.0,0.0,0.0,0.0,0.0,0.0,0.0,0.0,0.0,0.0,0.0,0.0,0.0,0.0,0.0,0.0,0.0,0.0,0.0,0.0,0.0,0.0,0.0,0.0,0.0,0.0,0.0,0.0,0.0,0.0,0.0,0.0,0.0,0.0,-2.304,-2.2485,-2.2485,-2.2451,-2.274,-2.4058,-2.4823,-2.586,0.0,-2.8693,-2.907,-3.097,-3.1765,-3.2458,-3.3559,-3.5223,-3.6701,0.0,-3.9631,-4.1003,-4.0714,0.0,0.0,0.0,0.0,0.0,0.0,0.0,0.0,0.0,0.0,0.0,-3.5773,-3.5822,-3.5954,-3.6122,-3.6182,-3.6229,-3.6301,-3.6301,-3.5793,-3.4793,-3.4793,-3.4276,-3.3309,-3.3309,-3.3309,-3.3309,-3.3309,0.0,0.0,-3.3309,-3.3182,-3.2993,-3.2993,-3.2307,-3.1236,-3.1236,-3.0617,-2.971,0.0,0.0,0.0,0.0,0.0,0.0,-2.1288,-2.2024,-2.2589,-2.2605,-2.4001,-2.5111,-2.5465,-2.7226,-2.8221,-2.7807,-2.7844,0.0,0.0,0.0,0.0,0.0,0.0,0.0,0.0,0.0,0.0,0.0,0.0,0.0,0.0,0.0,0.0,0.0,0.0,0.0,0.0,0.0,0.0,0.0,0.0,0.0,-2.8158,0.0,0.0,0.0,0.0,0.0,0.0,0.0,0.0,0.0,0.0,0.0,0.0,0.0,-2.4464,-2.3872,-2.3872,-2.3872,-2.4144,-2.5303,-2.613,-2.7276,0.0,-3.0082,-3.0619,-3.2483,-3.2886,-3.3486,-3.5403,-3.6112,-3.6771,-3.7907,-3.9783,-4.0769,-3.9845,0.0,0.0,0.0,0.0,0.0,0.0,0.0,0.0,0.0,0.0,0.0,-3.5622,-3.56,-3.5734,-3.5997,-3.6122,-3.6229,-3.6301,-3.6301,-3.5793,-3.4793,-3.4793,-3.4276,-3.3309,-3.3309,-3.3309,-3.3309,0.0,0.0,0.0,-3.3309,-3.2898,-3.2307,-3.2307,-3.1716,-3.0922,-3.0922,-3.0555,-3.008,0.0,0.0,0.0,0.0,0.0,0.0,0.0,-2.1359,-2.2182,-2.2911,-2.3969,-2.516,-2.6515,-2.7953,-2.8952,-2.9351,-2.9674,0.0,0.0,0.0,0.0,0.0,0.0,0.0,0.0,0.0,0.0,0.0,0.0,0.0,0.0,0.0,0.0,0.0,0.0,0.0,0.0,0.0,0.0,0.0,0.0,-2.9095,-2.965,0.0,0.0,0.0,0.0,0.0,0.0,0.0,0.0,0.0,0.0,0.0,0.0,-2.7805,-2.6942,-2.6227,-2.6227,-2.6227,-2.6428,-2.73,-2.8275,-2.9324,-3.0509,-3.1014,-3.1567,-3.2678,-3.3565,-3.4471,-3.5583,-3.6774,-3.8037,-3.9496,-4.0426,0.0,0.0,0.0,0.0,0.0,0.0,0.0,0.0,0.0,0.0,0.0,0.0,0.0,-3.5622,-3.56,-3.5689,-3.5861,-3.5975,-3.6122,-3.6229,-3.6276,-3.5793,-3.4793,-3.4343,-3.3828,-3.3293,-3.2845,-3.2876,0.0,0.0,0.0,0.0,-3.2813,-3.2497,-3.2244,-3.1744,-3.1,-3.0221,-3.0221,-2.9761,-2.9175,0.0,0.0,0.0,0.0,0.0,0.0,0.0,-2.1583,-2.2639,-2.3298,-2.4398,-2.564,-2.705,-2.8288,-2.9302,-3.0031,-3.0759,0.0,0.0,0.0,0.0,0.0,0.0,0.0,0.0,0.0,0.0,0.0,0.0,0.0,0.0,0.0,0.0,0.0,0.0,0.0,0.0,0.0,0.0,0.0,-2.9258,-2.9625,-2.9902,0.0,0.0,0.0,0.0,0.0,0.0,0.0,0.0,0.0,0.0,0.0,0.0,0.0,-2.9484,-2.8864,0.0,-2.8085,-2.8258,-2.8877,-2.9774,-3.0641,-3.1232,-3.1579,-3.2093,-3.3128,-3.4078,-3.5061,-3.6231,-3.7345,-3.8552,-3.9961,-4.0588,0.0,0.0,0.0,0.0,0.0,0.0,0.0,0.0,0.0,0.0,0.0,0.0,0.0,-3.5622,-3.56,-3.5644,-3.5728,-3.5844,-3.5993,-3.6122,-3.617,-3.5683,-3.4721,-3.4299,-3.3828,-3.3293,-3.2876,-3.2782,0.0,0.0,0.0,0.0,-3.2045,-3.1754,-3.1469,-3.1002,-3.0361,-2.9719,-2.959,-2.9268,-2.8965,0.0,0.0,0.0,0.0,0.0,0.0,0.0,-2.249,-2.3687,-2.3737,-2.5141,-2.6439,-2.7276,-2.8358,-2.9372,-3.0153,0.0,0.0,0.0,0.0,0.0,0.0,0.0,0.0,0.0,0.0,0.0,-3.1714,-3.1042,-3.1076,-3.1783,0.0,0.0,0.0,0.0,0.0,0.0,0.0,0.0,0.0,-2.9642,-2.9406,0.0,0.0,0.0,0.0,0.0,0.0,0.0,0.0,0.0,0.0,0.0,0.0,0.0,0.0,0.0,0.0,0.0,-2.957,-2.9668,-3.011,-3.0692,-3.1259,-3.169,-3.1834,0.0,-3.3803,-3.4481,-3.54,-3.7236,-3.7934,-3.8583,-3.967,-4.0505,0.0,0.0,0.0,0.0,0.0,0.0,0.0,0.0,0.0,0.0,0.0,0.0,0.0,-3.5537,-3.5464,-3.543,-3.543,-3.5559,-3.5725,-3.5907,-3.586,-3.5391,-3.4453,-3.4453,-3.4038,-3.323,-3.3182,-3.2835,0.0,0.0,0.0,0.0,-3.1135,-3.0765,-3.0204,-3.0141,-2.9836,-2.9379,-2.9012,-2.8993,-2.9205,0.0,0.0,0.0,0.0,0.0,0.0,0.0,0.0,0.0,0.0,-2.5514,-2.7113,-2.8784,-2.9213,-2.9918,0.0,0.0,0.0,0.0,0.0,0.0,0.0,0.0,0.0,0.0,0.0,0.0,-3.0973,-3.0765,-3.1076,-3.1783,-3.1041,0.0,0.0,0.0,0.0,0.0,0.0,0.0,0.0,-3.1025,-3.0868,0.0,0.0,0.0,0.0,-2.8202,-2.8025,0.0,0.0,0.0,0.0,0.0,0.0,0.0,0.0,-3.1523,-3.1711,-3.1355,0.0,-3.1266,-3.1378,-3.1515,-3.1671,0.0,-3.2231,-3.2921,0.0,0.0,-3.6488,-3.8054,-3.8885,-3.9785,-4.1244,-4.1593,0.0,0.0,0.0,0.0,0.0,0.0,0.0,0.0,0.0,0.0,0.0,0.0,-3.4873,-3.4759,-3.4218,-3.3909,-3.3909,-3.3952,-3.4287,-3.5015,-3.4599,-3.3918,-3.2994,-3.3053,-3.2883,-3.2529,-3.195,-3.1918,0.0,0.0,0.0,-3.1151,-3.0638,-3.0346,-3.0141,-2.958,-2.91,-2.8711,-2.8638,-2.8293,-2.7984,0.0,0.0,0.0,0.0,0.0,0.0,0.0,0.0,0.0,0.0,0.0,-2.7827,-2.8869,-2.9627,0.0,0.0,0.0,0.0,0.0,0.0,0.0,0.0,0.0,0.0,0.0,0.0,0.0,0.0,0.0,-3.1076,0.0,0.0,0.0,0.0,0.0,0.0,0.0,0.0,0.0,-3.1231,-3.1572,0.0,0.0,0.0,0.0,0.0,-2.7875,-2.8015,0.0,-2.8472,-2.9036,-2.9722,0.0,0.0,0.0,0.0,-3.156,-3.1727,-3.1781,-3.2317,-3.2852,-3.2852,-3.311,-3.3352,-3.3352,0.0,0.0,0.0,0.0,0.0,-3.832,-3.9192,0.0,-4.1685,-4.1923,0.0,0.0,0.0,0.0,0.0,0.0,0.0,0.0,0.0,0.0,0.0,0.0,-3.4336,-3.4015,-3.3626,-3.3406,-3.3406,-3.3068,-3.3279,-3.4105,-3.3881,-3.3326,-3.2409,-3.2512,-3.229,-3.1776,-3.1397,-3.1255,0.0,0.0,0.0,-3.0203,-2.9848,-2.9706,-2.9659,-2.9256,-2.8982,-2.874,-2.8574,-2.8052,-2.7556,0.0,0.0,0.0,0.0,0.0,0.0,0.0,0.0,0.0,0.0,0.0,0.0,0.0,0.0,0.0,0.0,0.0,0.0,0.0,0.0,0.0,0.0,0.0,0.0,0.0,0.0,0.0,0.0,0.0,0.0,0.0,0.0,-3.1024,0.0,0.0,0.0,0.0,0.0,-3.1145,-3.18,-3.1671,0.0,0.0,0.0,0.0,0.0,0.0,0.0,0.0,-2.8493,-2.9265,-3.0502,-3.0625,0.0,0.0,0.0,0.0,0.0,-3.1882,-3.316,-3.4295,-3.399,-3.4559,-3.5163,-3.5022,0.0,0.0,0.0,0.0,0.0,0.0,0.0,0.0,0.0,0.0,0.0,0.0,0.0,0.0,0.0,0.0,0.0,0.0,0.0,0.0,0.0,0.0,-3.388,-3.3271,-3.3136,-3.3068,-3.3068,-3.2459,-3.2425,-3.3068,-3.3209,-3.2841,-3.1991,-3.2225,-3.1902,-3.1065,-3.1065,-3.0733,-3.0204,0.0,0.0,-2.9098,-2.9098,-2.9098,-2.9098,-2.9098,-2.9098,-2.9052,-2.8646,-2.8085,-2.7579,0.0,0.0,0.0,0.0,0.0,0.0,0.0,0.0,0.0,0.0,0.0,0.0,0.0,0.0,0.0,0.0,0.0,0.0,0.0,0.0,0.0,0.0,0.0,0.0,0.0,0.0,0.0,0.0,0.0,0.0,-3.1783,-3.1041,-3.0766,-3.0851,0.0,0.0,0.0,-3.0748,-3.1145,-3.18,-3.1781,0.0,0.0,0.0,0.0,0.0,0.0,0.0,0.0,-2.8304,-2.923,-3.0427,-3.0427,0.0,0.0,0.0,0.0,0.0,-3.2441,-3.4134,-3.5278,-3.352,-3.4145,-3.5004,0.0,0.0,0.0,0.0,0.0,0.0,0.0,0.0,0.0,0.0,0.0,0.0,0.0,0.0,0.0,0.0,0.0,0.0,0.0,0.0,0.0,0.0,0.0,-3.2598,-3.2479,-3.1887,-3.1529,-3.1529,-3.1427,-3.141,-3.1529,-3.1723,-3.1372,-3.0533,-3.1303,-3.1206,-3.0362,-3.0362,-3.0315,-3.0172,0.0,-2.9209,-2.9098,-2.9098,-2.9098,-2.9098,-2.9098,-2.9098,-2.9052,-2.8646,-2.8207,-2.7755,0.0,0.0,0.0,0.0,0.0,0.0,0.0,0.0,0.0,0.0,0.0,0.0,0.0,0.0,0.0,0.0,0.0,0.0,0.0,0.0,0.0,0.0,0.0,0.0,0.0,0.0,0.0,0.0,0.0,-3.0886,-3.1196,-3.1265,-3.1282,-3.1282,0.0,0.0,0.0,-3.1282,-3.1489,-3.18,0.0,0.0,0.0,0.0,0.0,0.0,0.0,0.0,0.0,0.0,-2.9178,-3.0319,-3.05,0.0,0.0,0.0,0.0,0.0,-3.2238,-3.4143,-3.5762,-3.4386,-3.5775,-3.7362,-3.6953,0.0,0.0,0.0,0.0,0.0,0.0,0.0,0.0,0.0,0.0,0.0,0.0,0.0,0.0,0.0,0.0,0.0,0.0,0.0,0.0,0.0,0.0,0.0,-3.1735,-3.1376,-3.119,-3.119,-3.119,-3.119,-3.119,-3.1154,-3.0818,-3.0205,-3.0719,-3.0478,-2.9611,-2.9611,-2.9611,-2.9595,0.0,-2.9098,-2.9098,-2.9098,-2.9098,-2.9098,-2.9098,-2.9098,-2.9006,-2.8247,-2.7839,-2.7579,0.0,0.0,0.0,0.0,0.0,0.0,0.0,0.0,0.0,0.0,0.0,0.0,0.0,0.0,0.0,0.0,0.0,0.0,0.0,0.0,0.0,0.0,0.0,0.0,0.0,0.0,-3.1392,-3.1077,-3.063,-3.0506,-3.0731,-3.1438,-3.18,0.0,0.0,0.0,0.0,-3.18,-3.18,-3.18,0.0,0.0,0.0,0.0,0.0,0.0,0.0,0.0,0.0,0.0,0.0,0.0,0.0,0.0,0.0,-3.1442,-3.2126,-3.2544,-3.2307,-3.4123,-3.5964,-3.5339,0.0,-3.8675,-3.8993,0.0,0.0,0.0,0.0,0.0,0.0,0.0,0.0,0.0,0.0,0.0,0.0,0.0,0.0,0.0,0.0,0.0,0.0,0.0,0.0,0.0,0.0,0.0,-3.1224,-3.119,-3.119,-3.119,-3.119,-3.119,-3.119,-3.1038,-3.0699,-3.0189,-3.0284,-2.9903,-2.9098,-2.9098,-2.9098,-2.9098,-2.9098,-2.9098,-2.9098,-2.9098,-2.9098,-2.9098,-2.9098,-2.9029,-2.885,-2.8036,-2.7615,-2.7346,0.0,0.0,0.0,0.0,0.0,0.0,0.0,0.0,0.0,0.0,0.0,0.0,0.0,0.0,0.0,0.0,0.0,0.0,0.0,0.0,0.0,0.0,0.0,0.0,0.0,-3.1145,-3.0748,-3.0749,-2.9972,-2.9972,-3.0731,-3.1438,-3.18,-3.18,0.0,0.0,0.0,-3.18,-3.18,-3.18,-3.18,0.0,0.0,0.0,0.0,0.0,0.0,0.0,0.0,0.0,0.0,0.0,0.0,0.0,-3.1393,-3.1353,-3.1954,-3.2747,-3.3399,-3.4682,-3.58,-3.5749,0.0,0.0,-3.7819,0.0,0.0,0.0,0.0,0.0,0.0,0.0,0.0,0.0,0.0,0.0,0.0,0.0,0.0,0.0,0.0,0.0,0.0,0.0,0.0,0.0,0.0,0.0,-3.119,-3.119,-3.119,-3.119,-3.119,-3.119,-3.119,-3.1383,-3.1035,-3.0189,-2.9962,-2.9589,-2.9098,-2.9098,-2.9098,-2.9098,-2.9098,-2.9098,-2.9098,-2.9098,-2.9098,-2.9098,-2.9098,-2.8873,-2.8535,-2.8463,-2.7963,-2.7221,0.0,0.0,0.0,0.0,0.0,0.0,0.0,0.0,0.0,0.0,0.0,0.0,0.0,0.0,0.0,0.0,0.0,0.0,0.0,0.0,0.0,0.0,0.0,-3.2553,-3.2419,-3.1662,-3.1142,-3.0894,-3.0157,-2.9982,-3.0279,-3.1321,0.0,0.0,0.0,0.0,0.0,0.0,-3.2059,-3.2438,-3.1972,-3.2076,0.0,0.0,0.0,0.0,0.0,0.0,0.0,0.0,-3.0237,-3.1406,-3.1466,-3.1406,-3.1327,-3.1404,-3.2293,-3.3196,-3.3051,-3.4708,0.0,0.0,0.0,0.0,0.0,0.0,0.0,0.0,0.0,0.0,0.0,0.0,0.0,0.0,0.0,0.0,0.0,0.0,0.0,0.0,0.0,0.0,0.0,0.0,0.0,0.0,0.0,0.0,-3.119,-3.119,-3.119,-3.119,-3.119,-3.119,-3.119,-3.0777,-3.0447,-3.0189,-3.022,-2.9837,-2.9098,-2.9098,-2.9098,-2.9098,-2.9098,-2.9098,-2.9098,-2.9098,-2.9098,-2.9098,-2.9098,-2.9006,-2.8803,-2.8304,-2.7923,-2.7525,0.0,0.0,0.0,0.0,0.0,0.0,0.0,0.0,0.0,0.0,0.0,0.0,0.0,0.0,0.0,0.0,0.0,0.0,0.0,0.0,0.0,0.0,0.0,-3.3344,-3.3344,-3.2649,-3.1809,-3.0838,-3.0373,-3.0221,-3.0406,0.0,0.0,0.0,0.0,0.0,0.0,0.0,0.0,-3.2507,-3.199,-3.2386,0.0,0.0,0.0,0.0,0.0,0.0,0.0,0.0,-3.001,-3.1008,-3.1359,-3.1368,-3.1303,-3.1655,-3.2818,-3.3891,-3.3403,-3.5027,-3.6735,0.0,0.0,0.0,0.0,0.0,0.0,0.0,0.0,0.0,0.0,0.0,0.0,0.0,0.0,0.0,0.0,0.0,0.0,0.0,0.0,0.0,0.0,0.0,0.0,0.0,0.0,0.0,0.0,-3.119,-3.119,-3.119,-3.119,-3.1131,-3.0995,-3.0514,-3.0156,-2.9995,-3.0177,-2.9859,-2.9098,-2.9098,-2.9098,-2.9098,-2.9098,-2.9098,-2.9098,-2.9098,-2.9098,-2.9098,-2.9098,-2.9098,-2.9029,-2.8487,-2.811,-2.775,0.0,0.0,0.0,0.0,0.0,0.0,0.0,0.0,0.0,0.0,0.0,0.0,0.0,0.0,0.0,0.0,0.0,0.0,0.0,0.0,0.0,0.0,0.0,-3.4495,-3.4495,-3.4022,-3.2711,-3.0511,-3.0511,-3.0754,-3.1229,-3.2312,0.0,0.0,0.0,0.0,0.0,0.0,0.0,0.0,-3.1817,-3.2731,-3.3958,0.0,0.0,0.0,0.0,0.0,0.0,0.0,-2.9556,-3.0359,-3.1009,-3.1269,-3.1463,-3.211,-3.3543,-3.4882,-3.4738,-3.5766,0.0,0.0,0.0,0.0,0.0,0.0,0.0,0.0,0.0,0.0,0.0,0.0,0.0,0.0,0.0,0.0,0.0,0.0,0.0,0.0,0.0,0.0,0.0,0.0,0.0,0.0,0.0,0.0,0.0,-3.119,-3.119,-3.119,-3.119,-3.0958,-3.0464,-3.0686,-3.0356,-2.9477,-2.9683,-2.9544,-2.9098,-2.9098,-2.9098,-2.9098,-2.9098,-2.9098,-2.9098,-2.9098,-2.9098,-2.9098,-2.9098,-2.9098,-2.9098,-2.9114,-2.8598,-2.7824,0.0,0.0,0.0,0.0,0.0,0.0,0.0,0.0,0.0,0.0,0.0,0.0,0.0,0.0,0.0,0.0,0.0,0.0,0.0,0.0,0.0,0.0,0.0,0.0,0.0,0.0,-3.2371,-3.1123,-3.0907,-3.1135,0.0,0.0,0.0,-3.2651,0.0,0.0,0.0,0.0,0.0,0.0,-3.3007,-3.38,-3.537,0.0,0.0,0.0,0.0,0.0,0.0,0.0,0.0,0.0,-3.2207,-3.2778,-3.338,-3.2547,-3.3774,-3.5152,-3.4079,-3.5282,0.0,0.0,0.0,0.0,0.0,0.0,0.0,0.0,0.0,0.0,0.0,0.0,0.0,0.0,0.0,0.0,0.0,0.0,0.0,0.0,0.0,0.0,0.0,0.0,0.0,0.0,0.0,0.0,0.0,-3.119,-3.0954,-3.0446,-3.016,-2.9696,-2.9028,-2.9037,-2.8699,-2.802,-2.8796,-2.9136,-2.9098,-2.9098,-2.9098,-2.9098,-2.9098,-2.9098,-2.9098,-2.9098,-2.9098,-2.9098,-2.9098,-2.9098,-2.9075,-2.8764,-2.8494,-2.8097,0.0,0.0,0.0,0.0,0.0,0.0,0.0,0.0,0.0,0.0,0.0,0.0,0.0,0.0,0.0,0.0,0.0,0.0,0.0,0.0,0.0,0.0,0.0,0.0,0.0,-3.3977,-3.3495,0.0,0.0,0.0,0.0,0.0,0.0,-3.3001,0.0,-3.2755,0.0,0.0,0.0,0.0,-3.2452,-3.3294,-3.4783,0.0,0.0,0.0,0.0,0.0,0.0,0.0,0.0,0.0,-3.2937,-3.3397,-3.3998,-3.3694,-3.4776,-3.5943,-3.5351,0.0,0.0,0.0,0.0,0.0,0.0,0.0,0.0,0.0,0.0,0.0,0.0,0.0,0.0,0.0,0.0,0.0,0.0,0.0,0.0,0.0,0.0,0.0,0.0,0.0,0.0,0.0,0.0,0.0,0.0,-3.119,-3.0794,-2.9897,-2.9629,-2.8969,-2.7894,-2.7922,-2.7662,-2.7121,-2.7845,-2.8225,-2.8325,-2.8861,-2.9098,-2.9098,-2.9098,-2.9098,-2.9098,-2.9098,-2.9098,-2.9098,-2.9098,-2.9098,-2.9075,-2.8826,-2.8518,-2.8082,0.0,0.0,-2.9416,-3.0091,0.0,0.0,0.0,0.0,0.0,0.0,0.0,-3.284,0.0,0.0,0.0,-3.2491,0.0,0.0,0.0,0.0,0.0,0.0,0.0,0.0,0.0,0.0,0.0,0.0,0.0,0.0,0.0,0.0,-3.4315,-3.3227,0.0,-3.2396,0.0,0.0,0.0,0.0,-3.1073,-3.2021,-3.3171,-3.3878,0.0,0.0,0.0,0.0,0.0,0.0,0.0,0.0,-3.3367,-3.3609,-3.3964,-3.5228,-3.6231,-3.7032,-3.7635,0.0,0.0,0.0,0.0,0.0,0.0,0.0,0.0,0.0,0.0,0.0,0.0,0.0,0.0,0.0,0.0,0.0,0.0,0.0,0.0,0.0,0.0,0.0,0.0,0.0,0.0,0.0,0.0,0.0,0.0,-3.1106,-3.0541,-2.9327,-2.9254,-2.8474,-2.6915,-2.7126,-2.7,-2.6502,-2.6912,-2.7067,-2.7051,-2.8388,-2.9035,-2.9098,-2.9035,-2.9035,-2.9098,-2.9098,-2.9098,-2.9098,-2.9098,-2.9098,-2.9098,-2.9098,-2.8622,-2.7963,0.0,0.0,-3.0787,-3.0997,0.0,0.0,0.0,0.0,-3.189,-3.2353,-3.2371,-3.2476,-3.28,-3.2494,0.0,-3.3926,-3.4251,0.0,0.0,0.0,0.0,0.0,0.0,0.0,0.0,0.0,0.0,0.0,0.0,0.0,0.0,0.0,0.0,-3.2747,0.0,-3.275,0.0,0.0,0.0,-3.393,-3.3196,-3.36,-3.4624,-3.4527,-3.4852,0.0,0.0,0.0,0.0,0.0,0.0,0.0,-3.443,-3.5081,-3.5994,-3.5684,-3.6563,-3.7567,0.0,0.0,0.0,0.0,0.0,0.0,0.0,0.0,0.0,0.0,0.0,0.0,0.0,0.0,0.0,0.0,0.0,0.0,0.0,0.0,0.0,0.0,0.0,0.0,0.0,0.0,0.0,0.0,0.0,0.0,-3.0378,-3.0345,-2.9532,-2.7746,-2.7391,-2.6622,-2.5381,-2.5826,-2.5723,0.0,-2.6456,-2.6799,-2.6293,-2.7683,-2.8616,-2.9082,-2.8553,-2.8616,-2.9098,-2.9098,-2.9098,-2.9098,-2.9098,-2.9098,-2.9098,-2.9098,-2.8905,-2.8549,0.0,0.0,0.0,0.0,0.0,0.0,0.0,0.0,-3.3319,-3.3184,-3.293,-3.2844,-3.3068,-3.2888,0.0,0.0,-3.4582,-3.4656,0.0,0.0,0.0,0.0,0.0,0.0,0.0,0.0,0.0,0.0,0.0,0.0,0.0,0.0,0.0,-3.317,0.0,-3.2795,0.0,0.0,-3.2965,-3.3109,-3.2882,-3.3183,-3.3811,-3.4391,-3.4957,-3.5476,-3.5632,0.0,0.0,0.0,0.0,0.0,0.0,0.0,-3.6214,-3.618,-3.6992,-3.7821,0.0,0.0,0.0,0.0,0.0,0.0,0.0,0.0,0.0,0.0,0.0,0.0,0.0,0.0,0.0,0.0,0.0,0.0,0.0,0.0,0.0,0.0,0.0,0.0,0.0,0.0,0.0,0.0,0.0,-2.9973,-2.9583,-2.9567,-2.8749,-2.6967,-2.6724,-2.5958,-2.4634,-2.4947,-2.4942,-2.4609,-2.556,-2.5994,-2.604,-2.713,-2.8,-2.8616,-2.8252,-2.8489,-2.9098,-2.9098,-2.9098,-2.9098,-2.9098,-2.9319,-2.9595,-2.9225,-2.9179,-2.9192,0.0,0.0,0.0,0.0,0.0,0.0,0.0,0.0,0.0,-3.4229,-3.3827,-3.3617,-3.3669,-3.3438,-3.331,0.0,0.0,0.0,-3.3844,0.0,0.0,0.0,0.0,0.0,0.0,0.0,0.0,0.0,0.0,0.0,0.0,0.0,0.0,-3.356,0.0,0.0,0.0,0.0,-3.1869,-3.1515,-3.201,-3.2406,-3.2824,-3.4108,-3.488,-3.5385,-3.6063,-3.6255,-3.6187,-3.6079,0.0,0.0,0.0,0.0,-3.5752,-3.6575,-3.7212,-3.7736,0.0,0.0,0.0,0.0,0.0,0.0,0.0,0.0,0.0,0.0,0.0,0.0,0.0,0.0,0.0,0.0,0.0,0.0,0.0,0.0,0.0,0.0,0.0,0.0,0.0,0.0,0.0,0.0,0.0,-2.8942,-2.8807,-2.8807,-2.8072,-2.6448,-2.6413,-2.5727,-2.4302,-2.4421,-2.4523,-2.4609,-2.4746,-2.5165,-2.5851,-2.6451,-2.7162,-2.7921,-2.7921,-2.8316,-2.894,-2.9051,-2.9098,-2.9098,-2.9098,-2.9461,-2.9927,-2.9319,-2.932,-2.9552,0.0,0.0,0.0,0.0,0.0,0.0,0.0,0.0,0.0,0.0,-3.4384,-3.4457,-3.4754,-3.3538,-3.297,-3.368,-3.3872,-3.3917,0.0,0.0,0.0,0.0,0.0,0.0,0.0,0.0,0.0,0.0,0.0,0.0,0.0,0.0,0.0,-3.2784,0.0,0.0,0.0,0.0,-3.3851,-3.3382,-3.2892,-3.3308,-3.4231,-3.45,-3.5033,-3.5688,-3.6149,-3.6301,-3.6276,-3.6208,-3.6079,0.0,0.0,0.0,0.0,-3.6575,-3.688,0.0,0.0,0.0,0.0,0.0,0.0,0.0,0.0,0.0,0.0,0.0,0.0,0.0,0.0,0.0,0.0,0.0,0.0,0.0,0.0,0.0,0.0,0.0,0.0,0.0,0.0,0.0,0.0,0.0,-2.8993,-2.8687,-2.7993,-2.7959,-2.725,-2.5702,-2.5648,-2.5197,-2.4302,-2.4421,-2.4523,-2.4609,-2.4846,-2.5033,-2.5128,-2.5238,-2.5998,-2.7225,-2.7225,-2.7604,-2.8284,-2.8861,-2.9098,-2.9098,-2.9098,-2.9161,-2.9225,-2.9146,-2.9038,-2.8919,0.0,0.0,0.0,0.0,0.0,0.0,0.0,0.0,0.0,0.0,0.0,-3.5219,-3.5372,-3.4526,-3.3903,-3.3807,-3.3807,0.0,0.0,0.0,0.0,0.0,0.0,0.0,0.0,0.0,0.0,0.0,0.0,0.0,0.0,-3.6315,-3.5619,0.0,0.0,0.0,0.0,0.0,-3.4002,-3.4157,-3.3867,-3.4179,-3.4891,-3.5368,-3.5741,-3.6061,-3.6243,-3.6276,-3.6229,-3.6122,-3.5993,-3.5844,-3.5728,0.0,0.0,0.0,0.0,0.0,0.0,0.0,0.0,0.0,0.0,0.0,0.0,0.0,0.0,0.0,0.0,0.0,0.0,0.0,0.0,0.0,0.0,0.0,0.0,0.0,0.0,0.0,0.0,0.0,0.0,0.0,0.0,0.0,-2.7943,-2.745,-2.6886,-2.6852,-2.6345,-2.5195,-2.516,-2.4883,-2.4302,-2.4359,-2.4462,-2.4609,-2.4866,-2.5005,-2.5005,-2.5005,-2.5539,-2.6483,-2.6483,-2.6893,-2.7589,-2.8268,-2.8553,-2.8584,-2.8956,-2.9351,-2.9674,-2.9256,-2.925,-2.9405,0.0,0.0,0.0,0.0,0.0,0.0,0.0,0.0,0.0,0.0,0.0,-3.5929,-3.6129,0.0,0.0,0.0,-3.3917,0.0,0.0,0.0,0.0,0.0,0.0,0.0,0.0,0.0,0.0,0.0,0.0,0.0,-3.7998,-3.692,-3.7484,0.0,-3.7502,0.0,0.0,0.0,0.0,-3.5245,-3.502,-3.5228,-3.5758,-3.6377,-3.6729,-3.6853,-3.6663,-3.6569,-3.6466,-3.6174,-3.5975,-3.5822,-3.5734,0.0,0.0,0.0,0.0,0.0,0.0,0.0,0.0,0.0,0.0,0.0,0.0,0.0,0.0,0.0,0.0,0.0,0.0,0.0,0.0,0.0,0.0,0.0,0.0,0.0,0.0,0.0,0.0,0.0,0.0,0.0,0.0,0.0,-2.7131,-2.6522,-2.6122,-2.6104,-2.5726,-2.4922,-2.4902,-2.4699,-2.4302,-2.4343,-2.4446,-2.4609,-2.497,-2.5088,-2.5005,-2.5088,-2.5354,-2.5756,-2.593,-2.6325,-2.6878,-2.7557,-2.7936,-2.8142,-2.864,-2.9295,-2.9848,-2.9304,-2.936,-2.9634,0.0,0.0,0.0,0.0,0.0,0.0,0.0,0.0,0.0,0.0,0.0,-3.6564,-3.7316,-3.5977,-3.4986,-3.4949,-3.4247,0.0,0.0,0.0,0.0,0.0,0.0,0.0,0.0,0.0,0.0,0.0,0.0,0.0,-3.8103,-3.8276,-3.9496,-4.1415,-3.8599,-3.7184,-3.6926,0.0,0.0,-3.7274,-3.6429,-3.6576,-3.7286,-3.7384,-3.7862,-3.8387,-3.7702,-3.7443,-3.7301,-3.6538,-3.6152,-3.5997,-3.5975,-3.58,-3.56,0.0,0.0,0.0,0.0,0.0,0.0,0.0,0.0,0.0,0.0,0.0,0.0,0.0,0.0,0.0,0.0,0.0,0.0,0.0,0.0,0.0,0.0,0.0,0.0,0.0,0.0,0.0,0.0,0.0,0.0,0.0,-2.7131,-2.6522,-2.6122,-2.6104,-2.5726,-2.4922,-2.4902,-2.4699,-2.4302,-2.4487,-2.4589,-2.4609,-2.5195,-2.5307,-2.5005,-2.5346,-2.5323,-2.508,-2.5724,-2.6024,-2.6119,-2.6862,-2.7525,-2.8094,-2.8126,-2.8568,-2.9146,-2.9114,-2.9045,-2.8944,0.0,0.0,0.0,0.0,0.0,0.0,0.0,0.0,0.0,0.0,0.0,0.0,0.0,-3.6486,-3.561,-3.5059,-3.4266,0.0,0.0,0.0,0.0,0.0,0.0,0.0,0.0,0.0,0.0,0.0,0.0,-3.5669,-3.7948,-3.6756,-3.7,-3.8412,-3.817,-3.8287,-3.8598,-3.7108,0.0,-3.6239,-3.6533,-3.7106,-3.7842,-3.8405,-3.8894,-3.9146,-3.7944,-3.7512,-3.737,-3.653,-3.6127,-3.589,-3.5347,-3.5026,-3.4895,-3.4895,0.0,0.0,0.0,0.0,0.0,0.0,0.0,0.0,0.0,0.0,0.0,0.0,0.0,0.0,0.0,0.0,0.0,0.0,0.0,0.0,0.0,0.0,0.0,0.0,0.0,0.0,0.0,0.0,0.0,0.0,0.0,-2.6528,-2.5403,-2.5332,-2.5079,-2.4533,-2.4513,-2.4451,-2.4302,-2.4508,-2.4731,-2.4977,-2.5349,-2.5559,-2.5705,-2.5559,-2.5427,-2.5307,-2.5358,-2.5365,-2.5412,-2.6103,-2.6546,-2.6846,-2.7747,-2.8252,-2.8521,-2.894,-2.9075,-2.9006,0.0,0.0,0.0,-4.0579,0.0,-3.895,-3.8808,-3.7612,-3.6998,-3.7799,0.0,0.0,0.0,0.0,-3.6358,-3.55,-3.4945,-3.4504,-3.4229,0.0,0.0,0.0,0.0,0.0,0.0,0.0,0.0,0.0,0.0,0.0,0.0,-3.5117,-3.5236,-3.6641,-3.6882,-3.75,0.0,0.0,0.0,-3.6292,-3.7266,-3.7942,-3.8464,-3.9128,-3.9676,-3.9871,-3.8134,-3.7668,-3.7732,0.0,-3.635,-3.589,-3.533,-3.4669,-3.4134,-3.4134,-3.4303,0.0,0.0,0.0,0.0,0.0,0.0,0.0,0.0,0.0,0.0,0.0,0.0,0.0,0.0,0.0,0.0,0.0,0.0,0.0,0.0,0.0,0.0,0.0,0.0,0.0,0.0,0.0,0.0,0.0,0.0,0.0,-2.4974,-2.4902,-2.4719,-2.4302,-2.4302,-2.4302,-2.4302,-2.4634,-2.4934,-2.5211,-2.567,-2.5962,-2.6087,-2.5817,-2.5707,-2.5689,-2.5326,-2.5107,-2.5017,-2.5492,-2.5803,-2.6119,-2.7304,-2.7889,-2.8173,-2.8846,-2.9098,-2.9068,-4.0525,-4.0799,-4.0776,-4.0403,-4.0055,-3.9669,-3.9283,-3.8255,-3.7808,-3.8597,0.0,0.0,0.0,0.0,0.0,-3.6358,-3.6303,-3.5936,-3.5059,-3.5004,0.0,0.0,0.0,0.0,0.0,0.0,0.0,0.0,0.0,0.0,0.0,0.0,-3.4661,-3.6524,-3.4886,-3.4685,-3.5612,0.0,-3.6943,-3.7684,0.0,-3.9087,-3.9217,0.0,-4.0187,-4.0549,-3.8341,-3.7996,0.0,-3.7719,0.0,-3.5997,-3.5946,-3.4734,-3.3339,-3.3372,-3.3897,-3.4455,0.0,0.0,0.0,0.0,0.0,0.0,0.0,0.0,0.0,0.0,0.0,0.0,0.0,0.0,0.0,0.0,0.0,0.0,0.0,0.0,0.0,0.0,0.0,0.0,0.0,0.0,0.0,0.0,-2.7661,-2.651,-2.497,-2.4883,-2.4699,-2.4302,-2.4302,-2.4302,-2.4302,-2.4899,-2.5211,-2.5214,-2.6244,-2.6505,-2.6139,-2.6122,-2.6122,-2.6104,-2.5689,-2.5346,-2.5025,-2.5025,-2.5401,-2.6061,-2.6804,-2.7478,-2.8142,-2.8814,-2.9082,-2.9068,-3.9904,-4.0695,-4.1303,-4.1192,-4.0412,-3.9851,-4.0041,-3.8858,-3.8113,0.0,0.0,0.0,-3.8689,-3.7988,-3.718,-3.6358,-3.6303,-3.5936,-3.5059,-3.5004,-3.4637,-3.3844,-3.3807,-3.3807,0.0,0.0,0.0,0.0,0.0,0.0,0.0,0.0,0.0,0.0,-3.3154,-3.2715,-3.2634,-3.4351,0.0,-3.7374,-3.7478,-3.8007,0.0,0.0,0.0,0.0,0.0,-3.8099,-3.7685,0.0,-3.6405,-3.5912,-3.4648,-3.3186,-3.1984,-3.2466,-3.3119,-3.3711,-3.3711,0.0,0.0,0.0,0.0,0.0,0.0,0.0,0.0,0.0,0.0,0.0,0.0,0.0,0.0,0.0,0.0,0.0,0.0,0.0,0.0,0.0,0.0,0.0,0.0,0.0,0.0,0.0,-2.7749,-2.6347,-2.4554,-2.4472,-2.441,-2.4302,-2.4302,-2.4302,-2.4302,-2.4899,-2.5349,-2.5635,-2.635,-2.6792,-2.6957,-2.6674,-2.6522,-2.6505,-2.6122,-2.5872,-2.5797,-2.5797,-2.5726,-2.5718,-2.6455,-2.7008,-2.7462,-2.8126,-2.8672,-2.9075,-3.9606,-4.0533,-4.1268,-4.129,-4.0446,-3.9889,-4.0161,-3.9135,-3.8417,0.0,0.0,0.0,-3.8707,-3.8579,-3.819,-3.7367,-3.7294,-3.6798,-3.561,-3.5536,-3.5023,-3.3844,-3.3807,-3.3807,-3.3807,0.0,0.0,0.0,0.0,0.0,0.0,0.0,0.0,0.0,-3.2114,-3.2038,-3.2304,-3.2972,0.0,0.0,-3.6814,0.0,0.0,-3.8868,-3.8863,0.0,0.0,0.0,-3.7426,-3.6956,-3.653,0.0,-3.415,-3.2978,-3.2261,-3.228,-3.2814,-3.3474,-3.3778,-3.4167,0.0,0.0,0.0,0.0,0.0,-3.4726,0.0,0.0,0.0,0.0,0.0,0.0,0.0,0.0,0.0,0.0,0.0,0.0,0.0,0.0,0.0,0.0,0.0,-3.3342,-3.1736,-2.9172,-2.8337,-2.6995,-2.4831,-2.4456,-2.4302,-2.4302,-2.4302,-2.4302,-2.4302,-2.4899,-2.5389,-2.5819,-2.6402,-2.6908,-2.7299,-2.6875,-2.6792,-2.6941,-2.6522,-2.6453,-2.6607,-2.6607,-2.6263,-2.5809,-2.6559,-2.7053,-2.7386,-2.8088,-2.8678,-2.9075,0.0,-4.0245,-4.0878,-4.0984,-4.0378,-3.9876,-3.9896,-3.9221,-3.8707,0.0,-3.8707,-3.8707,-3.8707,-3.9331,-3.9515,-3.8891,-3.8762,-3.8083,-3.6652,-3.6395,-3.5587,-3.4009,-3.3844,-3.3807,-3.3793,-3.339,0.0,0.0,0.0,0.0,0.0,0.0,0.0,0.0,-3.1543,-3.204,-3.3267,-3.219,-3.2729,-3.4503,-3.626,-3.7386,0.0,0.0,-3.7774,-3.8163,-3.6887,-3.6835,-3.7374,-3.7374,-3.681,0.0,-3.4239,-3.3679,-3.3454,-3.2673,-3.2933,0.0,-3.4218,-3.4438,-3.4624,-3.5092,-3.481,0.0,-3.5115,-3.4793,0.0,0.0,0.0,0.0,0.0,0.0,0.0,0.0,0.0,0.0,0.0,0.0,0.0,0.0,0.0,0.0,-3.3882,-3.3264,-3.1895,-2.9412,-2.8877,-2.7691,-2.541,-2.465,-2.4302,-2.4302,-2.4302,-2.4323,-2.4364,-2.4958,-2.5446,-2.5873,-2.6454,-2.6924,-2.7299,-2.6941,-2.6957,-2.7283,-2.6925,-2.6974,-2.7299,-2.7299,-2.6858,-2.6241,-2.6831,-2.726,-2.7583,-2.828,-2.8722,-2.898,-3.8663,-3.972,-4.0612,-4.0938,-4.0611,-4.0202,-3.9928,-3.9221,-3.8707,-3.8707,-3.8707,-3.8707,-3.8707,-3.8836,-3.9129,-3.9625,-3.9074,-3.8579,-3.8248,-3.7019,-3.5844,-3.4821,-3.4156,-3.378,-3.3726,-3.3379,-3.3001,0.0,0.0,0.0,0.0,0.0,0.0,0.0,-3.1297,-3.1399,-3.1738,-3.2754,0.0,-3.3465,-3.4469,0.0,-3.7482,-3.7683,-3.7363,-3.6784,-3.715,-3.6939,-3.6525,-3.6525,-3.6042,-3.5308,0.0,-3.4212,-3.3605,-3.3283,-3.3711,-3.4184,-3.3744,-3.4049,-3.4235,-3.3207,-3.3271,0.0,-3.3034,-3.3288,-3.366,0.0,0.0,0.0,0.0,0.0,0.0,0.0,0.0,0.0,0.0,0.0,0.0,0.0,0.0,0.0,-3.4641,-3.3622,-3.2152,-3.0133,-2.7545,-2.5821,-2.5333,-2.465,-2.4302,-2.4302,-2.4302,-2.4467,-2.4779,-2.5326,-2.5832,-2.6297,-2.6791,-2.712,-2.7299,-2.7218,-2.7234,-2.7299,-2.7218,-2.7234,-2.7299,-2.7299,-2.7006,-2.6573,-2.6376,-2.6508,-2.6868,-2.7274,-2.7781,-2.834,-3.7996,-3.9123,-4.0123,-4.0366,-4.0228,-4.0059,-3.9912,-3.9221,-3.8836,-3.9239,-3.9662,-3.9738,-3.935,-3.9294,-3.946,-3.9845,-3.9166,-3.8524,-3.812,-3.6964,-3.5917,-3.5041,-3.4215,-3.3694,-3.3469,-3.306,-3.2599,0.0,0.0,0.0,0.0,0.0,0.0,0.0,-3.136,-3.1393,-3.1785,0.0,-3.2531,-3.2799,-3.4011,0.0,-3.5916,-3.5838,-3.5552,-3.5249,-3.5666,-3.5563,-3.5249,-3.5628,-3.5508,0.0,-3.5029,-3.4928,-3.4742,0.0,-3.4244,-3.4489,-3.4506,-3.4506,-3.432,-3.3596,0.0,0.0,0.0,-3.2848,-3.2949,-3.3322,0.0,0.0,0.0,0.0,0.0,0.0,0.0,0.0,0.0,0.0,0.0,0.0,0.0,0.0,-3.4456,-3.3621,-3.2326,-3.0435,-2.8138,-2.6703,-2.638,-2.5358,-2.4789,-2.4789,-2.4466,-2.4492,-2.4902,-2.523,-2.574,-2.6401,-2.6708,-2.7006,-2.7299,-2.7299,-2.7299,-2.7299,-2.7299,-2.7299,-2.7299,-2.7299,-2.7186,-2.6957,-2.6573,-2.6604,-2.6931,-2.7226,-2.7673,-2.8167,-3.7478,-3.8649,-3.9652,-3.9797,-3.9863,-3.9913,-3.9896,-3.9221,-3.8927,0.0,0.0,-4.0799,-3.9992,-4.0029,-4.0194,-4.0341,-3.9625,-3.8891,-3.8245,-3.7294,-3.6376,-3.5518,-3.4546,-3.383,-3.3418,-3.2961,-3.2476,-3.2014,0.0,0.0,0.0,0.0,0.0,0.0,0.0,0.0,0.0,0.0,0.0,-3.2598,0.0,-3.4318,-3.4412,-3.3925,-3.394,-3.4194,-3.4116,-3.4113,-3.4217,-3.4938,-3.5197,-3.5194,-3.5301,-3.5621,0.0,0.0,0.0,-3.4844,0.0,0.0,-3.4641,-3.4353,0.0,-3.3508,0.0,0.0,0.0,-3.2882,0.0,0.0,0.0,0.0,0.0,0.0,0.0,0.0,0.0,0.0,0.0,0.0,0.0,0.0,0.0,-3.3228,-3.2212,-3.0715,-2.9243,-2.8165,-2.7626,-2.6149,-2.5358,-2.5518,-2.4733,-2.4595,-2.5191,-2.5213,-2.5647,-2.6504,-2.664,-2.6908,-2.7299,-2.7299,-2.7299,-2.7299,-2.7299,-2.7299,-2.7299,-2.7299,-2.7299,-2.725,-2.6858,-2.6821,-2.7021,-2.7306,-2.7603,-2.7933,-3.7374,-3.8516,-3.9444,-3.9747,-4.0092,-4.0237,-3.9928,-3.9221,-3.8726,0.0,0.0,0.0,0.0,0.0,0.0,0.0,0.0,0.0,-4.0691,-3.9276,-3.8065,-3.7254,-3.5701,-3.4659,-3.4189,-3.3713,-3.3266,-3.2785,0.0,0.0,0.0,0.0,-3.2226,-3.2327,-3.2899,0.0,0.0,0.0,-3.3203,0.0,-3.275,-3.3271,0.0,-3.3982,-3.4159,-3.4504,-3.4214,-3.4113,-3.4217,0.0,-3.5197,-3.5297,0.0,-3.6032,-3.5958,-3.5737,0.0,0.0,0.0,0.0,0.0,0.0,-3.3947,0.0,0.0,0.0,-3.2141,-3.1562,0.0,0.0,0.0,0.0,0.0,0.0,0.0,0.0,0.0,0.0,0.0,0.0,0.0,0.0,0.0,-3.2268,-3.1508,-3.1316,-2.9489,-2.8365,-2.8288,-2.6395,-2.561,-2.6241,-2.4995,-2.4956,-2.6305,-2.5862,-2.6066,-2.6942,-2.7006,-2.7136,-2.7299,-2.7299,-2.7299,-2.7299,-2.7299,-2.7299,-2.7299,-2.7299,-2.7299,-2.725,-2.6858,-2.6503,-2.6265,-2.6593,-2.6853,-2.7114,-3.7094,-3.7936,-3.8649,-3.8779,-3.968,-4.0126,-3.9323,-3.9717,-4.0086,0.0,0.0,0.0,0.0,0.0,0.0,0.0,0.0,-4.159,0.0,0.0,-3.9703,-3.8813,-3.6984,-3.5546,-3.4601,-3.4145,-3.3436,-3.2554,-3.2815,0.0,0.0,0.0,-3.2933,-3.2966,-3.3711,0.0,-3.4032,0.0,-3.3541,0.0,0.0,0.0,0.0,-3.2616,-3.271,-3.2956,-3.2824,-3.2785,-3.2869,0.0,-3.418,0.0,0.0,0.0,0.0,-3.5839,0.0,0.0,0.0,0.0,0.0,0.0,0.0,0.0,-3.2056,0.0,-3.1582,0.0,0.0,0.0,0.0,0.0,0.0,0.0,0.0,0.0,0.0,0.0,0.0,0.0,0.0,0.0,0.0,0.0,0.0,0.0,-3.0258,-2.9371,-2.9012,-2.7426,-2.6793,-2.7371,-2.5988,-2.5767,-2.6899,-2.6339,-2.6383,-2.6991,-2.7071,-2.7168,-2.7299,-2.7299,-2.7299,-2.7299,-2.7299,-2.7299,-2.7299,-2.7299,-2.7299,-2.7283,-2.7105,-2.6657,-2.6133,-2.6479,-2.6782,-2.707,-3.7208,-3.7884,-3.8428,-3.8432,-3.9619,-4.0319,-3.9486,-4.0343,-4.1095,-4.1095,0.0,0.0,-4.2249,-4.1442,0.0,0.0,-4.2837,-4.2525,0.0,0.0,-4.1246,-4.0067,-3.8115,-3.652,-3.5454,-3.4739,-3.3902,-3.2903,-3.344,0.0,0.0,0.0,-3.3406,-3.344,0.0,-3.4489,-3.4489,0.0,-3.3998,-3.3173,-3.2642,-3.2188,-3.1787,-3.1747,-3.1746,-3.18,-3.18,-3.18,-3.1903,-3.2645,-3.3283,0.0,-3.4507,0.0,-3.5361,0.0,0.0,0.0,-3.5228,0.0,0.0,0.0,0.0,0.0,0.0,0.0,0.0,0.0,0.0,0.0,0.0,0.0,0.0,0.0,0.0,0.0,0.0,0.0,0.0,0.0,0.0,0.0,0.0,0.0,0.0,0.0,0.0,-3.0371,-2.971,-2.8517,-2.8022,-2.8354,-2.6894,-2.655,-2.7493,-2.6709,-2.6555,-2.6991,-2.7104,-2.7217,-2.7299,-2.7299,-2.7299,-2.7299,-2.7299,-2.7299,-2.7299,-2.7299,-2.7299,-2.7299,-2.7299,-2.6808,-2.6134,-2.6346,-2.6667,-2.7032,-3.8,-3.8718,0.0,-3.926,-4.0276,-4.106,-4.1022,-4.1058,-4.1095,-4.1095,0.0,0.0,0.0,0.0,0.0,0.0,0.0,-4.3956,-4.2378,0.0,-4.2656,-4.0943,-3.893,-3.7596,-3.7045,-3.5802,-3.4933,-3.4421,-3.4438,-3.4438,0.0,0.0,0.0,0.0,-3.4167,-3.4489,-3.4489,-3.4489,-3.4878,-3.5295,-3.3173,-3.1896,-3.1391,0.0,-3.2073,-3.18,-3.18,0.0,0.0,-3.2645,-3.2921,0.0,0.0,0.0,0.0,0.0,0.0,0.0,0.0,0.0,0.0,-3.3609,0.0,0.0,0.0,0.0,-3.1393,0.0,0.0,0.0,0.0,0.0,0.0,-3.2259,0.0,0.0,0.0,0.0,0.0,0.0,0.0,0.0,0.0,0.0,0.0,0.0,0.0,0.0,-3.0402,-2.9522,-2.9042,-2.9081,-2.7442,-2.7124,-2.8249,-2.7029,-2.6607,-2.6991,-2.7202,-2.7299,-2.7299,-2.7299,-2.7299,-2.7299,-2.7299,-2.7299,-2.7299,-2.7299,-2.7299,-2.7299,-2.7299,-2.6808,-2.6104,-2.603,-2.6317,-2.6691,0.0,0.0,0.0,0.0,0.0,-4.1279,-4.1809,-4.1425,-4.1279,0.0,0.0,0.0,0.0,-4.2855,-4.291,0.0,0.0,-4.5022,-4.3905,-4.4583,0.0,-4.398,-4.1185,-3.9305,0.0,-3.7085,-3.5686,-3.4489,-3.4996,-3.4979,0.0,0.0,0.0,0.0,0.0,-3.4962,0.0,0.0,0.0,0.0,0.0,-3.2026,-3.1445,0.0,-3.1765,-3.169,-3.1781,-3.18,0.0,-3.2001,-3.2433,-3.2917,-3.2955,-3.3304,-3.368,-3.3511,-3.3444,0.0,0.0,0.0,-3.2987,-3.2733,0.0,0.0,0.0,0.0,0.0,0.0,0.0,0.0,0.0,0.0,0.0,0.0,0.0,0.0,0.0,0.0,0.0,0.0,0.0,0.0,0.0,0.0,0.0,0.0,-3.1794,0.0,0.0,-3.0,-2.9688,-2.9566,-2.8376,-2.8075,-2.8829,-2.7469,-2.6892,-2.7071,-2.7234,-2.7299,-2.7299,-2.7299,-2.7299,-2.7299,-2.7299,-2.7299,-2.7299,-2.7299,-2.7299,-2.7318,-2.7503,-2.6942,-2.6081,-2.6504,-2.6727,-2.6933,-3.9392,0.0,0.0,0.0,0.0,-4.137,-4.2176,-4.1625,0.0,0.0,-4.1864,0.0,-4.3368,0.0,-4.2947,0.0,-4.4674,-4.5059,-4.4163,-4.5113,0.0,-4.4833,-4.2314,0.0,0.0,-3.8117,-3.6592,-3.5323,-3.5791,-3.5639,0.0,0.0,0.0,0.0,0.0,-3.4421,-3.3812,0.0,-3.5487,0.0,0.0,-3.2026,0.0,0.0,-3.1615,-3.169,0.0,-3.18,-3.18,-3.1709,-3.2037,-3.2469,-3.2254,-3.2542,-3.2866,-3.2448,-3.2303,-3.2263,-3.2263,-3.1887,0.0,-3.1532,-3.1157,0.0,-3.114,0.0,-3.1478,0.0,0.0,0.0,0.0,0.0,0.0,0.0,0.0,0.0,0.0,-3.1303,0.0,0.0,0.0,0.0,0.0,0.0,-3.189,-3.2351,0.0,0.0,0.0,0.0,-3.0378,-3.0154,-2.896,-2.8588,-2.9101,-2.7742,-2.7055,-2.7103,-2.7233,-2.7299,-2.7299,-2.7299,-2.7299,-2.7299,-2.7299,-2.7299,-2.7299,-2.7299,-2.7299,-2.7302,-2.7335,-2.6802,-2.6092,-2.6836,-2.7098,-2.7228,-3.9019,0.0,0.0,0.0,-4.1187,0.0,0.0,0.0,-4.1407,0.0,-4.2286,-4.2598,-4.3368,-4.3441,-4.3425,-4.3339,-4.4034,-4.4127,-4.3306,-4.4655,0.0,0.0,-4.2307,-4.1349,-4.0728,-3.8836,-3.7483,-3.6745,-3.6745,-3.6315,0.0,0.0,0.0,0.0,-3.3423,0.0,-3.2496,-3.4692,-3.4737,-3.3339,-3.2598,-3.1913,-3.1315,-3.1462,-3.1632,-3.18,-3.18,-3.18,-3.18,-3.18,-3.18,-3.1781,-3.1653,-3.1564,-3.1391,-3.0612,-3.0263,-3.0139,-3.0138,-3.008,-3.0057,-3.0057,-3.0057,0.0,0.0,0.0,-3.1495,0.0,0.0,0.0,0.0,0.0,0.0,0.0,0.0,0.0,0.0,0.0,0.0,0.0,0.0,0.0,0.0,0.0,-3.0997,-3.2244,-3.2336,0.0,0.0,0.0,-3.1022,-3.081,-2.9272,-2.8649,-2.9101,-2.7758,-2.7103,-2.7119,-2.7233,-2.7299,-2.7299,-2.7299,-2.7299,-2.7299,-2.7299,-2.7299,-2.7299,-2.7299,-2.7299,-2.7267,-2.6876,-2.645,-2.6131,-2.6921,-2.7293,-2.7488,-4.1185,-4.2011,-4.2451,0.0,-4.2488,-4.2543,0.0,0.0,0.0,0.0,-4.1937,-4.2378,-4.2598,-4.2598,-4.2616,-4.2582,-4.2733,0.0,0.0,0.0,0.0,-4.3942,-4.189,-4.0397,-3.9703,-3.7986,-3.6688,-3.591,0.0,0.0,-3.4776,0.0,0.0,0.0,0.0,0.0,-3.3237,-3.489,-3.4737,-3.3339,-3.271,-3.2046,-3.1462,0.0,-3.1671,-3.18,-3.18,-3.18,-3.1764,-3.1673,-3.1727,-3.1763,-3.1576,-3.1182,-3.0704,-3.035,-2.9852,-2.9373,-2.9317,-2.9299,-2.9281,-2.9281,-2.9281,-2.9331,0.0,0.0,0.0,0.0,0.0,0.0,0.0,0.0,0.0,0.0,0.0,0.0,0.0,0.0,0.0,-2.9693,0.0,0.0,0.0,-3.0658,-3.1289,-3.1613,-3.1643,0.0,0.0,0.0,0.0,-3.081,-2.957,-2.8995,-2.9158,-2.7791,-2.7152,-2.725,-2.7282,-2.7299,-2.7299,-2.7299,-2.7299,-2.7299,-2.7299,-2.7299,-2.7299,-2.7299,-2.7299,-2.727,-2.7126,-2.6847,-2.6472,-2.6114,-2.6572,-2.7411,-4.2121,0.0,0.0,-4.3442,0.0,0.0,-4.1882,-4.1717,0.0,-4.1644,-4.1717,0.0,-4.2268,-4.1992,-4.1756,-4.1704,-4.1638,0.0,-4.2741,0.0,0.0,-4.2683,-4.1383,-4.0275,-3.9447,-3.8207,0.0,-3.6129,0.0,0.0,-3.4489,0.0,0.0,0.0,0.0,-3.3939,0.0,-3.3897,-3.3757,-3.2944,-3.2261,-3.1798,0.0,-3.1596,-3.169,-3.18,-3.18,-3.18,-3.18,-3.1709,-3.1521,-3.1299,-3.1116,-3.0585,-2.9916,-2.9431,-2.8967,-2.8524,-2.8183,-2.8029,-2.7994,-2.7994,-2.7994,-2.818,-2.884,-2.8993,-2.9213,0.0,-3.0683,-3.1224,0.0,0.0,0.0,0.0,0.0,0.0,0.0,0.0,0.0,0.0,-2.9387,0.0,-2.9387,-3.0351,-3.1074,-3.1393,-3.1659,0.0,0.0,0.0,0.0,-3.1583,-2.9776,-2.8924,-2.9211,-2.7791,-2.7168,-2.7299,-2.7299,-2.7299,-2.7299,-2.7299,-2.7299,-2.7299,-2.7299,-2.7299,-2.7299,-2.7299,-2.7202,-2.6975,-2.6512,-2.6098,-2.5732,-2.5174,-2.5993,-2.7396,-4.2598,0.0,0.0,0.0,0.0,0.0,0.0,-4.1864,0.0,-4.2084,0.0,-4.1425,-4.1937,-4.1368,-4.0895,-4.0776,0.0,-4.0555,-4.0704,-4.1161,-4.1194,-4.0717,-4.0697,-4.0262,-3.9334,-3.8703,-3.782,0.0,-3.6084,-3.5334,0.0,0.0,0.0,0.0,0.0,0.0,0.0,-3.2695,-3.2641,-3.2573,-3.1708,-3.143,-3.1598,-3.1617,-3.1709,-3.18,-3.18,-3.18,-3.18,-3.18,-3.13,-3.0661,-3.0538,-2.9918,-2.9076,-2.8323,-2.7981,-2.7709,-2.7063,-2.6792,-2.6691,-2.6691,-2.6691,-2.7046,-2.84,-2.8705,-2.8891,-2.9516,-3.0243,-3.0565,0.0,0.0,0.0,0.0,0.0,0.0,0.0,0.0,0.0,0.0,0.0,0.0,0.0,-2.9925,-3.0566,-3.1213,-3.1797,0.0,0.0,0.0,0.0,-3.2425,-2.9886,-2.8725,-2.9193,0.0,-2.7184,-2.7299,-2.7299,-2.7299,-2.7299,-2.7299,-2.7299,-2.7299,-2.7299,-2.7299,-2.7299,-2.7234,-2.6957,-2.6436,-2.5538,-2.4938,-2.4549,-2.4364,-2.5503,-2.7119,-4.4158,0.0,0.0,0.0,0.0,-4.3608,-4.3332,-4.3167,-4.2653,-4.1462,-4.1772,-4.1644,-4.0451,-4.0194,-4.0102,-4.0086,-3.9365,0.0,0.0,0.0,0.0,-3.9679,-3.9298,-3.8714,-3.7904,-3.7697,-3.7206,-3.638,-3.652,-3.5881,-3.4489,0.0,0.0,0.0,0.0,0.0,-3.4274,-3.3679,0.0,-3.3393,-3.207,-3.1579,-3.1617,-3.1727,-3.1781,-3.18,-3.18,-3.18,-3.18,-3.18,-3.1246,-3.052,-3.052,-2.9505,-2.8288,-2.8083,-2.7573,-2.7046,-2.6792,-2.6725,-2.6691,-2.6691,-2.6691,-2.6759,-2.7046,-2.7097,-2.7131,-2.7266,-2.7892,-2.8365,-2.8229,0.0,0.0,0.0,0.0,0.0,0.0,0.0,0.0,0.0,0.0,-2.8796,0.0,-2.952,-2.9848,-3.0509,0.0,0.0,0.0,0.0,0.0,0.0,-2.9972,0.0,0.0,0.0,-2.7282,-2.7299,-2.7299,-2.7299,-2.7299,-2.7299,-2.7299,-2.7299,-2.7299,-2.7299,-2.7266,-2.6941,-2.6349,-2.5594,-2.525,-2.4871,-2.4498,-2.4343,-2.4887,-2.5665,0.0,0.0,0.0,0.0,0.0,0.0,0.0,-4.2873,-4.2598,-4.1827,-4.1301,-4.0716,-3.9928,-3.942,-3.9129,-3.9129,-3.8686,-3.8696,-3.9465,-3.909,-3.8804,-3.8788,-3.8562,-3.8151,-3.7505,-3.7892,-3.749,-3.6301,-3.6509,-3.5876,-3.4489,0.0,0.0,0.0,0.0,-3.427,0.0,0.0,0.0,-3.3025,-3.2349,-3.188,-3.1598,-3.1671,-3.1727,-3.18,-3.18,-3.18,-3.18,-3.18,-3.1006,-2.9971,-2.9936,-2.8819,-2.752,-2.7453,-2.7131,-2.6792,-2.6725,-2.6691,-2.6691,-2.6691,-2.6691,-2.6691,-2.6691,-2.6404,-2.6234,-2.6623,-2.6691,-2.6894,-2.7672,-2.8772,0.0,0.0,0.0,0.0,0.0,0.0,-2.8604,0.0,0.0,0.0,0.0,0.0,0.0,0.0,0.0,0.0,0.0,0.0,0.0,0.0,0.0,0.0,0.0,0.0,0.0,-2.7201,-2.7266,-2.7299,-2.7299,-2.7299,-2.7299,-2.7299,-2.7299,-2.7186,-2.6941,-2.6297,-2.5779,-2.5349,-2.4934,-2.4666,-2.4477,-2.4359,-2.4712,-2.5342,0.0,-4.5076,0.0,0.0,-4.4195,0.0,-4.2488,-4.2158,-4.1992,-4.1809,-4.0643,-3.9768,-3.9568,-3.8883,-3.8415,-3.8415,-3.8352,-3.8323,-3.8307,-3.8241,-3.8225,-3.8209,-3.8209,-3.8037,-3.765,-3.8327,-3.8075,0.0,-3.6672,-3.6109,0.0,-3.4706,-3.4117,-3.344,0.0,0.0,0.0,0.0,-3.3951,-3.2767,-3.263,-3.2203,-3.1635,-3.1635,-3.1709,-3.18,-3.18,-3.18,-3.18,-3.18,-3.0782,-2.9472,-2.942,-2.8305,-2.6975,-2.6942,-2.6842,-2.6775,-2.6775,-2.6775,-2.6758,-2.6742,-2.6606,-2.6471,-2.6471,-2.5896,-2.5524,-2.6099,-2.5896,-2.5998,-2.7317,-2.8551,0.0,0.0,0.0,0.0,0.0,0.0,0.0,0.0,0.0,0.0,-3.0236,0.0,0.0,0.0,0.0,0.0,-3.1102,0.0,0.0,0.0,0.0,-2.9047,-2.912,0.0,-2.7055,-2.7135,-2.725,-2.7299,-2.7299,-2.7299,-2.7299,-2.7299,-2.7202,-2.6875,-2.6367,-2.5631,-2.5288,-2.5153,-2.465,-2.4457,-2.4436,-2.4338,-2.462,-2.5173,0.0,0.0,0.0,0.0,0.0,0.0,-4.2323,-4.168,-4.0948,-4.0212,-3.9992,-3.9625,-3.8875,-3.8614,-3.8494,-3.8494,-3.843,-3.8368,-3.8289,-3.829,-3.8257,-3.8209,-3.8209,-3.8192,-3.814,-3.8456,-3.8572,0.0,0.0,-3.731,0.0,-3.5377,-3.4117,-3.344,0.0,0.0,0.0,-3.4691,-3.4341,-3.3725,-3.3039,-3.2376,-3.1781,-3.1781,-3.18,-3.18,-3.18,-3.18,-3.18,-3.18,-3.0729,-2.9403,-2.9403,-2.8305,-2.6991,-2.6975,-2.6975,-2.6975,-2.6975,-2.6975,-2.6958,-2.6909,-2.6332,-2.5791,-2.5726,-2.5118,-2.4626,-2.4694,-2.5169,-2.5862,-2.664,-2.6911,-2.7198,0.0,0.0,0.0,0.0,0.0,-2.9223,-2.9683,0.0,0.0,0.0,0.0,0.0,0.0,0.0,0.0,0.0,0.0,0.0,-3.1306,0.0,-2.912,-2.9193,-2.7791,-2.7152,-2.7282,-2.7282,-2.7299,-2.7299,-2.7299,-2.7299,-2.7283,-2.6908,-2.6297,-2.55,-2.5246,-2.491,-2.458,-2.44,-2.4317,-2.4317,-2.4302,-2.4348,-2.4502,0.0,0.0,0.0,0.0,0.0,0.0,0.0,-4.0598,-4.0084,-3.9294,-3.9559,-3.9509,-3.8666,-3.8512,-3.8415,-3.8368,-3.837,-3.8305,-3.8241,-3.8241,-3.8242,-3.8209,-3.8209,-3.8209,-3.8209,-3.9211,-3.9156,0.0,0.0,0.0,0.0,-3.5981,-3.5433,-3.52,0.0,-3.5358,-3.5488,-3.5484,-3.481,-3.3747,-3.3456,-3.2676,-3.169,-3.169,-3.1727,-3.18,-3.18,-3.18,-3.18,-3.18,-3.0765,-2.9455,-2.9455,-2.8355,-2.7071,-2.7071,-2.704,-2.6975,-2.6959,-2.6942,-2.6909,-2.6809,-2.6216,-2.5641,-2.5609,-2.4695,-2.3966,-2.4406,-2.4728,-2.5169,-2.5896,-2.6404,-2.6793,-2.7097,0.0,0.0,0.0,0.0,0.0,-3.0126,0.0,-3.0368,0.0,0.0,0.0,0.0,0.0,-3.2187,-3.1795,0.0,0.0,-3.1867,0.0,-2.9157,-2.9156,-2.7791,-2.6895,-2.653,-2.6561,-2.6575,-2.6575,-2.6575,-2.6675,-2.6791,-2.6192,-2.5687,-2.5234,-2.489,-2.4645,-2.4498,-2.4359,-2.4302,-2.4302,-2.4302,-2.4302,-2.4471,-4.3149,0.0,-4.1882,0.0,-4.113,-4.0561,-3.9992,-3.9698,-3.9423,-3.9093,-3.9287,-3.9237,-3.8632,-3.8478,-3.8417,-3.837,-3.8338,-3.8305,-3.8256,-3.8274,-3.8274,-3.8274,-3.8241,0.0,-3.8242,-3.9278,-3.9193,-3.7899,-3.8371,0.0,-3.6738,-3.6383,-3.6237,0.0,-3.5997,-3.5927,-3.5997,-3.5997,-3.5245,-3.4052,-3.3847,-3.3051,-3.1963,-3.174,-3.1727,-3.18,-3.18,-3.18,-3.18,-3.18,-3.092,-2.9817,-2.9575,-2.8715,-2.7702,-2.7239,-2.7242,-2.7314,-2.701,-2.6926,-2.6841,-2.6487,-2.5844,-2.5251,-2.5017,-2.3985,-2.3224,-2.3763,-2.4034,-2.4406,-2.5135,-2.5879,-2.6437,-2.6657,0.0,0.0,0.0,-2.9237,0.0,-3.0603,-3.0694,-3.0744,-3.0893,0.0,0.0,0.0,0.0,-3.2659,-3.1864,0.0,0.0,0.0,0.0,0.0,-2.8833,-2.7689,-2.6861,-2.6377,-2.6423,-2.6454,-2.6454,-2.6329,-2.6315,-2.6334,-2.5633,-2.523,-2.4997,-2.4589,-2.4436,-2.4421,-2.4338,-2.4302,-2.4302,-2.4302,-2.4302,-2.4471,-4.2304,-4.168,-4.0857,-4.0065,-3.9918,-3.9916,-3.99,-3.9239,-3.9001,-3.9772,-3.9203,-3.8726,-3.8707,-3.8575,-3.851,-3.851,-3.843,-3.8399,-3.8399,-3.8399,-3.8399,0.0,0.0,-3.8307,-3.8307,-3.8242,-3.8435,-3.8885,0.0,0.0,-3.7774,-3.656,-3.5997,-3.5997,-3.5997,-3.5997,-3.5997,-3.5997,-3.5617,-3.4912,-3.4191,-3.3495,-3.28,-3.2076,-3.18,-3.18,-3.18,-3.18,-3.18,-3.18,-3.13,-3.0559,-2.9748,-2.9489,-2.9162,-2.7564,-2.7668,-2.8098,-2.7229,-2.6991,-2.6804,-2.5941,-2.516,-2.4396,-2.3611,-2.2852,-2.2313,-2.2313,-2.2919,-2.3644,-2.4372,-2.5118,-2.5862,-2.6573,0.0,0.0,0.0,-2.9844,0.0,-3.1114,-3.0142,-2.9876,-3.1064,0.0,0.0,0.0,0.0,-3.2321,-3.1636,0.0,0.0,-3.0257,-2.9567,0.0,-2.8219,-2.7464,-2.7168,-2.7282,-2.7297,-2.7297,-2.7282,-2.6858,-2.6471,-2.607,-2.5462,-2.4993,-2.4589,-2.4385,-2.4302,-2.4302,-2.4302,-2.4302,-2.4302,-2.4302,-2.4302,-2.441,-4.148,-4.0836,-4.0194,-3.9937,-3.9441,-3.9074,-3.9074,-3.8854,-3.8799,-3.9056,-3.8854,-3.8707,-3.8707,-3.8658,-3.8578,0.0,-3.8462,-3.8417,0.0,-3.8305,-3.8305,-3.8274,-3.8241,-3.8224,-3.8224,-3.8785,-3.8895,-3.8502,0.0,0.0,0.0,-3.6596,-3.6471,-3.6512,-3.6255,-3.6148,-3.6195,-3.6195,-3.5494,-3.4381,-3.414,-3.3281,-3.2127,-3.1886,-3.18,-3.18,-3.18,-3.18,-3.18,-3.18,-3.1627,-3.1317,-3.0558,-2.9937,-2.93,-2.8283,-2.8163,-2.8181,-2.7292,-2.7071,-2.6987,-2.6667,-2.5597,-2.453,-2.4279,-2.3233,-2.231,-2.2366,-2.2525,-2.3038,-2.4271,-2.4694,-2.5269,-2.6505,-2.7114,0.0,-2.8857,0.0,-2.9907,-3.1072,-3.0853,-3.0783,0.0,-3.117,0.0,0.0,0.0,0.0,0.0,0.0,0.0,0.0,-2.9381,0.0,-2.8117,-2.7547,-2.699,-2.6488,-2.6488,-2.6347,-2.6093,-2.6219,-2.605,-2.5594,-2.5036,-2.469,-2.4523,-2.4359,-2.4302,-2.4302,-2.4302,-2.4302,-2.4302,-2.4302,-2.4302,-2.441,-4.0653,-3.9992,-3.9441,-3.9441,-3.9038,-3.8707,-3.8707,-3.8707,-3.8707,-3.8707,-3.8707,-3.8707,-3.8707,-3.8707,0.0,-3.8512,-3.8544,-3.853,-3.8407,-3.8421,-3.8421,-3.8322,-3.8289,-3.8256,-3.8242,-3.8749,0.0,-3.807,-3.7967,-3.7529,-3.6776,-3.6801,-3.6821,-3.6776,-3.6571,-3.6406,-3.6301,-3.6301,-3.5611,-3.4493,-3.4217,-3.3335,-3.2179,-3.1903,-3.18,-3.18,-3.18,-3.18,-3.18,-3.18,-3.18,-3.1714,-3.1248,-3.0765,-3.011,-2.8766,-2.8353,-2.8164,-2.7309,-2.7054,-2.6987,-2.6665,-2.58,-2.4854,-2.4279,-2.3185,-2.231,-2.2349,-2.2338,-2.275,-2.422,-2.4491,-2.4982,-2.6454,-2.7199,-2.791,-2.8857,0.0,-2.9854,0.0,0.0,0.0,0.0,-3.1086,-3.0965,0.0,0.0,0.0,0.0,0.0,0.0,-3.0436,-2.904,-2.8099,-2.7741,-2.7442,-2.704,-2.6557,-2.64,-2.6111,-2.5732,-2.58,-2.5687,-2.5384,-2.4795,-2.4544,-2.4498,-2.4359,-2.4302,-2.4302,-2.4302,-2.4302,-2.4302,-2.4302,-2.4471,-2.4758,-3.9808,-3.9203,-3.8707,0.0,-3.8707,0.0,-3.8707,-3.8707,-3.8707,-3.8707,-3.8707,-3.8707,-3.8707,-3.8707,-3.8707,-3.8707,0.0,0.0,0.0,-3.8673,-3.8624,-3.851,-3.843,-3.8368,-3.8307,-3.8241,-3.8054,-3.7739,-3.7375,-3.7186,-3.7129,-3.7227,-3.7095,-3.6856,-3.69,-3.6721,-3.6367,-3.6367,-3.5973,-3.5229,-3.4518,-3.3723,-3.2893,-3.2183,-3.1871,-3.1819,-3.1819,-3.1818,-3.18,-3.18,-3.18,-3.18,-3.18,-3.1765,-3.1282,-2.9111,-2.8423,-2.8201,-2.7331,-2.7058,-2.6853,-2.6168,-2.5834,-2.5297,-2.3761,-2.2868,-2.2381,-2.2378,-2.2381,-2.2835,-2.4305,-2.4609,-2.5117,-2.6539,-2.8028,-2.8993,-2.8993,-2.9634,-3.0362,0.0,0.0,0.0,-3.1092,-3.0643,-3.0547,0.0,0.0,0.0,0.0,0.0,-3.0462,-2.9153,-2.8528,-2.7857,-2.7119,-2.7233,-2.7299,-2.725,-2.6858,-2.6453,-2.605,-2.5594,-2.5384,-2.5326,-2.4751,-2.4498,-2.4498,-2.4359,-2.4302,-2.4302,-2.4302,-2.4302,-2.4317,-2.4364,-2.4758,-2.5389,0.0,0.0,-3.8707,-3.8707,-3.8707,-3.8707,-3.8707,-3.8707,-3.8707,-3.8707,-3.8707,-3.8707,-3.8707,-3.8707,-3.8707,-3.8707,-3.8707,-3.8627,-3.8481,-3.8528,-3.851,-3.843,-3.8415,-3.8382,-3.8385,-3.8417,-3.8285,-3.8,-3.8221,-3.8,-3.7414,-3.7739,-3.7685,-3.7339,-3.7358,-3.7321,-3.7227,-3.7227,-3.6803,-3.6076,-3.5583,-3.4725,-3.3703,-3.3213,-3.2668,-3.2179,-3.2179,-3.202,-3.18,-3.18,-3.18,-3.18,-3.18,-3.1403,-3.0851,-3.0282,-2.9713,-2.9059,-2.8284,-2.7648,-2.7151,-2.6897,-2.6257,-2.5297,-2.382,-2.3301,-2.3154,-2.3212,-2.3183,-2.3596,-2.5067,-2.5795,-2.6471,-2.7384,-2.8366,-2.8993,-2.8993,-2.9634,-3.0178,0.0,-3.0628,-3.0938,-3.1387,-3.1289,-3.1016,0.0,0.0,0.0,0.0,-2.9175,-2.8971,-2.9175,-2.8014,-2.7274,-2.7103,-2.7233,-2.7137,-2.6842,-2.659,-2.6156,-2.5556,-2.5329,-2.515,-2.4926,-2.4641,-2.4539,-2.4564,-2.4364,-2.4302,-2.4302,-2.4302,-2.4302,-2.4364,-2.4866,-2.5158,-2.5389,-3.8707,-3.8707,-3.8707,-3.8707,-3.8707,-3.8707,-3.8707,-3.8707,-3.8707,-3.8707,-3.8707,-3.8707,-3.8707,-3.8707,-3.8707,-3.8707,-3.8707,-3.8643,-3.8546,-3.8559,-3.8544,-3.8446,-3.8446,-3.843,-3.8399,-3.843,-3.8382,-3.8252,-3.8449,-3.8334,-3.793,-3.8168,-3.8066,-3.7721,-3.7756,-3.7667,-3.7505,-3.7505,-3.7077,-3.6381,-3.6166,-3.5457,-3.4489,-3.3896,-3.3318,-3.2809,-3.2423,-3.2091,-3.18,-3.18,-3.18,-3.18,-3.18,-3.1524,-3.1196,-3.1196,-3.0162,-2.892,-2.8506,-2.7851,-2.7266,-2.7135,-2.6441,-2.5578,-2.4777,-2.4258,-2.3973,-2.4064,-2.4066,-2.4394,-2.5533,-2.6332,-2.708,-2.781,-2.8845,-2.9539,-2.9539,-2.9875,-3.0127,-3.0149,-3.0219,-3.0291,-3.0382,-3.0438,-3.0304,-2.9964,-2.9659,0.0,-2.9351,-2.8322,-2.8031,-2.8681,-2.7654,-2.7038,-2.6858,-2.6791,-2.6539,-2.6157,-2.605,-2.5723,-2.5208,-2.5072,-2.4946,-2.4782,-2.4605,-2.4564,-2.462,-2.4849,-2.4947,-2.4932,-2.4869,-2.4848,-2.4848,-2.4847,-2.5256,-2.5857,-3.8707,-3.8707,-3.8707,-3.8707,-3.8707,-3.8707,-3.8707,-3.8707,-3.8707,-3.8707,-3.8707,-3.8707,-3.8707,-3.8707,-3.8707,-3.8707,-3.8707,-3.8707,-3.8707,-3.8707,-3.8658,-3.8544,-3.8525,-3.8494,-3.8449,-3.8449,-3.8449,-3.8449,-3.8449,-3.8449,-3.8449,-3.8494,-3.8382,-3.8103,-3.817,-3.7999,-3.7685,-3.7685,-3.7309,-3.6734,-3.6682,-3.6164,-3.5357,-3.4522,-3.3896,-3.3371,-3.2599,-3.2091,-3.18,-3.18,-3.18,-3.18,-3.18,-3.18,-3.18,-3.18,-3.0265,-2.8575,-2.8575,-2.7937,-2.7233,-2.7135,-2.6574,-2.6032,-2.593,-2.5337,-2.483,-2.494,-2.4955,-2.5195,-2.593,-2.675,-2.7536,-2.8152,-2.9446,-3.0308,-3.0206,0.0,-3.0057,-2.9958,-2.9401,-2.9047,-2.9137,-2.9193,-2.9229,-2.9248,-2.8715,-2.8627,-2.9144,-2.7971,-2.7511,-2.7963,-2.743,-2.6973,-2.6624,-2.6332,-2.5944,-2.5503,-2.5465,-2.5288,-2.4982,-2.4826,-2.4782,-2.4782,-2.4666,-2.4609,-2.4656,-2.5269,-2.5519,-2.5477,-2.5361,-2.5319,-2.5236,-2.4683,-2.521,-2.6241,-3.8707,-3.8707,-3.8707,-3.8707,-3.8707,-3.8707,-3.8707,-3.8707,-3.8707,-3.8707,-3.8707,-3.8707,-3.8707,-3.8707,-3.8707,-3.8707,-3.8707,-3.8707,-3.8707,-3.8707,-3.8692,-3.8658,-3.8658,-3.8658,-3.8643,-3.8643,-3.8643,-3.8643,-3.8643,-3.8643,-3.8643,-3.8658,-3.8643,-3.8596,-3.8596,-3.858,-3.8515,-3.8515,-3.8442,-3.8316,-3.797,-3.7365,-3.6519,-3.543,-3.434,-3.3318,-3.2581,-3.2091,-3.18,-3.18,-3.18,-3.18,-3.18,-3.18,-3.18,-3.18,-3.0627,-2.9334,-2.9334,-2.825,-2.7135,-2.7119,-2.697,-2.6666,-2.6032,-2.581,-2.5692,-2.5707,-2.5725,-2.5947,-2.67,-2.7947,-2.8868,-2.8933,-3.0173,-3.0883,-3.0194,0.0,-2.9892,-2.9322,-2.9153,-2.9157,-2.935,-2.9368,-2.9145,-2.8593,-2.8472,-2.8178,-2.7661,-2.742,-2.7351,-2.7422,-2.7335,-2.7088,-2.6674,-2.6573,-2.6191,-2.5503,-2.5329,-2.5111,-2.4822,-2.4686,-2.4686,-2.4782,-2.4666,-2.4609,-2.4589,-2.4668,-2.4617,-2.4513,-2.4477,-2.4492,-2.4538,-2.4979,-2.5266,-2.5564,-3.8707,-3.8707,-3.8707,-3.8707,-3.8707,-3.8707,-3.8707,-3.8707,-3.8707,-3.8707,-3.8707,-3.8707,-3.8707,-3.8707,-3.8707,-3.8707,-3.8707,-3.8707,-3.8707,-3.8707,-3.8707,-3.8707,-3.8707,-3.8707,-3.8707,-3.8707,-3.8707,-3.8707,-3.8707,-3.8707,-3.8707,-3.8707,-3.8707,-3.8707,-3.8707,-3.8707,-3.8707,-3.8707,-3.8707,-3.8692,-3.8499,-3.8198,-3.7747,-3.6555,-3.5513,-3.4523,-3.3558,-3.2721,-3.2109,-3.2266,-3.2091,-3.1819,-3.2002,-3.1947,-3.18,-3.18,-3.0713,-2.9334,-2.8523,-2.7767,-2.7217,-2.7217,-2.712,-2.6986,-2.6724,-2.6605,-2.6573,-2.6638,-2.6653,-2.6878,-2.7617,-2.863,-2.9506,-2.9916,-3.0802,0.0,-3.0965,-3.0534,-2.9988,-2.9225,-2.88,-2.8459,-2.8184,-2.8166,-2.8062,-2.7833,-2.7799,-2.7661,-2.7316,-2.7299,-2.7299,-2.7299,-2.6875,-2.6556,-2.6367,-2.5959,-2.557,-2.5227,-2.513,-2.5029,-2.4922,-2.4846,-2.4806,-2.4802,-2.4726,-2.4706,-2.4737,-2.503,-2.5129,-2.5093,-2.4988,-2.4946,-2.4946,-2.4816,-2.5241,-2.5887,-3.8707,-3.8707,-3.8707,-3.8707,-3.8707,-3.8707,-3.8707,-3.8707,-3.8707,-3.8707,-3.8707,-3.8707,-3.8707,-3.8707,-3.8707,-3.8707,-3.8707,-3.8707,-3.8707,-3.8707,-3.8707,-3.8707,-3.8707,-3.8707,-3.8707,-3.8707,-3.8707,-3.8707,-3.8707,-3.8707,-3.8707,-3.8707,-3.8707,-3.8707,-3.8707,-3.8707,-3.8707,-3.8707,-3.8707,-3.8707,-3.8707,-3.8643,-3.8439,-3.7346,-3.6367,-3.5439,-3.4375,-3.3327,-3.2453,-3.2699,-3.2453,-3.2091,-3.2352,-3.2179,-3.1911,-3.1911,-3.0767,-2.9265,-2.8127,-2.7558,-2.7299,-2.7299,-2.7217,-2.7168,-2.7282,-2.7217,-2.7184,-2.7282,-2.7299,-2.7471,-2.804,-2.8747,-2.9437,-3.0006,0.0,-3.1083,0.0,-3.0358,-2.9637,-2.9023,-2.8288,-2.7587,-2.6914,-2.7,-2.7066,-2.704,-2.7195,-2.7299,-2.7299,-2.7299,-2.7299,-2.7299,-2.6691,-2.628,-2.6104,-2.5535,-2.5166,-2.5005,-2.5005,-2.5005,-2.5005,-2.5005,-2.5021,-2.5078,-2.4905,-2.4916,-2.5069,-2.554,-2.5649,-2.5529,-2.5539,-2.5445,-2.5206,-2.4585,-2.5037,-2.5901,-3.8707,-3.8707,-3.8707,-3.8707,-3.8707,-3.8707,-3.8707,-3.8707,-3.8707,-3.8707,-3.8707,-3.8707,-3.8707,-3.8707,-3.8707,-3.8707,-3.8707,-3.8707,-3.8707,-3.8707,-3.8707,-3.8707,-3.8707,-3.8707,-3.8707,-3.8707,-3.8707,-3.8707,-3.8707,-3.8707,-3.8707,-3.8707,-3.8707,-3.8707,-3.8707,-3.8707,-3.8707,-3.8707,-3.8707,-3.8707,-3.8707,-3.8483,-3.8062,-3.7299,-3.6256,-3.513,-3.4292,-3.3457,-3.2763,-3.2795,-3.2763,-3.2731,-3.2765,-3.2519,-3.2266,-3.2266,-3.0942,-2.9489,-2.9368,-2.8334,-2.7299,-2.7299,-2.7282,-2.7282,-2.7299,-2.7282,-2.7282,-2.7299,-2.7299,-2.7316,-2.7368,-2.7971,-2.8456,-2.839,0.0,0.0,-2.9399,-2.875,-2.8237,-2.8186,-2.752,-2.6818,-2.6158,-2.6691,-2.6842,-2.6232,-2.6885,-2.7299,-2.7299,-2.7299,-2.7299,-2.7299,-2.7234,-2.6858,-2.6122,-2.605,-2.5684,-2.5005,-2.5005,-2.5005,-2.5005,-2.5005,-2.5333,-2.5877,-2.525,-2.5269,-2.5733,-2.5827,-2.5404,-2.475,-2.541,-2.5269,-2.4667,-2.4534,-2.4539,-2.4689,-3.8707,-3.8707,-3.8707,-3.8707,-3.8707,-3.8707,-3.8707,-3.8707,-3.8707,-3.8707,-3.8707,-3.8707,-3.8707,-3.8707,-3.8707,-3.8707,-3.8707,-3.8707,-3.8707,-3.8707,-3.8707,-3.8707,-3.8707,-3.8707,-3.8707,-3.8707,-3.8707,-3.8707,-3.8707,-3.8707,-3.8707,-3.8707,-3.8707,-3.8707,-3.8707,-3.8707,-3.8707,-3.8707,-3.8707,-3.8707,-3.8707,-3.8611,-3.836,-3.733,-3.6499,-3.575,-3.4684,-3.3777,-3.3139,-3.3346,-3.3136,-3.2827,-3.3029,-3.2732,-3.2249,-3.2055,-3.1148,-3.0144,-2.9644,-2.842,-2.7299,-2.7299,-2.7299,-2.7299,-2.7299,-2.7299,-2.7299,-2.7299,-2.7299,-2.7437,-2.7902,-2.8213,-2.8524,-2.8939,0.0,-2.9438,-2.9386,-2.875,-2.8286,-2.8286,-2.7633,-2.6893,-2.6149,-2.6769,-2.6905,-2.6146,-2.6851,-2.7299,-2.7299,-2.7299,-2.7299,-2.7299,-2.7299,-2.7023,-2.6487,-2.598,-2.5594,-2.5307,-2.5107,-2.5005,-2.5001,-2.5428,-2.5699,-2.5889,-2.6078,-2.6026,-2.5843,-2.6234,-2.5743,-2.4836,-2.5904,-2.5628,-2.4698,-2.5555,-2.586,-2.5891,-3.8707,-3.8707,-3.8707,-3.8707,-3.8707,-3.8707,-3.8707,-3.8707,-3.8707,-3.8707,-3.8707,-3.8707,-3.8707,-3.8707,-3.8707,-3.8707,-3.8707,-3.8707,-3.8707,-3.8707,-3.8707,-3.8707,-3.8707,-3.8707,-3.8707,-3.8707,-3.8707,-3.8707,-3.8707,-3.8707,-3.8707,-3.8707,-3.8707,-3.8707,-3.8707,-3.8707,-3.8707,-3.8707,-3.8707,-3.8707,-3.8707,-3.8707,-3.8603,-3.7781,-3.697,-3.6182,-3.5362,-3.4364,-3.3494,-3.3721,-3.349,-3.3151,-3.3375,-3.3001,-3.2386,-3.2055,-3.1165,-3.0196,-2.9644,-2.842,-2.7299,-2.7299,-2.7299,-2.7299,-2.7299,-2.7299,-2.7299,-2.7299,-2.7299,-2.7437,-2.7954,-2.804,-2.8213,-2.873,-2.8816,-2.8816,-2.8816,-2.8368,-2.804,-2.804,-2.7609,-2.6971,-2.618,-2.6833,-2.6971,-2.6146,-2.6851,-2.7299,-2.7299,-2.7299,-2.7299,-2.7299,-2.7299,-2.717,-2.6891,-2.621,-2.5817,-2.5689,-2.5326,-2.5277,-2.5516,-2.5849,-2.6188,-2.655,-2.6834,-2.6671,-2.6262,-2.6889,-2.6355,-2.5298,-2.6638,-2.6422,-2.5493,-2.6367,-2.6689,-2.672,-3.8707,-3.8707,-3.8707,-3.8707,-3.8707,-3.8707,-3.8707,-3.8707,-3.8707,-3.8707,-3.8707,-3.8707,-3.8707,-3.8707,-3.8707,-3.8707,-3.8707,-3.8707,-3.8707,-3.8707,-3.8707,-3.8707,-3.8707,-3.8707,-3.8707,-3.8707,-3.8707,-3.8707,-3.8707,-3.8707,-3.8707,-3.8707,-3.8707,-3.8707,-3.8707,-3.8707,-3.8707,-3.8707,-3.8707,-3.8707,-3.8707,-3.8707,-3.8707,-3.8689,-3.7698,-3.6303,-3.6285,-3.522,-3.3807,-3.3807,-3.3807,-3.3807,-3.3807,-3.3346,-3.2749,-3.2403,-3.0976,-2.9523,-2.9523,-2.8437,-2.7332,-2.7299,-2.7299,-2.7299,-2.7299,-2.7299,-2.7299,-2.7299,-2.7299,-2.7299,-2.7299,-2.7299,-2.7299,-2.7299,-2.7299,-2.7299,-2.7299,-2.7299,-2.7299,-2.7299,-2.7299,-2.6971,-2.618,-2.6833,-2.6971,-2.6146,-2.6851,-2.7299,-2.7299,-2.7299,-2.7299,-2.7299,-2.7299,-2.7299,-2.7299,-2.6891,-2.6505,-2.6104,-2.5689,-2.5872,-2.6581,-2.6193,-2.6767,-2.8047,-2.7399,-2.7115,-2.7162,-2.7826,-2.7273,-2.6151,-2.7557,-2.7683,-2.7077,-2.6808,-2.6704,-2.6776,-3.8707,-3.8707,-3.8707,-3.8707,-3.8707,-3.8707,-3.8707,-3.8707,-3.8707,-3.8707,-3.8707,-3.8707,-3.8707,-3.8707,-3.8707,-3.8707,-3.8707,-3.8707,-3.8707,-3.8707,-3.8707,-3.8707,-3.8707,-3.8707,-3.8707,-3.8707,-3.8707,-3.8707,-3.8707,-3.8707,-3.8707,-3.8707,-3.8707,-3.8707,-3.8707,-3.8707,-3.8707,-3.8707,-3.8707,-3.8707,-3.8707,-3.8707,-3.8634,-3.8065,-3.7217,-3.6211,-3.561,-3.4706,-3.3807,-3.3807,-3.3807,-3.3748,-3.3522,-3.3302,-3.3078,-3.2749,-3.2249,-3.1706,-3.1174,-3.0135,-2.8882,-2.762,-2.7299,-2.7299,-2.7299,-2.7299,-2.7299,-2.7299,-2.7299,-2.7299,-2.7299,-2.7299,-2.7299,-2.7299,-2.7299,-2.7299,-2.7299,-2.7299,-2.7299,-2.7299,-2.7299,-2.6971,-2.618,-2.6833,-2.6971,-2.6146,-2.6851,-2.7299,-2.7299,-2.7299,-2.7299,-2.7299,-2.7299,-2.7299,-2.7299,-2.6891,-2.6505,-2.6104,-2.5689,-2.548,-2.5497,-2.6387,-2.7004,-2.7446,-2.8183,-2.8252,-2.7841,-2.8537,-2.7993,-2.6909,-2.8261,-2.8043,-2.7085,-2.8046,-2.7964,-2.7493,-3.8707,-3.8707,-3.8707,-3.8707,-3.8707,-3.8707,-3.8707,-3.8707,-3.8707,-3.8707,-3.8707,-3.8707,-3.8707,-3.8707,-3.8707,-3.8707,-3.8707,-3.8707,-3.8707,-3.8707,-3.8707,-3.8707,-3.8707,-3.8707,-3.8707,-3.8707,-3.8707,-3.8707,-3.8707,-3.8707,-3.8707,-3.8707,-3.8707,-3.8707,-3.8707,-3.8707,-3.8707,-3.8707,-3.8707,-3.8707,-3.8707,-3.8505,-3.8175,-3.7694,-3.678,-3.5734,-3.5188,-3.4472,-3.3807,-3.3807,-3.3807,-3.3762,-3.355,-3.3408,-3.3262,-3.3063,-3.2708,-3.2257,-3.1809,-3.0744,-2.9453,-2.8373,-2.7693,-2.7299,-2.7299,-2.7299,-2.7299,-2.7299,-2.7299,-2.7299,-2.7299,-2.7299,-2.7299,-2.7299,-2.7299,-2.7299,-2.7299,-2.7299,-2.7299,-2.7299,-2.7299,-2.7109,-2.6626,-2.7006,-2.7092,-2.6609,-2.7023,-2.7299,-2.7299,-2.7299,-2.7299,-2.7299,-2.7299,-2.7299,-2.7299,-2.7072,-2.6742,-2.6333,-2.5926,-2.5829,-2.6034,-2.6471,-2.7093,-2.7914,-2.8467,-2.8474,-2.8142,-2.8814,-2.8467,-2.7604,-2.8672,-2.8548,-2.7872,-2.8714,-2.8653,-2.8217,-3.8615,-3.8652,-3.8707,-3.8707,-3.8707,-3.8707,-3.8707,-3.8707,-3.8707,-3.8707,-3.8707,-3.8707,-3.8707,-3.8707,-3.8707,-3.8707,-3.8707,-3.8707,-3.8707,-3.8707,-3.8707,-3.8707,-3.8707,-3.8707,-3.8707,-3.8707,-3.8707,-3.8707,-3.8707,-3.8707,-3.8707,-3.8707,-3.8707,-3.8707,-3.8707,-3.8707,-3.8707,-3.8707,-3.8707,-3.8707,-3.8707,-3.8267,-3.7603,-3.7529,-3.6541,-3.5206,-3.5151,-3.4601,-3.3899,-3.3825,-3.3807,-3.3807,-3.3807,-3.3578,-3.335,-3.335,-3.2649,-3.1882,-3.1882,-3.0757,-2.9533,-2.9462,-2.8458,-2.7445,-2.7362,-2.7329,-2.7329,-2.7297,-2.7299,-2.7299,-2.7299,-2.7299,-2.7299,-2.7299,-2.7299,-2.7299,-2.7299,-2.7299,-2.7299,-2.7299,-2.7299,-2.7299,-2.7299,-2.7299,-2.7299,-2.7299,-2.7299,-2.7299,-2.7299,-2.7299,-2.7299,-2.7299,-2.7299,-2.7299,-2.7299,-2.7299,-2.7105,-2.6691,-2.6298,-2.6611,-2.7466,-2.6527,-2.7156,-2.8972,-2.8426,-2.8189,-2.8237,-2.8846,-2.8735,-2.8252,-2.8861,-2.9075,-2.9075,-2.8967,-2.892,-2.8873,-3.7878,-3.8267,-3.8707,-3.8707,-3.8707,-3.8707,-3.8707,-3.8707,-3.8707,-3.8707,-3.8707,-3.8707,-3.8707,-3.8707,-3.8707,-3.8707,-3.8707,-3.8707,-3.8707,-3.8707,-3.8707,-3.8707,-3.8707,-3.8707,-3.8707,-3.8707,-3.8707,-3.8707,-3.8707,-3.8707,-3.8707,-3.8707,-3.8707,-3.8707,-3.8707,-3.8707,-3.8707,-3.8707,-3.8707,-3.8707,-3.8707,-3.8597,-3.8377,-3.7749,-3.7272,-3.6886,-3.6248,-3.5477,-3.4637,-3.4009,-3.3807,-3.3807,-3.3807,-3.3748,-3.3694,-3.3694,-3.3524,-3.3337,-3.3337,-3.2474,-3.1418,-3.0785,-2.9733,-2.8644,-2.7797,-2.7615,-2.7539,-2.7345,-2.7299,-2.7299,-2.7299,-2.7299,-2.7299,-2.7299,-2.7299,-2.7299,-2.7299,-2.7299,-2.7299,-2.7299,-2.7299,-2.7299,-2.7299,-2.7299,-2.7299,-2.7299,-2.7299,-2.7299,-2.7299,-2.7299,-2.7299,-2.7299,-2.7299,-2.7299,-2.7299,-2.7299,-2.7105,-2.6691,-2.6298,-2.6348,-2.6823,-2.6845,-2.7399,-2.8347,-2.8726,-2.8877,-2.8893,-2.9035,-2.9019,-2.8893,-2.9035,-2.9052,-2.8943,-2.9029,-2.8951,-2.8826,-3.7658,-3.8138,-3.8707,-3.8707,-3.8707,-3.8707,-3.8707,-3.8707,-3.8707,-3.8707,-3.8707,-3.8707,-3.8707,-3.8707,-3.8707,-3.8707,-3.8707,-3.8707,-3.8707,-3.8707,-3.8707,-3.8707,-3.8707,-3.8707,-3.8707,-3.8707,-3.8707,-3.8707,-3.8707,-3.8707,-3.8707,-3.8707,-3.8707,-3.8707,-3.8707,-3.8707,-3.8707,-3.8707,-3.8707,-3.8707,-3.8707,-3.8469,-3.8065,-3.7658,-3.7015,-3.6303,-3.6303,-3.6009,-3.5569,-3.5128,-3.4724,-3.4362,-3.4362,-3.4119,-3.3807,-3.3807,-3.3807,-3.3807,-3.3807,-3.3094,-3.2292,-3.1868,-3.1033,-2.9841,-2.8094,-2.7701,-2.7612,-2.736,-2.7299,-2.7299,-2.7299,-2.7299,-2.7299,-2.7299,-2.7299,-2.7299,-2.7299,-2.7299,-2.7299,-2.7299,-2.7299,-2.7299,-2.7299,-2.7299,-2.7299,-2.7299,-2.7299,-2.7299,-2.7299,-2.7299,-2.7299,-2.7299,-2.7299,-2.7299,-2.7299,-2.7299,-2.7374,-2.752,-2.7095,-2.6961,-2.7066,-2.6948,-2.7503,-2.853,-2.7898,-2.8183,-2.9051,-2.8404,-2.8514,-2.9067,-2.8735,-2.8791,-2.899,-2.9075,-2.9045,-2.8944,-3.7492,-3.8046,-3.8707,-3.8707,-3.8707,-3.8707,-3.8707,-3.8707,-3.8707,-3.8707,-3.8707,-3.8707,-3.8707,-3.8707,-3.8707,-3.8707,-3.8707,-3.8707,-3.8707,-3.8707,-3.8707,-3.8707,-3.8707,-3.8707,-3.8707,-3.8707,-3.8707,-3.8707,-3.8707,-3.8707,-3.8707,-3.8707,-3.8707,-3.8707,-3.8707,-3.8707,-3.8707,-3.8707,-3.8707,-3.8707,-3.8707,-3.8303,-3.7694,-3.7547,-3.6725,-3.5701,-3.6303,-3.6505,-3.6468,-3.634,-3.5734,-3.5004,-3.5004,-3.4454,-3.3807,-3.3807,-3.3807,-3.3807,-3.3807,-3.3311,-3.2766,-3.2619,-3.21,-3.1018,-2.8767,-2.8158,-2.7933,-2.7454,-2.7376,-2.736,-2.7315,-2.7299,-2.7299,-2.7299,-2.7299,-2.7299,-2.7299,-2.7299,-2.7299,-2.7299,-2.7299,-2.7299,-2.7299,-2.7299,-2.7299,-2.7299,-2.7299,-2.7299,-2.7299,-2.7299,-2.7299,-2.7299,-2.7299,-2.7299,-2.7299,-2.742,-2.7782,-2.8403,-2.834,-2.8157,-2.7867,-2.7169,-2.7692,-2.8988,-2.703,-2.7283,-2.9004,-2.7794,-2.7936,-2.8893,-2.8442,-2.8553,-2.8925,-2.8925,-2.8925,-2.8909,-3.6762,-3.7661,-3.8707,-3.8707,-3.8707,-3.8707,-3.8707,-3.8707,-3.8707,-3.8707,-3.8707,-3.8707,-3.8707,-3.8707,-3.8707,-3.8707,-3.8707,-3.8707,-3.8707,-3.8707,-3.8707,-3.8707,-3.8707,-3.8707,-3.8707,-3.8707,-3.8707,-3.8707,-3.8707,-3.8707,-3.8707,-3.8707,-3.8707,-3.8707,-3.8707,-3.8707,-3.8707,-3.8707,-3.8707,-3.8707,-3.8707,-3.8634,-3.8469,-3.7768,-3.7804,-3.812,-3.7547,-3.7345,-3.7235,-3.6523,-3.5734,-3.5004,-3.5004,-3.4454,-3.3807,-3.3807,-3.3807,-3.3807,-3.3807,-3.3715,-3.3476,-3.2766,-3.2509,-3.2101,-3.0853,-3.0017,-2.9156,-2.79,-2.7659,-2.7569,-2.7345,-2.7299,-2.7299,-2.7299,-2.7299,-2.7299,-2.7299,-2.7299,-2.7299,-2.7299,-2.7299,-2.7299,-2.7299,-2.7299,-2.7299,-2.7299,-2.7299,-2.7299,-2.7299,-2.7299,-2.7299,-2.7299,-2.7299,-2.7299,-2.7299,-2.7937,-2.8299,-2.842,-2.9713,-2.9863,-2.9028,-2.8037,-2.8137,-2.9019,-2.7589,-2.7756,-2.9035,-2.8284,-2.8063,-2.8284,-2.8767,-2.8679,-2.8237,-2.8237,-2.8237,-2.8142,-3.7257,-3.7956,-3.875,-3.8707,-3.8707,-3.8707,-3.8707,-3.8707,-3.8707,-3.8707,-3.8707,-3.8707,-3.8707,-3.8707,-3.8707,-3.8707,-3.8707,-3.8707,-3.8707,-3.8707,-3.8707,-3.8707,-3.8707,-3.8707,-3.8707,-3.8707,-3.8707,-3.8707,-3.8707,-3.8707,-3.8707,-3.8707,-3.8707,-3.8707,-3.8707,-3.8707,-3.8707,-3.8707,-3.8707,-3.8707,-3.8707,-3.8707,-3.867,-3.8303,-3.8102,-3.7988,-3.7621,-3.7786,-3.812,-3.7753,-3.7092,-3.6395,-3.6395,-3.5514,-3.4472,-3.4472,-3.4156,-3.3807,-3.3807,-3.3807,-3.3715,-3.3366,-3.3275,-3.3028,-3.2104,-3.1274,-3.028,-2.8884,-2.8241,-2.7826,-2.7569,-2.7509,-2.7465,-2.7313,-2.7299,-2.7299,-2.7299,-2.7299,-2.7299,-2.7299,-2.7299,-2.7299,-2.7299,-2.7299,-2.7299,-2.7299,-2.7299,-2.7299,-2.7299,-2.7299,-2.7299,-2.7299,-2.7696,-2.7902,-2.7902,-2.8644,-2.9248,-2.9679,-3.0368,-3.0209,-2.9277,-2.8448,-2.826,-2.8442,-2.6672,-2.6704,-2.7898,-2.6799,-2.6836,-2.7525,-2.7393,-2.7446,-2.7541,-2.7541,-2.7541,-2.7494]},{"header":{"parameterUnit":"m.s-1","parameterCategory":1,"la1":30.6,"la2":28.766,"lo1":-90.7593,"lo2":-88.6598,"dy":0.0162,"dx":0.0183,"nx":116,"ny":114,"refTime":"2024-06-25T06:00:00:Z","depth":0,"parameterNumber":3,"parameterNumberName":"V-component_of_WINDS"},"data":[0.0,0.0,0.0,0.0,0.0,0.0,0.0,0.0,0.0,0.0,0.0,0.0,0.0,0.0,0.0,0.0,0.0,0.0,0.0,0.0,0.0,0.0,0.0,0.0,0.0,0.0,0.0,0.0,0.0,0.0,0.0,0.0,0.0,0.0,0.0,0.0,0.0,0.0,0.0,0.0,0.0,0.0,0.0,0.0,0.0,0.0,0.0,0.0,0.0,0.0,0.0,0.0,0.0,0.0,0.0,0.0,0.0,0.0,0.0,0.0,0.0,0.0,0.0,0.0,0.0,0.0,0.0,0.0,0.0,0.0,0.0,0.0,0.0,0.0,0.0,0.0,0.0,0.0,0.0,0.0,0.0,0.0,0.0,0.0,0.0,0.0,0.0,0.0,0.0,0.0,0.0,0.0,0.0,0.0,0.0,0.0,0.0,0.0,0.0,0.0,0.0,0.0,0.0,0.0,0.0,0.0,0.0,0.0,0.0,0.0,0.0,0.0,0.0,0.0,0.0,0.0,0.0,0.0,0.0,0.0,0.0,0.0,0.0,0.0,0.0,0.0,0.0,0.0,0.0,0.0,0.0,0.0,0.0,0.0,0.0,0.0,0.0,0.0,0.0,0.0,0.0,0.0,0.0,0.0,0.0,0.0,0.0,0.0,0.0,0.0,0.0,0.0,0.0,0.0,0.0,0.0,0.0,0.0,0.0,0.0,0.0,0.0,0.0,0.0,0.0,0.0,0.0,0.0,0.0,0.0,0.0,0.0,0.0,0.0,0.0,0.0,0.0,0.0,0.0,0.0,0.0,0.0,0.0,0.0,0.0,0.0,0.0,0.0,0.0,0.0,0.0,0.0,0.0,0.0,0.0,0.0,0.0,0.0,0.0,0.0,0.0,0.0,0.0,0.0,0.0,0.0,0.0,0.0,0.0,0.0,0.0,0.0,0.0,0.0,0.0,0.0,0.0,0.0,0.0,0.0,0.0,0.0,0.0,0.0,0.0,0.0,0.0,0.0,0.0,0.0,0.0,0.0,0.0,0.0,0.0,0.0,0.0,0.0,0.0,0.0,0.0,0.0,0.0,0.0,0.0,0.0,0.0,0.0,0.0,0.0,0.0,0.0,0.0,0.0,0.0,0.0,0.0,0.0,0.0,0.0,0.0,0.0,0.0,0.0,0.0,0.0,0.0,0.0,0.0,0.0,0.0,0.0,0.0,0.0,0.0,0.0,0.0,0.0,0.0,0.0,0.0,0.0,0.0,0.0,0.0,0.0,0.0,0.0,0.0,0.0,0.0,0.0,0.0,0.0,0.0,0.0,0.0,0.0,0.0,0.0,0.0,0.0,0.0,0.0,0.0,0.0,0.0,0.0,0.0,0.0,0.0,0.0,0.0,0.0,0.0,0.0,0.0,0.0,0.0,0.0,0.0,0.0,0.0,0.0,0.0,0.0,0.0,0.0,0.0,0.0,0.0,0.0,0.0,0.0,0.0,0.0,0.0,0.0,0.0,0.0,0.0,0.0,0.0,0.0,0.0,0.0,0.0,0.0,0.0,0.0,0.0,0.0,0.0,0.0,0.0,0.0,0.0,0.0,0.0,0.0,0.0,0.0,0.0,0.0,0.0,0.0,0.0,0.0,0.0,0.0,0.0,0.0,0.0,0.0,0.0,0.0,0.0,0.0,0.0,0.0,0.0,0.0,0.0,0.0,0.0,0.0,0.0,0.0,0.0,0.0,0.0,0.0,0.0,0.0,0.0,0.0,0.0,0.0,0.0,0.0,0.0,0.0,0.0,0.0,0.0,0.0,0.0,0.0,0.0,0.0,0.0,0.0,0.0,0.0,0.0,0.0,0.0,0.0,0.0,0.0,0.0,0.0,0.0,0.0,0.0,0.0,0.0,0.0,0.0,0.0,0.0,0.0,0.0,0.0,0.0,0.0,0.0,0.0,0.0,0.0,0.0,0.0,0.0,0.0,0.0,0.0,0.0,0.0,0.0,0.0,0.0,0.0,0.0,0.0,0.0,0.0,0.0,0.0,0.0,0.0,0.0,0.0,0.0,0.0,0.0,0.0,0.0,0.0,0.0,0.0,0.0,0.0,0.0,0.0,0.0,0.0,0.0,0.0,0.0,0.0,0.0,0.0,0.0,0.0,0.0,0.0,0.0,0.0,0.0,0.0,0.0,0.0,0.0,0.0,0.0,0.0,0.0,0.0,0.0,0.0,0.0,0.0,0.0,0.0,0.0,0.0,0.0,0.0,0.0,0.0,0.0,0.0,0.0,0.0,0.0,0.0,0.0,0.0,0.0,0.0,0.0,0.0,0.0,0.0,0.0,0.0,0.0,0.0,0.0,0.0,0.0,0.0,0.0,0.0,0.0,0.0,0.0,0.0,0.0,0.0,0.0,0.0,0.0,0.0,0.0,0.0,0.0,0.0,0.0,0.0,0.0,0.0,0.0,0.0,0.0,0.0,0.0,0.0,0.0,0.0,0.0,0.0,0.0,0.0,0.0,0.0,0.0,0.0,0.0,0.0,0.0,0.0,0.0,0.0,0.0,0.0,0.0,0.0,0.0,0.0,0.0,0.0,0.0,0.0,0.0,0.0,0.0,0.0,0.0,0.0,0.0,0.0,0.0,0.0,0.0,0.0,0.0,0.0,0.0,0.0,0.0,0.0,0.0,0.0,0.0,0.0,0.0,0.0,0.0,0.0,0.0,0.0,0.0,0.0,0.0,0.0,0.0,0.0,0.0,0.0,0.0,0.0,0.0,0.0,0.0,0.0,0.0,0.0,0.0,0.0,0.0,0.0,0.0,0.0,0.0,0.0,0.0,0.0,0.0,0.0,0.0,0.0,0.0,0.0,0.0,0.0,0.0,0.0,0.0,0.0,0.0,0.0,0.0,0.0,0.0,0.0,0.0,0.0,0.0,0.0,0.0,0.0,0.0,0.0,0.0,0.0,0.0,0.0,0.0,0.0,0.0,0.0,0.0,0.0,0.0,0.0,0.0,0.0,0.0,0.0,0.0,0.0,0.0,0.0,0.0,0.0,0.0,0.0,0.0,0.0,0.0,0.0,0.0,0.0,0.0,0.0,0.0,0.0,0.0,0.0,0.0,0.0,0.0,0.0,0.0,0.0,0.0,0.0,0.0,0.0,0.0,0.0,0.0,0.0,0.0,0.0,0.0,0.0,0.0,0.0,0.0,0.0,0.0,0.0,0.0,0.0,0.0,0.0,0.0,0.0,0.0,0.0,0.0,0.0,0.0,0.0,0.0,0.0,0.0,0.0,0.0,0.0,0.0,0.0,0.0,0.0,0.0,0.0,0.0,0.0,0.0,0.0,0.0,0.0,0.0,0.0,0.0,0.0,0.0,0.0,0.0,0.0,0.0,0.0,0.0,0.0,0.0,0.0,0.0,0.0,0.0,0.0,0.0,0.0,0.0,0.0,0.0,0.0,0.0,0.0,0.0,0.0,0.0,0.0,0.0,0.0,0.0,0.0,0.0,0.0,0.0,0.0,0.0,0.0,0.0,0.0,0.0,0.0,0.0,0.0,0.0,0.0,0.0,0.0,0.0,0.0,0.0,0.0,0.0,0.0,0.0,0.0,0.0,0.0,0.0,0.0,0.0,0.0,0.0,0.0,0.0,0.0,0.0,0.0,0.0,0.0,0.0,0.0,0.0,0.0,0.0,0.0,0.0,0.0,0.0,0.0,0.0,0.0,0.0,0.0,0.0,0.0,0.0,0.0,0.0,0.0,0.0,0.0,0.0,0.0,0.0,0.0,0.0,0.0,0.0,0.0,0.0,0.0,0.0,0.0,0.0,0.0,0.0,0.0,0.0,0.0,0.0,0.0,0.0,0.0,0.0,0.0,0.0,0.0,0.0,0.0,0.0,0.0,0.0,0.0,0.0,0.0,0.0,0.0,0.0,0.0,0.0,0.0,0.0,0.0,0.0,0.0,0.0,0.0,0.0,0.0,0.0,0.0,0.0,0.0,0.0,0.0,0.0,0.0,0.0,0.0,0.0,0.0,0.0,0.0,0.0,0.0,0.0,0.0,0.0,0.0,0.0,0.0,0.0,0.0,0.0,0.0,0.0,0.0,0.0,0.0,0.0,0.0,0.0,0.0,0.0,0.0,0.0,0.0,0.0,0.0,0.0,0.0,0.0,0.0,0.0,0.0,0.0,0.0,0.0,0.0,0.0,0.0,0.0,0.0,0.0,0.0,0.0,0.0,0.0,0.0,0.0,0.0,0.0,0.0,0.0,0.0,0.0,0.0,0.0,0.0,0.0,0.0,0.0,0.0,0.0,0.0,0.0,0.0,0.0,0.0,0.0,0.0,0.0,0.0,0.0,0.0,0.0,0.0,0.0,0.0,0.0,0.0,0.0,0.0,0.0,0.0,0.0,0.0,0.0,0.0,0.0,0.0,0.0,0.0,0.0,0.0,0.0,0.0,0.0,0.0,0.0,0.0,0.0,0.0,0.0,0.0,0.0,0.0,0.0,0.0,0.0,0.0,0.0,0.0,0.0,0.0,0.0,0.0,0.0,0.0,0.0,0.0,0.0,0.0,0.0,0.0,0.0,0.0,0.0,0.0,0.0,0.0,0.0,0.0,0.0,0.0,0.0,0.0,0.0,0.0,0.0,0.0,0.0,0.0,0.0,0.0,0.0,0.0,0.0,0.0,0.0,0.0,0.0,0.0,0.0,0.0,0.0,0.0,0.0,0.0,0.0,0.0,0.0,0.0,0.0,0.0,0.0,0.0,0.0,0.0,0.0,0.0,0.0,0.0,0.0,0.0,0.0,0.0,0.0,0.0,0.0,0.0,0.0,0.0,0.0,0.0,0.0,0.0,0.0,0.0,0.0,0.0,0.0,0.0,0.0,0.0,0.0,0.0,0.0,0.0,0.0,0.0,0.0,0.0,0.0,0.0,0.0,0.0,0.0,0.0,0.0,0.0,0.0,0.0,0.0,0.0,0.0,0.0,0.0,0.0,0.0,0.0,0.0,0.0,0.0,0.0,0.0,0.0,0.0,0.0,0.0,0.0,0.0,0.0,0.0,0.0,0.0,0.0,0.0,0.0,0.0,0.0,0.0,0.0,0.0,0.0,0.0,0.0,0.0,0.0,0.0,0.0,0.0,0.0,0.0,0.0,0.0,0.0,0.0,0.0,0.0,0.0,0.0,0.0,0.0,0.0,0.0,0.0,0.0,0.0,0.0,0.0,0.0,0.0,0.0,0.0,0.0,0.0,0.0,0.0,0.0,0.0,0.0,0.0,0.0,0.0,0.0,0.0,0.0,0.0,0.0,0.0,0.0,0.0,0.0,0.0,0.0,0.0,0.0,0.0,0.0,0.0,0.0,0.0,0.0,0.0,0.0,0.0,0.0,0.0,0.0,0.0,0.0,0.0,0.0,0.0,0.0,0.0,0.0,0.0,0.0,0.0,0.0,0.0,0.0,0.0,0.0,0.0,0.0,0.0,0.0,0.0,0.0,0.0,0.0,0.0,0.0,0.0,0.0,0.0,0.0,0.0,0.0,0.0,0.0,0.0,0.0,0.0,0.0,0.0,0.0,0.0,0.0,0.0,0.0,0.0,0.0,0.0,0.0,0.0,0.0,0.0,0.0,0.0,0.0,0.0,0.0,0.0,0.0,0.0,0.0,0.0,0.0,0.0,0.0,0.0,0.0,0.0,0.0,0.0,0.0,0.0,0.0,0.0,0.0,0.0,0.0,0.0,0.0,0.0,0.0,0.0,0.0,0.0,0.0,0.0,0.0,0.0,0.0,0.0,0.0,0.0,0.0,0.0,0.0,0.0,0.0,0.0,0.0,0.0,0.0,0.0,0.0,0.0,0.0,0.0,0.0,0.0,0.0,0.0,0.0,0.0,0.0,0.0,0.0,0.0,0.0,0.0,0.0,0.0,0.0,0.0,0.0,0.0,0.0,0.0,0.0,0.0,0.0,0.0,0.0,0.0,0.0,0.0,0.0,0.0,0.0,0.0,0.0,0.0,0.0,0.0,0.0,0.0,0.0,0.0,0.0,0.0,0.0,0.0,0.0,0.0,0.0,0.0,0.0,0.0,0.0,0.0,0.0,0.0,0.0,0.0,0.0,0.0,-2.0639,0.0,0.0,0.0,0.0,0.0,0.0,0.0,0.0,0.0,0.0,0.0,0.0,0.0,0.0,0.0,0.0,0.0,0.0,0.0,0.0,0.0,0.0,0.0,0.0,-1.3012,-1.2538,-1.2321,-1.207,-1.1877,-1.1803,0.0,0.0,0.0,0.0,0.0,-1.26,-1.2814,-1.2848,-1.2757,-1.2757,-1.2757,-1.2774,-1.318,-1.348,-1.3633,0.0,0.0,0.0,0.0,0.0,0.0,0.0,0.0,0.0,0.0,0.0,0.0,0.0,0.0,0.0,0.0,0.0,0.0,0.0,0.0,0.0,0.0,0.0,0.0,0.0,0.0,0.0,0.0,0.0,0.0,0.0,0.0,0.0,0.0,0.0,0.0,0.0,0.0,0.0,0.0,0.0,0.0,0.0,0.0,0.0,0.0,0.0,0.0,0.0,0.0,0.0,0.0,0.0,0.0,0.0,0.0,0.0,0.0,0.0,0.0,0.0,0.0,0.0,0.0,0.0,0.0,0.0,0.0,0.0,0.0,0.0,-2.1096,0.0,0.0,0.0,0.0,0.0,0.0,0.0,0.0,0.0,0.0,0.0,0.0,0.0,0.0,0.0,0.0,0.0,0.0,0.0,0.0,0.0,-1.1865,-1.3122,-1.275,-1.2246,-1.1904,-1.1753,-1.1694,-1.1678,0.0,0.0,0.0,0.0,-1.1878,-1.1965,-1.2289,-1.2419,-1.2356,-1.2295,-1.226,-1.226,-1.2152,-1.2242,0.0,-1.276,0.0,0.0,0.0,0.0,0.0,0.0,0.0,0.0,0.0,0.0,0.0,0.0,0.0,0.0,0.0,0.0,0.0,0.0,0.0,0.0,0.0,0.0,0.0,0.0,0.0,0.0,0.0,0.0,0.0,0.0,0.0,0.0,0.0,0.0,0.0,0.0,0.0,0.0,0.0,0.0,0.0,0.0,0.0,0.0,0.0,0.0,0.0,0.0,0.0,0.0,0.0,0.0,0.0,0.0,0.0,0.0,0.0,0.0,0.0,0.0,0.0,0.0,0.0,-2.1522,-2.1696,-2.1696,-2.1696,-2.1696,-2.1668,-2.1374,-2.1551,-2.2069,-2.1845,0.0,0.0,0.0,0.0,0.0,0.0,0.0,0.0,0.0,0.0,0.0,0.0,0.0,0.0,0.0,0.0,0.0,0.0,0.0,-1.1544,-1.296,-1.2426,-1.1906,-1.1728,-1.1694,-1.1644,-1.1519,0.0,0.0,0.0,-1.0177,-1.0174,-1.0655,-1.0695,-1.0977,-1.1473,-1.1121,-1.0942,-1.0942,0.0,0.0,0.0,-1.2148,-1.2831,0.0,0.0,0.0,0.0,0.0,0.0,0.0,0.0,0.0,0.0,0.0,0.0,0.0,0.0,0.0,0.0,0.0,0.0,0.0,0.0,0.0,0.0,0.0,0.0,0.0,0.0,0.0,0.0,0.0,0.0,0.0,0.0,0.0,0.0,0.0,0.0,0.0,0.0,0.0,0.0,0.0,0.0,-1.6586,-1.7018,0.0,0.0,0.0,0.0,0.0,0.0,0.0,0.0,0.0,0.0,0.0,0.0,0.0,-2.1209,-2.1531,-2.1577,-2.1604,-2.1604,-2.1668,-2.1696,-2.1696,-2.1696,-2.1696,-2.1687,-2.1632,0.0,-2.2141,-2.2473,0.0,0.0,0.0,0.0,0.0,0.0,0.0,0.0,0.0,0.0,0.0,0.0,0.0,0.0,0.0,0.0,0.0,0.0,0.0,0.0,0.0,-1.2109,-1.1644,-1.1594,-1.1528,-1.1318,0.0,0.0,0.0,-0.995,-1.0002,-1.0164,-1.0403,-1.0735,-1.104,-1.1301,-1.0908,-1.0704,0.0,0.0,0.0,0.0,-1.1283,-1.1877,0.0,0.0,0.0,0.0,0.0,0.0,0.0,0.0,0.0,0.0,0.0,0.0,0.0,0.0,0.0,0.0,0.0,0.0,0.0,0.0,0.0,0.0,0.0,0.0,0.0,0.0,0.0,0.0,0.0,0.0,0.0,0.0,0.0,0.0,0.0,0.0,0.0,0.0,0.0,0.0,0.0,-1.6757,-1.7506,-1.7688,-1.8013,-1.81,0.0,0.0,0.0,0.0,0.0,0.0,0.0,0.0,0.0,-2.1089,-2.1108,-2.131,-2.1687,-2.1696,-2.1696,-2.1696,-2.1696,-2.1696,-2.1696,-2.1696,-2.1785,-2.1919,-2.2043,-2.252,-2.3246,-2.3333,-2.3667,-2.4196,0.0,0.0,0.0,0.0,-2.6,-2.6281,0.0,0.0,0.0,0.0,0.0,0.0,0.0,0.0,0.0,0.0,0.0,0.0,-1.2366,-1.1857,-1.1502,-1.1444,0.0,0.0,0.0,0.0,0.0,-0.971,-0.988,-1.0095,-1.0293,-1.0964,-1.125,0.0,0.0,0.0,0.0,0.0,0.0,0.0,0.0,0.0,0.0,0.0,0.0,0.0,0.0,0.0,0.0,0.0,0.0,0.0,0.0,0.0,0.0,0.0,0.0,0.0,0.0,0.0,0.0,0.0,0.0,0.0,0.0,0.0,0.0,0.0,0.0,0.0,0.0,0.0,0.0,0.0,0.0,0.0,0.0,0.0,0.0,0.0,0.0,0.0,0.0,-1.745,-1.8164,-1.8365,-1.8944,-1.9024,0.0,0.0,0.0,0.0,0.0,0.0,-2.0631,-2.0726,-2.0973,-2.141,-2.152,-2.1687,-2.1998,-2.1897,-2.1842,-2.1842,-2.1742,-2.1696,-2.1696,-2.1696,-2.183,-2.2097,-2.2476,-2.3193,-2.4092,-2.4006,-2.4569,-2.5455,-2.5828,-2.6021,-2.6132,-2.6559,-2.6999,-2.7358,0.0,0.0,0.0,0.0,0.0,0.0,0.0,0.0,0.0,0.0,0.0,-1.1955,0.0,0.0,0.0,0.0,0.0,0.0,0.0,0.0,0.0,-0.9987,-0.9263,-0.9237,-0.9987,-1.0854,0.0,0.0,0.0,0.0,0.0,0.0,0.0,0.0,0.0,0.0,0.0,0.0,0.0,0.0,0.0,0.0,0.0,0.0,0.0,0.0,0.0,0.0,0.0,0.0,0.0,0.0,0.0,0.0,0.0,0.0,0.0,0.0,0.0,0.0,0.0,0.0,0.0,0.0,0.0,0.0,0.0,0.0,0.0,0.0,0.0,0.0,0.0,0.0,0.0,0.0,0.0,0.0,0.0,-1.9155,-1.9274,0.0,0.0,0.0,0.0,-1.9857,-2.0204,-2.064,-2.1053,-2.1412,-2.1806,-2.2254,-2.2611,-2.2821,-2.2849,-2.2446,-2.2245,-2.2245,-2.187,-2.1696,-2.1696,-2.1696,-2.183,-2.2141,-2.2974,-2.3651,-2.4135,-2.436,-2.5205,-2.6337,-2.6354,-2.6578,-2.6916,-2.7421,-2.7663,-2.7747,0.0,0.0,0.0,-1.0363,-1.0218,-1.0279,-1.048,-1.1164,-1.1685,-1.1712,-1.2205,0.0,0.0,0.0,0.0,0.0,0.0,0.0,0.0,0.0,-0.9477,-0.8863,-0.9152,-0.9621,-1.03,-1.0641,-1.0614,0.0,0.0,0.0,0.0,0.0,0.0,0.0,0.0,0.0,0.0,0.0,0.0,0.0,0.0,0.0,0.0,0.0,0.0,0.0,0.0,0.0,0.0,0.0,0.0,0.0,0.0,0.0,0.0,0.0,0.0,0.0,0.0,0.0,0.0,0.0,0.0,0.0,0.0,0.0,0.0,0.0,0.0,0.0,0.0,0.0,0.0,0.0,0.0,0.0,0.0,0.0,0.0,-1.96,-1.9925,0.0,-2.0081,-2.0218,-2.0369,-2.0668,-2.0585,-2.0814,-2.1431,-2.1604,-2.187,-2.2272,-2.2684,-2.2904,-2.2904,-2.2492,-2.2282,-2.2318,-2.1879,-2.1696,-2.1696,-2.1696,-2.2167,-2.3038,-2.3454,-2.45,-2.585,-2.6121,-2.6498,-2.695,-2.7535,-2.7826,-2.793,-2.8122,-2.8222,-2.8258,-1.1777,-1.1155,0.0,-1.0067,-0.9961,-1.0096,-1.0625,-1.1384,-1.1835,-1.1648,-1.2252,-1.2378,0.0,0.0,0.0,0.0,0.0,0.0,0.0,0.0,-0.9472,-0.8824,-0.9387,-0.9906,-1.0308,-1.0326,0.0,0.0,0.0,0.0,0.0,0.0,0.0,0.0,0.0,0.0,0.0,0.0,0.0,0.0,0.0,0.0,-1.5285,0.0,0.0,0.0,0.0,0.0,0.0,0.0,0.0,0.0,0.0,0.0,0.0,0.0,0.0,0.0,0.0,0.0,0.0,0.0,0.0,0.0,0.0,0.0,0.0,0.0,0.0,0.0,0.0,0.0,0.0,0.0,0.0,0.0,0.0,0.0,-1.9256,-1.9668,-2.0149,-2.0521,-2.0521,-2.0769,-2.0979,-2.1099,-2.0869,-2.0952,-2.1449,-2.1742,-2.2071,-2.2474,-2.307,-2.3354,-2.3354,-2.2767,-2.2492,-2.2483,-2.1952,-2.1696,-2.1687,-2.2033,-2.2677,-2.3627,-2.4382,-2.5568,-2.6946,-2.7429,-2.7644,-2.7684,-2.8259,-2.851,-2.851,-2.851,-2.851,-2.851,-1.0992,-1.0486,-1.0088,-1.0,-0.9891,-1.0199,-1.1329,-1.1498,-1.1695,-1.2235,-1.2307,0.0,0.0,0.0,0.0,0.0,0.0,0.0,0.0,-1.018,-0.9999,-0.9999,-0.9973,-0.9973,-0.9999,0.0,0.0,0.0,0.0,0.0,0.0,0.0,0.0,0.0,0.0,0.0,0.0,0.0,0.0,0.0,0.0,0.0,-1.5635,0.0,0.0,0.0,0.0,0.0,0.0,0.0,0.0,0.0,0.0,0.0,0.0,0.0,0.0,0.0,0.0,0.0,0.0,0.0,0.0,0.0,0.0,0.0,0.0,0.0,0.0,0.0,0.0,0.0,0.0,0.0,0.0,0.0,-1.866,-1.8724,-1.888,-1.9292,-2.0035,-2.0479,-2.0539,-2.1211,-2.1495,-2.1117,-2.1071,-2.108,-2.1108,-2.186,-2.2437,-2.2876,-2.3712,-2.4183,-2.4183,-2.3336,-2.2895,-2.2895,-2.2053,-2.1659,-2.1713,-2.2639,-2.3317,-2.3879,-2.5681,-2.6737,-2.7261,-2.8091,-2.8462,-2.8462,-2.8498,-2.851,-2.851,-2.851,-2.851,-2.851,-1.1404,-1.0905,-1.0418,-1.0059,-1.0126,-1.0514,-1.1366,-1.1752,-1.2029,-1.2271,-1.2307,0.0,0.0,0.0,0.0,0.0,0.0,0.0,-1.0128,0.0,-0.9725,-0.9725,-0.942,0.0,0.0,0.0,0.0,0.0,0.0,0.0,0.0,0.0,0.0,0.0,0.0,0.0,0.0,0.0,0.0,0.0,0.0,0.0,-1.5558,0.0,0.0,0.0,0.0,0.0,0.0,0.0,0.0,0.0,0.0,0.0,0.0,0.0,0.0,0.0,0.0,0.0,0.0,0.0,0.0,0.0,0.0,0.0,0.0,0.0,0.0,0.0,0.0,0.0,0.0,0.0,0.0,-1.8586,-1.8696,-1.8962,-1.9402,-2.0099,-2.0383,-2.0631,-2.0924,-2.1145,-2.1117,-2.0714,-2.0378,-2.0461,-2.1071,-2.1319,-2.1768,-2.2428,-2.3242,-2.3712,-2.3712,-2.2858,-2.2602,-2.2895,-2.1476,-2.0955,-2.1273,-2.1999,-2.2732,-2.3607,-2.497,-2.6032,-2.6806,-2.7165,-2.733,-2.7402,-2.821,-2.851,-2.851,-2.851,-2.851,-2.851,-1.1571,-1.1075,-1.0553,-1.0078,-1.036,-1.0847,-1.1412,-1.1853,-1.2157,-1.228,-1.2165,0.0,0.0,0.0,0.0,0.0,0.0,0.0,-0.9675,-0.9625,-0.9588,0.0,0.0,0.0,0.0,0.0,0.0,0.0,0.0,0.0,0.0,0.0,0.0,0.0,0.0,0.0,0.0,0.0,0.0,0.0,0.0,0.0,-1.6022,-1.6284,-1.6392,-1.6436,-1.6565,-1.6534,-1.6414,-1.6414,0.0,0.0,0.0,0.0,0.0,0.0,0.0,0.0,0.0,0.0,0.0,0.0,0.0,0.0,0.0,0.0,0.0,0.0,0.0,0.0,0.0,0.0,0.0,0.0,-1.8293,-1.877,-1.8935,-1.9155,-1.9476,-1.9952,-2.031,-2.0549,-2.0613,-2.0915,-2.0879,-2.0278,-2.0177,-2.0374,-2.0833,-2.1181,-2.1658,-2.2254,-2.2913,-2.3251,-2.3251,-2.2437,-2.2153,-2.2382,-2.1463,-2.116,-2.1504,-2.2512,-2.3412,-2.4219,-2.5221,-2.6053,-2.6735,-2.686,-2.6898,0.0,0.0,0.0,0.0,0.0,-2.851,-2.851,-1.1908,-1.1384,-1.0882,-1.0466,-1.0815,-1.126,-1.1651,-1.1972,-1.222,-1.2351,0.0,0.0,0.0,0.0,0.0,0.0,0.0,0.0,0.0,0.0,0.0,0.0,0.0,0.0,0.0,0.0,0.0,0.0,0.0,0.0,0.0,0.0,0.0,0.0,0.0,0.0,0.0,0.0,0.0,0.0,0.0,0.0,-1.6697,-1.6825,-1.6918,-1.7023,-1.7136,-1.701,-1.6765,-1.6765,0.0,0.0,0.0,0.0,0.0,0.0,0.0,0.0,0.0,0.0,0.0,0.0,0.0,0.0,0.0,0.0,0.0,0.0,0.0,0.0,0.0,0.0,0.0,0.0,-1.8495,-1.8898,-1.9256,-1.9301,-1.932,-1.9366,-2.0008,-2.0278,-1.9921,-2.0567,-2.0668,-1.9875,-2.0228,-2.0466,-2.0521,0.0,0.0,0.0,0.0,-2.2831,-2.2831,-2.2025,-2.165,-2.1678,-2.1499,-2.1588,-2.1955,-2.3395,-2.442,-2.5041,-2.5841,-2.6394,-2.6717,-2.6717,-2.6717,-2.6729,-2.691,-2.727,-2.775,-2.8318,-2.851,-2.851,-1.3923,-1.3364,-1.2913,-1.2759,-1.2358,-1.2243,-1.2863,-1.2744,-1.2621,-1.277,-1.1881,0.0,0.0,0.0,0.0,0.0,0.0,0.0,0.0,0.0,0.0,0.0,0.0,0.0,0.0,0.0,0.0,0.0,0.0,0.0,0.0,0.0,0.0,0.0,0.0,0.0,0.0,0.0,0.0,0.0,0.0,0.0,-1.6697,-1.6718,-1.6846,-1.7002,-1.7044,-1.7086,-1.7094,-1.7094,-1.7094,-1.7094,-1.7094,0.0,0.0,0.0,0.0,0.0,0.0,0.0,0.0,0.0,0.0,0.0,0.0,0.0,0.0,0.0,0.0,0.0,0.0,0.0,0.0,-1.8063,-1.8724,-1.9219,-1.9292,-1.9301,-1.943,-1.9769,-1.9902,-1.9976,-1.9893,-2.0031,-1.9912,-1.9457,-1.9774,-2.014,-2.0461,-2.097,-2.142,-2.1797,-2.219,-2.24,-2.24,-2.164,-2.1401,-2.1678,0.0,0.0,-2.1319,-2.2237,-2.3096,-2.388,-2.5013,-2.5541,-2.5624,-2.5624,-2.5624,-2.5757,-2.7018,-2.7594,-2.775,-2.8318,-2.851,-2.851,-1.6279,-1.5246,-1.4159,-1.3592,-1.3477,-1.3368,-1.3133,-1.3037,-1.2904,-1.2618,-1.1907,0.0,0.0,0.0,0.0,0.0,0.0,0.0,0.0,0.0,0.0,0.0,0.0,0.0,0.0,0.0,0.0,0.0,0.0,0.0,0.0,0.0,0.0,0.0,0.0,0.0,0.0,0.0,0.0,0.0,0.0,0.0,-1.6803,-1.6803,-1.6876,-1.7002,-1.7073,-1.7136,-1.7199,-1.7199,-1.7199,-1.7199,-1.7199,-1.7476,-1.7746,0.0,0.0,0.0,0.0,0.0,0.0,0.0,0.0,0.0,0.0,0.0,0.0,0.0,0.0,-1.8067,-1.7572,0.0,-1.8009,-1.8614,-1.888,-1.9072,-1.9274,-1.9301,-1.9375,-1.9595,-1.9756,-1.9802,-1.9641,-1.9765,-1.9719,-1.9329,-1.9655,-2.0058,-2.0493,-2.0897,-2.13,-2.1678,-2.1879,-2.1888,-2.1713,-2.1117,-2.0824,-2.0772,-2.0192,-2.0479,-2.1563,-2.2305,-2.3254,-2.4312,-2.4814,-2.5147,-2.5312,-2.5312,-2.5312,-2.542,-2.649,-2.6911,-2.6971,-2.7486,-2.7678,-2.7755,-1.8253,-1.7048,-1.56,-1.4476,-1.4455,-1.432,-1.3455,-1.3242,-1.3004,-1.2553,-1.1966,-1.1374,-1.0802,-1.0316,-0.989,0.0,0.0,0.0,0.0,0.0,0.0,0.0,0.0,0.0,0.0,0.0,0.0,0.0,0.0,0.0,0.0,0.0,0.0,0.0,0.0,0.0,0.0,0.0,0.0,0.0,0.0,0.0,-1.6897,-1.6981,-1.7044,-1.7065,-1.724,-1.7261,-1.7199,-1.7199,-1.7199,-1.7199,-1.7199,-1.7617,-1.81,-1.81,-1.829,0.0,0.0,0.0,0.0,0.0,0.0,0.0,0.0,0.0,-1.9408,-1.8892,-1.8576,-1.8398,-1.8471,-1.8064,-1.8054,-1.9026,-1.899,-1.8935,-1.9256,-1.9301,-1.9274,-1.9191,-1.9558,-1.9677,-1.9329,-1.9613,-1.9668,-1.9329,-1.9655,-2.0031,-2.0383,-2.0778,-2.1145,-2.1449,-2.1458,-2.1293,-2.0998,-2.0594,-2.0204,-1.9884,-2.0329,-2.1029,-2.2,-2.2708,-2.3765,-2.4981,-2.4885,-2.5016,-2.5312,-2.5312,-2.5312,-2.5348,-2.5781,-2.5949,-2.6021,-2.6645,-2.6998,-2.7223,-1.8806,-1.8732,-1.8185,-1.6919,-1.5552,-1.4637,-1.4753,-1.363,-1.2848,-1.3077,-1.1963,-1.1083,-1.0896,-1.0411,-1.0016,-0.9867,0.0,0.0,0.0,0.0,0.0,0.0,0.0,0.0,0.0,0.0,0.0,0.0,0.0,0.0,0.0,0.0,0.0,0.0,0.0,0.0,0.0,0.0,0.0,0.0,0.0,0.0,-1.6939,-1.7303,-1.7344,-1.722,-1.7537,-1.7455,-1.7199,-1.7199,-1.7199,-1.7199,-1.7199,-1.7617,-1.81,-1.81,0.0,-1.8773,-1.8484,-1.8167,-1.8027,-1.8448,-1.8375,-1.8421,0.0,0.0,-1.9444,-1.8564,-1.8942,-1.9053,-1.7848,-1.8146,-1.8623,-1.876,-1.9036,-1.9256,-1.9292,-1.9301,-1.9173,-1.8815,-1.9127,-1.9356,-1.9301,-1.9347,-1.9356,-1.9301,-1.9655,-1.9912,-1.9948,-2.0365,-2.0604,-2.0649,-2.0616,-2.0631,-2.0585,-2.0149,-1.993,-1.9884,-2.0329,-2.0952,-2.1869,-2.2809,-2.3754,-2.4598,-2.4909,-2.5147,-2.5312,-2.5312,-2.5312,-2.5312,-2.5372,-2.5396,-2.5516,-2.6513,-2.7322,-2.7889,-1.8977,-1.8987,-1.8644,-1.7492,-1.6521,-1.5662,-1.4889,-1.4094,-1.3515,-1.3333,-1.2672,-1.2163,-1.2018,-1.1487,-1.1042,-1.0788,-1.1044,0.0,0.0,0.0,0.0,0.0,0.0,0.0,0.0,0.0,0.0,0.0,0.0,0.0,0.0,0.0,0.0,0.0,0.0,0.0,0.0,0.0,0.0,0.0,0.0,0.0,-1.6939,-1.7352,-1.7372,-1.7282,-1.7928,-1.776,0.0,0.0,-1.7393,-1.7199,-1.7199,-1.7617,-1.81,-1.81,-1.8479,0.0,-1.8202,-1.8842,0.0,0.0,-1.8726,-1.9384,-1.9264,-1.9688,-1.9855,-1.8997,-1.9043,-1.9069,-1.8466,-1.8351,-1.8484,0.0,-1.9191,-1.9219,-1.899,-1.8962,-1.8815,-1.8421,-1.8715,-1.8962,-1.8962,-1.9164,-1.9301,-1.9301,-1.9467,-1.9628,-1.9875,-2.0049,-2.0241,-2.047,-2.0521,-2.0411,-2.0131,-1.9966,-2.0009,-2.0267,-2.043,-2.1193,-2.2494,-2.2942,-2.3618,-2.4526,-2.4909,-2.5111,-2.5182,-2.5276,-2.5312,-2.5312,-2.5312,-2.5312,-2.536,-2.5781,-2.6442,-2.714,-1.8987,-1.8987,-1.871,-1.7796,-1.7398,-1.6675,-1.509,-1.438,-1.3958,-1.3699,-1.329,-1.2919,-1.2735,-1.2246,-1.1816,-1.1591,-1.19,-1.2141,0.0,0.0,0.0,0.0,0.0,0.0,0.0,0.0,0.0,0.0,0.0,0.0,0.0,0.0,0.0,0.0,0.0,0.0,0.0,0.0,0.0,0.0,0.0,0.0,-1.7454,-1.7697,-1.7644,-1.7526,-1.8097,-1.7828,0.0,0.0,-1.7434,-1.7199,-1.7199,-1.7499,-1.7878,-1.8048,-1.8597,-1.9019,-1.8381,0.0,0.0,-1.8236,-1.8774,-1.9602,-1.9034,-1.9459,-1.9716,-1.8746,-1.8701,-1.8728,-1.8485,-1.8154,-1.821,-1.9008,-1.9045,-1.8916,-1.8742,-1.8423,-1.8089,-1.7773,-1.8125,-1.8398,-1.8359,-1.8906,-1.9301,-1.9301,-1.9301,-1.943,-1.9701,-1.9719,-1.9888,-2.0173,-2.0182,-2.0044,-1.976,-1.9719,-1.9996,-2.0498,-2.0731,-2.1614,-2.3001,-2.3224,-2.3751,-2.4538,-2.4802,-2.5016,-2.5111,-2.5218,-2.5276,-2.5312,-2.5312,-2.5312,-2.5312,-2.5511,-2.607,-2.6812,-1.8987,-1.8987,-1.8819,-1.8277,-1.8054,-1.7405,-1.5727,-1.443,-1.3797,-1.4303,-1.3566,-1.288,-1.2544,-1.2187,-1.1987,-1.1987,-1.2113,-1.2246,-1.2389,-1.2827,0.0,0.0,0.0,0.0,0.0,0.0,0.0,0.0,0.0,0.0,0.0,0.0,0.0,0.0,0.0,0.0,0.0,0.0,0.0,0.0,0.0,0.0,-1.8731,-1.8552,-1.8296,-1.8061,-1.7894,0.0,0.0,0.0,-1.722,-1.7199,-1.7199,-1.7212,0.0,-1.7931,-1.8898,0.0,0.0,0.0,-1.9326,-1.8866,-1.846,-1.8306,-1.8793,-1.8919,-1.8577,-1.7252,-1.7678,-1.8029,-1.7129,-1.7257,-1.7779,-1.8595,-1.8412,-1.8255,-1.866,-1.7761,-1.6985,-1.6863,-1.7304,-1.7566,0.0,-1.8592,-1.9301,-1.9301,-1.9301,-1.9311,-1.932,-1.932,-1.9329,-1.9338,-1.9338,-1.9329,-1.932,-1.932,-1.9706,-2.0498,-2.1375,-2.2193,-2.3038,-2.3824,-2.4309,-2.449,-2.449,-2.4742,-2.5123,-2.5123,-2.5182,-2.5312,-2.5312,-2.5312,-2.5382,-2.6104,-2.6845,-2.7571,-1.853,-1.847,-1.8193,-1.7279,-1.7027,-1.6622,-1.5643,-1.536,-1.5159,-1.4902,-1.4316,0.0,0.0,0.0,0.0,0.0,-1.2895,-1.2871,-1.2943,-1.3074,0.0,0.0,0.0,0.0,0.0,0.0,0.0,0.0,0.0,0.0,0.0,0.0,0.0,0.0,0.0,0.0,0.0,0.0,0.0,0.0,0.0,0.0,-1.8799,-1.8728,-1.8436,-1.8096,0.0,0.0,0.0,0.0,0.0,0.0,-1.7199,0.0,0.0,-1.7917,0.0,-1.8595,0.0,0.0,-1.8557,-1.7457,-1.741,-1.7588,-1.7427,-1.7645,-1.7659,-1.6818,-1.7042,-1.7337,-1.7115,-1.7101,-1.7458,-1.854,-1.8347,-1.8228,-1.866,-1.7638,-1.6863,-1.6826,-1.6677,0.0,0.0,0.0,0.0,-1.9301,-1.9301,-1.9301,-1.9301,-1.9301,-1.9301,-1.9301,-1.9301,-1.9301,-1.9301,-1.9301,-1.9991,-2.1385,-2.2745,-2.3545,-2.3824,-2.408,-2.4309,-2.4502,-2.4646,-2.4849,-2.5111,-2.5218,-2.5276,-2.5312,-2.5312,-2.5312,-2.5441,-2.6676,-2.7284,-2.7604,-1.8301,-1.8205,-1.7929,-1.7039,-1.68,0.0,0.0,0.0,0.0,0.0,0.0,0.0,0.0,0.0,0.0,0.0,0.0,-1.329,-1.3338,0.0,0.0,0.0,0.0,0.0,0.0,0.0,0.0,0.0,0.0,0.0,0.0,0.0,0.0,0.0,0.0,0.0,0.0,0.0,0.0,0.0,0.0,0.0,-1.9443,-1.9248,-1.8959,0.0,0.0,0.0,0.0,0.0,0.0,0.0,0.0,0.0,0.0,-1.7983,-1.8231,-1.8269,-1.7658,-1.7873,-1.7959,-1.6705,-1.6757,-1.7025,-1.6679,-1.7014,-1.7239,-1.662,-1.6831,-1.7104,-1.7002,-1.7051,-1.7422,-1.8348,-1.8021,-1.7872,-1.8621,-1.7086,-1.6051,-1.6506,-1.6008,-1.607,0.0,0.0,0.0,-1.9262,-1.9301,-1.9301,-1.9301,-1.9301,-1.9301,-1.9301,-1.9301,-1.9301,-1.9301,-1.9301,-2.0148,-2.1842,-2.3434,-2.42,-2.42,-2.42,-2.4273,-2.4381,-2.4538,-2.4706,-2.4909,-2.5052,-2.5147,-2.5241,-2.5581,-2.5687,-2.5861,-2.7324,-2.7855,-2.7966,-1.8265,-1.8145,-1.7953,0.0,0.0,0.0,0.0,0.0,0.0,0.0,0.0,0.0,0.0,0.0,0.0,0.0,0.0,0.0,0.0,0.0,0.0,0.0,0.0,0.0,0.0,0.0,0.0,0.0,0.0,0.0,0.0,0.0,0.0,0.0,0.0,0.0,0.0,0.0,0.0,0.0,0.0,0.0,-2.0646,-2.0048,0.0,0.0,0.0,0.0,0.0,0.0,0.0,0.0,0.0,0.0,0.0,-1.8087,-1.844,-1.8634,-1.7757,-1.761,-1.7506,-1.662,-1.6453,-1.6518,-1.6518,-1.6956,-1.7179,-1.6534,-1.6985,-1.7286,-1.6668,0.0,-1.7614,-1.8017,-1.74,-1.7304,-1.8563,-1.6238,-1.4827,0.0,0.0,0.0,0.0,0.0,0.0,-1.9173,0.0,-1.9301,-1.9301,-1.9301,-1.9301,-1.9301,-1.9301,-1.9301,-1.9301,-1.9381,-2.0226,-2.1842,-2.3434,-2.42,-2.42,-2.42,-2.42,-2.4236,-2.4236,-2.4345,-2.4538,-2.4718,-2.4921,-2.5182,-2.6035,-2.638,-2.6552,-2.7973,-2.8492,-2.8602,0.0,0.0,0.0,0.0,0.0,0.0,0.0,0.0,0.0,0.0,0.0,0.0,0.0,0.0,0.0,0.0,0.0,0.0,0.0,0.0,0.0,0.0,0.0,0.0,0.0,0.0,0.0,0.0,0.0,0.0,0.0,0.0,0.0,0.0,0.0,0.0,0.0,0.0,0.0,0.0,0.0,0.0,-2.0686,0.0,0.0,0.0,0.0,0.0,0.0,0.0,0.0,0.0,0.0,0.0,-1.7512,0.0,0.0,-1.7674,-1.7887,-1.7295,-1.6559,-1.631,-1.5853,-1.5475,-1.5475,-1.6187,-1.6503,-1.5463,-1.6198,-1.6809,-1.6071,0.0,0.0,-1.7972,-1.7895,0.0,-1.9015,-1.7133,0.0,-1.6483,0.0,-1.4691,-1.5636,-1.5925,0.0,0.0,-1.8935,-1.9301,-1.9301,-1.9301,-1.9301,-1.9301,-1.9301,-1.9301,-1.9301,-2.0537,-2.1375,-2.1842,-2.3434,-2.42,-2.42,-2.42,-2.4273,-2.4418,-2.4418,-2.4526,-2.4718,-2.479,-2.4825,-2.4957,-2.5826,-2.6195,-2.6368,-2.7934,-2.8519,-2.8602,0.0,0.0,0.0,0.0,0.0,0.0,0.0,0.0,0.0,0.0,0.0,0.0,0.0,0.0,0.0,0.0,0.0,0.0,0.0,0.0,0.0,0.0,0.0,0.0,0.0,0.0,0.0,0.0,0.0,0.0,0.0,0.0,0.0,0.0,0.0,0.0,0.0,0.0,0.0,0.0,0.0,0.0,0.0,0.0,0.0,0.0,0.0,0.0,0.0,0.0,0.0,-1.8362,-1.7865,-1.7813,-1.7917,-1.7748,0.0,-1.7583,-1.751,-1.686,-1.6156,-1.5991,-1.5513,-1.5165,-1.5406,-1.5977,-1.6347,-1.5908,-1.6448,0.0,-1.6451,0.0,0.0,0.0,0.0,0.0,-1.8674,-1.7016,-1.5884,0.0,-1.5026,0.0,-1.5443,-1.5526,-1.6255,0.0,-1.8487,-1.8895,-1.9262,-1.9301,-1.9301,-1.9301,-1.9301,-1.9301,-1.9301,-2.0576,-2.1413,-2.1842,-2.3065,-2.3861,-2.42,-2.42,-2.4273,-2.4381,0.0,-2.4418,-2.4526,-2.4646,-2.4682,-2.4778,-2.5931,-2.6458,-2.6752,-2.8208,-2.8867,-2.9044,0.0,0.0,0.0,0.0,0.0,0.0,0.0,0.0,0.0,-1.5211,0.0,0.0,0.0,0.0,0.0,0.0,0.0,0.0,0.0,0.0,0.0,0.0,0.0,0.0,0.0,0.0,0.0,0.0,0.0,0.0,0.0,0.0,0.0,0.0,0.0,0.0,0.0,0.0,0.0,0.0,0.0,0.0,0.0,0.0,0.0,0.0,0.0,0.0,0.0,0.0,-1.9277,-1.866,-1.7683,-1.79,-1.8345,-1.7359,-1.7437,-1.767,-1.6863,-1.6392,-1.6035,-1.568,-1.5345,-1.5223,-1.5679,-1.6022,-1.6342,-1.677,0.0,-1.7102,-1.7095,-1.7647,-1.8091,-1.8091,0.0,-1.8118,-1.8037,-1.6617,-1.5519,-1.5394,-1.481,-1.4692,-1.5443,-1.5567,-1.6263,-1.8014,-1.7965,-1.8287,-1.9262,-1.9301,-1.9301,-1.9301,-1.9301,-1.9301,-1.9301,-2.0109,-2.0924,-2.1794,-2.2617,-2.3409,-2.42,-2.42,-2.42,-2.42,-2.42,-2.42,-2.42,-2.4381,-2.4454,-2.4598,-2.6126,-2.6888,-2.7311,-2.8675,-2.9352,-2.9602,0.0,0.0,0.0,0.0,0.0,0.0,0.0,-1.5787,-1.5951,-1.5775,-1.5515,-1.5549,0.0,0.0,0.0,0.0,0.0,0.0,0.0,0.0,0.0,0.0,0.0,0.0,0.0,0.0,0.0,0.0,0.0,0.0,0.0,0.0,0.0,0.0,0.0,0.0,0.0,0.0,0.0,0.0,0.0,0.0,0.0,0.0,0.0,0.0,0.0,0.0,0.0,0.0,-1.8631,-1.8459,-1.8254,-1.7491,-1.6632,-1.6424,-1.6458,-1.6486,-1.6321,-1.6001,-1.568,-1.5613,-1.5345,-1.5108,-1.5143,-1.5495,0.0,0.0,0.0,-1.6635,-1.6481,-1.7374,0.0,-1.8091,0.0,0.0,0.0,0.0,-1.6214,0.0,0.0,0.0,0.0,0.0,0.0,0.0,0.0,-1.7804,-1.9222,-1.9301,-1.9301,-1.9301,-1.9301,-1.9301,-1.9301,-2.0109,-2.0924,-2.1794,-2.2617,-2.3409,-2.42,-2.42,-2.42,-2.42,-2.42,0.0,-2.42,-2.4236,-2.4236,-2.4442,-2.618,-2.6883,-2.7152,-2.8867,-2.954,-2.9602,0.0,0.0,0.0,0.0,0.0,0.0,0.0,-1.5869,-1.6184,-1.6246,-1.6386,-1.6511,-1.6595,-1.6188,-1.5836,0.0,0.0,0.0,0.0,0.0,0.0,0.0,0.0,0.0,0.0,0.0,0.0,0.0,0.0,0.0,0.0,0.0,0.0,0.0,0.0,0.0,0.0,0.0,0.0,0.0,0.0,0.0,0.0,0.0,0.0,0.0,0.0,0.0,0.0,0.0,-1.8633,-1.813,-1.7728,-1.7171,-1.6566,-1.6274,-1.62,-1.6144,-1.5935,-1.5758,-1.5639,-1.5718,-1.5429,-1.521,-1.5683,0.0,0.0,0.0,-1.6233,-1.6468,-1.6585,0.0,0.0,0.0,0.0,0.0,0.0,0.0,0.0,0.0,0.0,0.0,0.0,0.0,0.0,0.0,0.0,-1.7683,-1.9222,-1.9301,-1.9301,-1.9301,-1.9301,-1.9301,-1.9301,-1.9687,-2.0537,-2.1794,-2.2182,-2.3027,-2.42,-2.42,-2.42,-2.42,-2.42,0.0,-2.42,-2.42,-2.42,-2.4298,-2.5475,-2.6317,-2.7051,-2.8182,-2.904,-2.9602,0.0,0.0,0.0,0.0,0.0,0.0,0.0,-1.6033,-1.6381,-1.6602,-1.7163,-1.7398,-1.7004,-1.6759,-1.6509,0.0,0.0,0.0,0.0,0.0,0.0,0.0,0.0,0.0,0.0,0.0,0.0,0.0,0.0,0.0,0.0,0.0,0.0,0.0,0.0,0.0,0.0,0.0,0.0,0.0,0.0,0.0,0.0,0.0,0.0,0.0,0.0,0.0,0.0,0.0,-1.8644,-1.7759,-1.7195,-1.6952,-1.6805,-1.6296,-1.6128,-1.6025,-1.5604,-1.5479,-1.5563,-1.5845,-1.559,-1.5482,-1.626,-1.5987,0.0,0.0,-1.6412,-1.6459,-1.6945,0.0,0.0,0.0,0.0,0.0,0.0,0.0,0.0,0.0,0.0,0.0,0.0,0.0,0.0,0.0,0.0,0.0,-1.9301,-1.9341,-1.9341,-1.9341,-1.9301,-1.9301,-1.9301,-1.9301,-2.0148,-2.1794,-2.1794,-2.2633,-2.42,-2.42,-2.42,-2.42,-2.42,0.0,0.0,-2.42,-2.42,-2.4261,-2.4862,-2.5812,-2.6862,-2.7491,-2.8468,-2.9477,0.0,0.0,0.0,0.0,0.0,0.0,0.0,-1.6657,-1.6875,-1.6784,-1.7499,-1.7813,-1.7258,-1.7412,-1.7357,0.0,0.0,0.0,0.0,0.0,0.0,0.0,0.0,0.0,0.0,0.0,0.0,0.0,0.0,0.0,0.0,0.0,0.0,0.0,0.0,0.0,0.0,0.0,0.0,0.0,0.0,0.0,0.0,0.0,0.0,0.0,0.0,0.0,0.0,0.0,0.0,-1.7436,-1.737,-1.7023,-1.6525,-1.6076,0.0,0.0,-1.5291,-1.5153,-1.5257,-1.5774,-1.5866,-1.5892,-1.6171,0.0,0.0,-1.6295,-1.6327,-1.6517,-1.7303,-1.71,-1.6936,0.0,0.0,0.0,0.0,0.0,0.0,0.0,0.0,0.0,0.0,0.0,0.0,0.0,0.0,0.0,-1.9557,-1.9557,-1.9557,-1.9557,-1.939,-1.9301,-1.9301,-1.9301,-2.0148,-2.1794,-2.1794,-2.2633,-2.42,-2.42,-2.42,-2.42,-2.42,0.0,0.0,-2.42,-2.42,-2.4298,-2.5122,-2.5869,-2.6535,-2.7391,-2.8306,-2.9162,0.0,0.0,0.0,0.0,0.0,0.0,-1.5991,-1.6291,-1.6607,-1.6786,-1.7306,-1.7687,-1.7727,-1.775,-1.7352,-1.6343,0.0,0.0,0.0,0.0,0.0,0.0,0.0,0.0,0.0,0.0,0.0,0.0,0.0,0.0,0.0,0.0,0.0,0.0,0.0,0.0,0.0,0.0,0.0,0.0,0.0,0.0,0.0,0.0,0.0,0.0,0.0,0.0,0.0,0.0,0.0,0.0,-1.8391,-1.815,0.0,0.0,-1.6117,-1.5866,-1.5647,-1.5579,-1.5786,-1.6614,-1.648,-1.6302,-1.6946,0.0,-1.6063,-1.6276,-1.6505,-1.6844,-1.7394,-1.6891,-1.6488,0.0,-1.6289,-1.5689,0.0,0.0,0.0,0.0,0.0,0.0,0.0,0.0,0.0,0.0,0.0,0.0,-1.999,-1.9872,-1.9715,-1.9606,-1.9518,-1.9429,-1.9301,-1.9301,-2.0148,-2.1794,-2.1794,-2.2633,-2.42,-2.42,-2.42,-2.42,-2.42,0.0,0.0,-2.42,-2.42,-2.4225,-2.4599,-2.5417,-2.6433,-2.6773,-2.7716,-2.8812,0.0,0.0,0.0,0.0,0.0,-1.6032,-1.5964,-1.622,-1.6536,-1.6812,-1.7312,-1.7657,-1.7809,-1.7752,-1.7223,-1.6046,-1.6019,0.0,0.0,0.0,0.0,0.0,0.0,0.0,0.0,0.0,0.0,0.0,0.0,0.0,0.0,0.0,0.0,0.0,0.0,0.0,0.0,0.0,0.0,0.0,0.0,0.0,0.0,0.0,0.0,0.0,0.0,0.0,0.0,0.0,0.0,0.0,0.0,0.0,0.0,0.0,-1.6701,-1.6336,-1.6336,-1.6349,-1.6484,-1.716,-1.702,-1.6874,0.0,-1.6901,-1.6364,-1.6597,-1.689,-1.7168,-1.7423,-1.6706,-1.6101,0.0,-1.5511,-1.4975,-1.497,0.0,0.0,0.0,0.0,0.0,0.0,0.0,0.0,0.0,0.0,0.0,-2.0342,-2.0216,-1.9981,-1.9715,-1.9645,-1.9518,-1.9301,-1.9301,-2.0148,-2.1794,-2.1794,-2.2633,-2.42,-2.42,-2.42,-2.42,-2.42,0.0,0.0,-2.42,-2.4108,-2.3971,-2.3971,-2.479,-2.6036,-2.6036,-2.7028,-2.8503,0.0,0.0,0.0,0.0,0.0,0.0,-1.6595,-1.6824,-1.6984,-1.6995,-1.7638,-1.787,-1.7257,-1.7387,-1.7083,-1.6095,-1.5874,0.0,0.0,0.0,0.0,0.0,0.0,0.0,0.0,0.0,0.0,0.0,0.0,0.0,0.0,0.0,0.0,0.0,0.0,0.0,0.0,0.0,0.0,0.0,0.0,0.0,-2.0458,0.0,0.0,0.0,0.0,0.0,0.0,0.0,0.0,0.0,0.0,0.0,0.0,0.0,-1.7733,-1.7384,-1.7384,-1.7384,-1.7341,-1.7148,-1.7459,-1.7671,0.0,-1.7193,-1.7235,-1.7454,-1.7486,-1.7478,-1.7411,-1.6696,-1.5941,-1.5508,-1.5172,-1.499,-1.4897,0.0,0.0,0.0,0.0,0.0,0.0,0.0,0.0,0.0,0.0,0.0,-2.0566,-2.0605,-2.0372,-1.9902,-1.9715,-1.9518,-1.9301,-1.9301,-2.0148,-2.1794,-2.1794,-2.2633,-2.42,-2.42,-2.42,-2.42,0.0,0.0,0.0,-2.42,-2.3902,-2.3419,-2.3419,-2.4117,-2.5096,-2.5096,-2.6386,-2.8112,0.0,0.0,0.0,0.0,0.0,0.0,0.0,-1.6279,-1.6452,-1.638,-1.6744,-1.7011,-1.7014,-1.6921,-1.6884,-1.6818,-1.6322,0.0,0.0,0.0,0.0,0.0,0.0,0.0,0.0,0.0,0.0,0.0,0.0,0.0,0.0,0.0,0.0,0.0,0.0,0.0,0.0,0.0,0.0,0.0,0.0,-1.903,-1.9393,0.0,0.0,0.0,0.0,0.0,0.0,0.0,0.0,0.0,0.0,0.0,0.0,-1.8887,-1.8002,-1.6991,-1.6991,-1.6991,-1.704,-1.7308,-1.7369,-1.7446,-1.7703,-1.7369,-1.7095,-1.7421,-1.7241,-1.7093,-1.7355,-1.6421,-1.5707,-1.5957,-1.5569,0.0,0.0,0.0,0.0,0.0,0.0,0.0,0.0,0.0,0.0,0.0,0.0,0.0,-2.0566,-2.0605,-2.045,-2.0186,-1.9942,-1.9715,-1.9518,-1.939,-2.0148,-2.1794,-2.1408,-2.2284,-2.4189,-2.3808,-2.3831,0.0,0.0,0.0,0.0,-2.3786,-2.3556,-2.3373,-2.3064,-2.3573,-2.4472,-2.4472,-2.5362,-2.6617,0.0,0.0,0.0,0.0,0.0,0.0,0.0,-1.5717,-1.5852,-1.5789,-1.6148,-1.6532,-1.6862,-1.6704,-1.6747,-1.7164,-1.6701,0.0,0.0,0.0,0.0,0.0,0.0,0.0,0.0,0.0,0.0,0.0,0.0,0.0,0.0,0.0,0.0,0.0,0.0,0.0,0.0,0.0,0.0,0.0,-1.8194,-1.8601,-1.8821,0.0,0.0,0.0,0.0,0.0,0.0,0.0,0.0,0.0,0.0,0.0,0.0,0.0,-1.7672,-1.6918,0.0,-1.7379,-1.7359,-1.7394,-1.7451,-1.7513,-1.758,-1.7235,-1.7064,-1.7614,-1.7224,-1.6864,-1.7088,-1.619,-1.5478,-1.5741,-1.5529,0.0,0.0,0.0,0.0,0.0,0.0,0.0,0.0,0.0,0.0,0.0,0.0,0.0,-2.0566,-2.0605,-2.0527,-2.042,-2.0177,-1.9951,-1.9715,-1.9587,-2.0343,-2.1907,-2.1589,-2.239,-2.4189,-2.3831,-2.3763,0.0,0.0,0.0,0.0,-2.3282,-2.3018,-2.2811,-2.2524,-2.293,-2.3693,-2.3855,-2.4613,-2.5682,0.0,0.0,0.0,0.0,0.0,0.0,0.0,-1.5241,-1.5309,-1.5231,-1.5825,-1.6401,-1.6756,-1.6662,-1.6703,-1.7147,0.0,0.0,0.0,0.0,0.0,0.0,0.0,0.0,0.0,0.0,0.0,-1.6862,-1.6462,-1.6523,-1.6899,0.0,0.0,0.0,0.0,0.0,0.0,0.0,0.0,0.0,-1.8165,-1.8509,0.0,0.0,0.0,0.0,0.0,0.0,0.0,0.0,0.0,0.0,0.0,0.0,0.0,0.0,0.0,0.0,0.0,-1.8209,-1.8048,-1.734,-1.7542,-1.7731,-1.7072,-1.6927,0.0,-1.7926,-1.738,-1.6743,-1.6774,-1.6004,-1.5295,-1.503,-1.5195,0.0,0.0,0.0,0.0,0.0,0.0,0.0,0.0,0.0,0.0,0.0,0.0,0.0,-2.0518,-2.0527,-2.0507,-2.0507,-2.0324,-2.011,-1.9904,-1.9827,-2.0536,-2.2002,-2.2002,-2.2744,-2.4143,-2.4108,-2.3856,0.0,0.0,0.0,0.0,-2.2673,-2.2352,-2.1894,-2.1848,-2.2229,-2.2799,-2.3233,-2.406,-2.511,0.0,0.0,0.0,0.0,0.0,0.0,0.0,0.0,0.0,0.0,-1.5293,-1.5812,-1.5955,-1.5944,-1.6202,0.0,0.0,0.0,0.0,0.0,0.0,0.0,0.0,0.0,0.0,0.0,0.0,-1.6425,-1.6358,-1.6523,-1.6899,-1.6505,0.0,0.0,0.0,0.0,0.0,0.0,0.0,0.0,-1.7109,-1.711,0.0,0.0,0.0,0.0,-1.5835,-1.6303,0.0,0.0,0.0,0.0,0.0,0.0,0.0,0.0,-1.7339,-1.695,-1.7157,0.0,-1.7197,-1.6992,-1.7067,-1.7107,0.0,-1.7138,-1.7504,0.0,0.0,-1.6485,-1.7192,-1.6057,-1.5222,-1.5781,-1.607,0.0,0.0,0.0,0.0,0.0,0.0,0.0,0.0,0.0,0.0,0.0,0.0,-1.9831,-2.0068,-1.9756,-1.9627,-1.9627,-1.9553,-1.9597,-1.9659,-1.908,-1.9533,-2.102,-2.0855,-2.1765,-2.3579,-2.3213,-2.319,0.0,0.0,0.0,-2.2684,-2.226,-2.1997,-2.1848,-2.1491,-2.1681,-2.213,-2.2224,-2.2911,-2.3954,0.0,0.0,0.0,0.0,0.0,0.0,0.0,0.0,0.0,0.0,0.0,-1.5385,-1.5431,-1.5753,0.0,0.0,0.0,0.0,0.0,0.0,0.0,0.0,0.0,0.0,0.0,0.0,0.0,0.0,0.0,-1.6523,0.0,0.0,0.0,0.0,0.0,0.0,0.0,0.0,0.0,-1.6606,-1.692,0.0,0.0,0.0,0.0,0.0,-1.5135,-1.5569,0.0,-1.6232,-1.6933,-1.777,0.0,0.0,0.0,0.0,-1.727,-1.7003,-1.6943,-1.7183,-1.7468,-1.7468,-1.7605,-1.7734,-1.7734,0.0,0.0,0.0,0.0,0.0,-1.7363,-1.6134,0.0,-1.6211,-1.6408,0.0,0.0,0.0,0.0,0.0,0.0,0.0,0.0,0.0,0.0,0.0,0.0,-1.9824,-1.9639,-1.9414,-1.9287,-1.9287,-1.9092,-1.9117,-1.9443,-1.8926,-1.9386,-2.0846,-2.0613,-2.1423,-2.3087,-2.2811,-2.2708,0.0,0.0,0.0,-2.1994,-2.1686,-2.1583,-2.1548,-2.1305,-2.1348,-2.1608,-2.1827,-2.2463,-2.3432,0.0,0.0,0.0,0.0,0.0,0.0,0.0,0.0,0.0,0.0,0.0,0.0,0.0,0.0,0.0,0.0,0.0,0.0,0.0,0.0,0.0,0.0,0.0,0.0,0.0,0.0,0.0,0.0,0.0,0.0,0.0,0.0,-1.6496,0.0,0.0,0.0,0.0,0.0,-1.6517,-1.6908,-1.7107,0.0,0.0,0.0,0.0,0.0,0.0,0.0,0.0,-1.543,-1.5848,-1.6518,-1.6413,0.0,0.0,0.0,0.0,0.0,-1.7086,-1.7678,-1.8331,-1.8073,-1.8375,-1.8696,-1.867,0.0,0.0,0.0,0.0,0.0,0.0,0.0,0.0,0.0,0.0,0.0,0.0,0.0,0.0,0.0,0.0,0.0,0.0,0.0,0.0,0.0,0.0,-1.9561,-1.9209,-1.9131,-1.9092,-1.9092,-1.874,-1.8721,-1.9092,-1.8885,-1.9441,-2.0775,-2.0628,-2.1266,-2.257,-2.257,-2.2329,-2.1894,0.0,0.0,-2.119,-2.119,-2.119,-2.119,-2.119,-2.119,-2.1253,-2.1733,-2.239,-2.3193,0.0,0.0,0.0,0.0,0.0,0.0,0.0,0.0,0.0,0.0,0.0,0.0,0.0,0.0,0.0,0.0,0.0,0.0,0.0,0.0,0.0,0.0,0.0,0.0,0.0,0.0,0.0,0.0,0.0,0.0,-1.6899,-1.6505,-1.6315,-1.6404,0.0,0.0,0.0,-1.6349,-1.6517,-1.6908,-1.6943,0.0,0.0,0.0,0.0,0.0,0.0,0.0,0.0,-1.5368,-1.5954,-1.6736,-1.6736,0.0,0.0,0.0,0.0,0.0,-1.7614,-1.863,-1.9304,-1.7917,-1.8155,-1.8661,0.0,0.0,0.0,0.0,0.0,0.0,0.0,0.0,0.0,0.0,0.0,0.0,0.0,0.0,0.0,0.0,0.0,0.0,0.0,0.0,0.0,0.0,0.0,-1.8773,-1.8705,-1.8364,-1.8203,-1.8203,-1.8144,-1.8135,-1.8203,-1.7902,-1.8433,-1.9828,-1.9894,-2.0654,-2.2009,-2.2009,-2.1974,-2.1871,0.0,-2.127,-2.119,-2.119,-2.119,-2.119,-2.119,-2.119,-2.1253,-2.1733,-2.2237,-2.2982,0.0,0.0,0.0,0.0,0.0,0.0,0.0,0.0,0.0,0.0,0.0,0.0,0.0,0.0,0.0,0.0,0.0,0.0,0.0,0.0,0.0,0.0,0.0,0.0,0.0,0.0,0.0,0.0,0.0,-1.6379,-1.6587,-1.6624,-1.6633,-1.6633,0.0,0.0,0.0,-1.6633,-1.6743,-1.6908,0.0,0.0,0.0,0.0,0.0,0.0,0.0,0.0,0.0,0.0,-1.6049,-1.6892,-1.6603,0.0,0.0,0.0,0.0,0.0,-1.7413,-1.849,-1.9519,-1.8573,-1.9373,-2.0339,-2.0273,0.0,0.0,0.0,0.0,0.0,0.0,0.0,0.0,0.0,0.0,0.0,0.0,0.0,0.0,0.0,0.0,0.0,0.0,0.0,0.0,0.0,0.0,0.0,-1.8276,-1.8115,-1.8008,-1.8008,-1.8008,-1.8008,-1.8008,-1.8032,-1.8563,-1.9615,-1.9429,-2.0125,-2.1514,-2.1514,-2.1514,-2.1502,0.0,-2.119,-2.119,-2.119,-2.119,-2.119,-2.119,-2.119,-2.1316,-2.2218,-2.2695,-2.3193,0.0,0.0,0.0,0.0,0.0,0.0,0.0,0.0,0.0,0.0,0.0,0.0,0.0,0.0,0.0,0.0,0.0,0.0,0.0,0.0,0.0,0.0,0.0,0.0,0.0,0.0,-1.6342,-1.5452,-1.5945,-1.6221,-1.6297,-1.6716,-1.6908,0.0,0.0,0.0,0.0,-1.6908,-1.6908,-1.6908,0.0,0.0,0.0,0.0,0.0,0.0,0.0,0.0,0.0,0.0,0.0,0.0,0.0,0.0,0.0,-1.7161,-1.7579,-1.7993,-1.745,-1.8527,-1.9679,-1.9438,0.0,-2.1438,-2.167,0.0,0.0,0.0,0.0,0.0,0.0,0.0,0.0,0.0,0.0,0.0,0.0,0.0,0.0,0.0,0.0,0.0,0.0,0.0,0.0,0.0,0.0,0.0,-1.8027,-1.8008,-1.8008,-1.8008,-1.8008,-1.8008,-1.8008,-1.8192,-1.8721,-1.9605,-1.9386,-1.9933,-2.119,-2.119,-2.119,-2.119,-2.119,-2.119,-2.119,-2.119,-2.119,-2.119,-2.119,-2.1285,-2.1494,-2.2451,-2.2967,-2.3407,0.0,0.0,0.0,0.0,0.0,0.0,0.0,0.0,0.0,0.0,0.0,0.0,0.0,0.0,0.0,0.0,0.0,0.0,0.0,0.0,0.0,0.0,0.0,0.0,0.0,-1.6517,-1.6306,-1.6221,-1.5894,-1.5936,-1.6297,-1.6716,-1.6908,-1.6908,0.0,0.0,0.0,-1.6908,-1.6908,-1.6908,-1.6908,0.0,0.0,0.0,0.0,0.0,0.0,0.0,0.0,0.0,0.0,0.0,0.0,0.0,-1.7491,-1.7604,-1.7849,-1.8152,-1.8466,-1.9373,-2.0255,-2.0226,0.0,0.0,-2.1288,0.0,0.0,0.0,0.0,0.0,0.0,0.0,0.0,0.0,0.0,0.0,0.0,0.0,0.0,0.0,0.0,0.0,0.0,0.0,0.0,0.0,0.0,0.0,-1.8008,-1.8008,-1.8008,-1.8008,-1.8008,-1.8008,-1.8008,-1.771,-1.8236,-1.9605,-1.9879,-2.0431,-2.119,-2.119,-2.119,-2.119,-2.119,-2.119,-2.119,-2.119,-2.119,-2.119,-2.119,-2.1463,-2.1846,-2.1939,-2.2543,-2.3403,0.0,0.0,0.0,0.0,0.0,0.0,0.0,0.0,0.0,0.0,0.0,0.0,0.0,0.0,0.0,0.0,0.0,0.0,0.0,0.0,0.0,0.0,0.0,-1.518,-1.5463,-1.5144,-1.4646,-1.3876,-1.4668,-1.5153,-1.5345,-1.6392,0.0,0.0,0.0,0.0,0.0,0.0,-1.7046,-1.7248,-1.7,-1.7055,0.0,0.0,0.0,0.0,0.0,0.0,0.0,0.0,-1.6718,-1.7588,-1.7442,-1.7588,-1.7769,-1.7632,-1.8085,-1.859,-1.8368,-1.9487,0.0,0.0,0.0,0.0,0.0,0.0,0.0,0.0,0.0,0.0,0.0,0.0,0.0,0.0,0.0,0.0,0.0,0.0,0.0,0.0,0.0,0.0,0.0,0.0,0.0,0.0,0.0,0.0,-1.8008,-1.8008,-1.8008,-1.8008,-1.8008,-1.8008,-1.8008,-1.863,-1.9164,-1.9605,-1.9485,-2.0031,-2.119,-2.119,-2.119,-2.119,-2.119,-2.119,-2.119,-2.119,-2.119,-2.119,-2.119,-2.1316,-2.1557,-2.2113,-2.2561,-2.3045,0.0,0.0,0.0,0.0,0.0,0.0,0.0,0.0,0.0,0.0,0.0,0.0,0.0,0.0,0.0,0.0,0.0,0.0,0.0,0.0,0.0,0.0,0.0,-1.4369,-1.4369,-1.3859,-1.3338,-1.2774,-1.3842,-1.4536,-1.4871,0.0,0.0,0.0,0.0,0.0,0.0,0.0,0.0,-1.7284,-1.7009,-1.722,0.0,0.0,0.0,0.0,0.0,0.0,0.0,0.0,-1.6764,-1.7499,-1.7472,-1.7657,-1.7891,-1.7864,-1.8426,-1.9028,-1.8659,-1.9717,-2.0784,0.0,0.0,0.0,0.0,0.0,0.0,0.0,0.0,0.0,0.0,0.0,0.0,0.0,0.0,0.0,0.0,0.0,0.0,0.0,0.0,0.0,0.0,0.0,0.0,0.0,0.0,0.0,0.0,-1.8008,-1.8008,-1.8008,-1.8008,-1.811,-1.8303,-1.9021,-1.9584,-1.99,-1.9551,-1.9998,-2.119,-2.119,-2.119,-2.119,-2.119,-2.119,-2.119,-2.119,-2.119,-2.119,-2.119,-2.119,-2.1285,-2.1908,-2.2359,-2.2774,0.0,0.0,0.0,0.0,0.0,0.0,0.0,0.0,0.0,0.0,0.0,0.0,0.0,0.0,0.0,0.0,0.0,0.0,0.0,0.0,0.0,0.0,0.0,-1.3893,-1.3893,-1.2847,-1.2721,-1.3584,-1.3584,-1.4137,-1.5189,-1.4768,0.0,0.0,0.0,0.0,0.0,0.0,0.0,0.0,-1.6917,-1.7403,-1.8008,0.0,0.0,0.0,0.0,0.0,0.0,0.0,-1.6893,-1.722,-1.7813,-1.7872,-1.7846,-1.8446,-1.8929,-1.9336,-1.9554,-2.0235,0.0,0.0,0.0,0.0,0.0,0.0,0.0,0.0,0.0,0.0,0.0,0.0,0.0,0.0,0.0,0.0,0.0,0.0,0.0,0.0,0.0,0.0,0.0,0.0,0.0,0.0,0.0,0.0,0.0,-1.8008,-1.8008,-1.8008,-1.8008,-1.8327,-1.899,-1.8667,-1.9199,-2.0592,-2.0258,-2.0495,-2.119,-2.119,-2.119,-2.119,-2.119,-2.119,-2.119,-2.119,-2.119,-2.119,-2.119,-2.119,-2.119,-2.1201,-2.1796,-2.2683,0.0,0.0,0.0,0.0,0.0,0.0,0.0,0.0,0.0,0.0,0.0,0.0,0.0,0.0,0.0,0.0,0.0,0.0,0.0,0.0,0.0,0.0,0.0,0.0,0.0,0.0,-1.2022,-1.2064,-1.2605,-1.3176,0.0,0.0,0.0,-1.4966,0.0,0.0,0.0,0.0,0.0,0.0,-1.755,-1.7972,-1.8806,0.0,0.0,0.0,0.0,0.0,0.0,0.0,0.0,0.0,-1.8315,-1.8734,-1.9175,-1.8744,-1.9352,-2.0091,-1.9527,-2.0217,0.0,0.0,0.0,0.0,0.0,0.0,0.0,0.0,0.0,0.0,0.0,0.0,0.0,0.0,0.0,0.0,0.0,0.0,0.0,0.0,0.0,0.0,0.0,0.0,0.0,0.0,0.0,0.0,0.0,-1.8008,-1.7871,-1.7578,-1.7988,-1.8153,-1.8007,-1.9083,-1.9587,-1.9574,-2.054,-2.1071,-2.119,-2.119,-2.119,-2.119,-2.119,-2.119,-2.119,-2.119,-2.119,-2.119,-2.119,-2.119,-2.1221,-2.1577,-2.1963,-2.25,0.0,0.0,0.0,0.0,0.0,0.0,0.0,0.0,0.0,0.0,0.0,0.0,0.0,0.0,0.0,0.0,0.0,0.0,0.0,0.0,0.0,0.0,0.0,0.0,0.0,-1.2409,-1.2191,0.0,0.0,0.0,0.0,0.0,0.0,-1.4178,0.0,-1.4927,0.0,0.0,0.0,0.0,-1.6758,-1.7424,-1.8495,0.0,0.0,0.0,0.0,0.0,0.0,0.0,0.0,0.0,-1.873,-1.9185,-1.9629,-1.9453,-2.0078,-2.0752,-2.041,0.0,0.0,0.0,0.0,0.0,0.0,0.0,0.0,0.0,0.0,0.0,0.0,0.0,0.0,0.0,0.0,0.0,0.0,0.0,0.0,0.0,0.0,0.0,0.0,0.0,0.0,0.0,0.0,0.0,0.0,-1.8008,-1.7913,-1.7743,-1.8112,-1.8322,-1.8332,-1.9235,-1.964,-1.9524,-2.0323,-2.0696,-2.0626,-2.1017,-2.119,-2.119,-2.119,-2.119,-2.119,-2.119,-2.119,-2.119,-2.119,-2.119,-2.1221,-2.1526,-2.1932,-2.2488,0.0,0.0,-1.6941,-1.7373,0.0,0.0,0.0,0.0,0.0,0.0,0.0,-1.7324,0.0,0.0,0.0,-1.5628,0.0,0.0,0.0,0.0,0.0,0.0,0.0,0.0,0.0,0.0,0.0,0.0,0.0,0.0,0.0,0.0,-1.2958,-1.3382,0.0,-1.4297,0.0,0.0,0.0,0.0,-1.524,-1.6184,-1.7406,-1.7824,0.0,0.0,0.0,0.0,0.0,0.0,0.0,0.0,-1.9119,-1.9404,-1.9609,-2.039,-2.0918,-2.1327,-2.1728,0.0,0.0,0.0,0.0,0.0,0.0,0.0,0.0,0.0,0.0,0.0,0.0,0.0,0.0,0.0,0.0,0.0,0.0,0.0,0.0,0.0,0.0,0.0,0.0,0.0,0.0,0.0,0.0,0.0,0.0,-1.7959,-1.8035,-1.8193,-1.8236,-1.8624,-1.9376,-1.9215,-1.9392,-1.997,-1.9778,-1.9666,-1.9654,-2.0672,-2.1144,-2.119,-2.1144,-2.1144,-2.119,-2.119,-2.119,-2.119,-2.119,-2.119,-2.119,-2.119,-2.1765,-2.2543,0.0,0.0,-1.773,-1.7716,0.0,0.0,0.0,0.0,-1.6822,-1.6307,-1.6228,-1.5972,-1.5295,-1.4171,0.0,-1.4401,-1.3449,0.0,0.0,0.0,0.0,0.0,0.0,0.0,0.0,0.0,0.0,0.0,0.0,0.0,0.0,0.0,0.0,-1.2244,0.0,-1.2942,0.0,0.0,0.0,-1.5597,-1.6012,-1.6162,-1.6237,-1.698,-1.7424,0.0,0.0,0.0,0.0,0.0,0.0,0.0,-1.9778,-2.0254,-2.0781,-2.0654,-2.1163,-2.1689,0.0,0.0,0.0,0.0,0.0,0.0,0.0,0.0,0.0,0.0,0.0,0.0,0.0,0.0,0.0,0.0,0.0,0.0,0.0,0.0,0.0,0.0,0.0,0.0,0.0,0.0,0.0,0.0,0.0,0.0,-1.7539,-1.7519,-1.7439,-1.7296,-1.7745,-1.8126,-1.8398,-1.898,-1.9121,0.0,-1.9443,-1.947,-1.9103,-2.0113,-2.0791,-2.1178,-2.0745,-2.0791,-2.119,-2.119,-2.119,-2.119,-2.119,-2.119,-2.119,-2.119,-2.1486,-2.1956,0.0,0.0,0.0,0.0,0.0,0.0,0.0,0.0,-1.767,-1.7,-1.6463,-1.5975,-1.5508,-1.4045,0.0,0.0,-1.3188,-1.2656,0.0,0.0,0.0,0.0,0.0,0.0,0.0,0.0,0.0,0.0,0.0,0.0,0.0,0.0,0.0,-1.2114,0.0,-1.3042,0.0,0.0,-1.4505,-1.4225,-1.4597,-1.5166,-1.5901,-1.6681,-1.7476,-1.8223,-1.8896,0.0,0.0,0.0,0.0,0.0,0.0,0.0,-2.0908,-2.0889,-2.1357,-2.1836,0.0,0.0,0.0,0.0,0.0,0.0,0.0,0.0,0.0,0.0,0.0,0.0,0.0,0.0,0.0,0.0,0.0,0.0,0.0,0.0,0.0,0.0,0.0,0.0,0.0,0.0,0.0,0.0,0.0,-1.7305,-1.708,-1.707,-1.7189,-1.7429,-1.773,-1.8092,-1.8521,-1.8885,-1.8924,-1.8587,-1.8913,-1.9016,-1.8919,-1.9711,-2.0343,-2.0791,-2.0527,-2.0699,-2.119,-2.119,-2.119,-2.119,-2.119,-2.1351,-2.1502,-2.1282,-2.1542,-2.2047,0.0,0.0,0.0,0.0,0.0,0.0,0.0,0.0,0.0,-1.7488,-1.659,-1.5945,-1.579,-1.415,-1.3121,0.0,0.0,0.0,-1.2318,0.0,0.0,0.0,0.0,0.0,0.0,0.0,0.0,0.0,0.0,0.0,0.0,0.0,0.0,-1.2298,0.0,0.0,0.0,0.0,-1.3446,-1.2454,-1.3055,-1.4175,-1.5612,-1.6636,-1.7629,-1.8568,-1.9125,-1.9429,-1.9597,-1.9794,0.0,0.0,0.0,0.0,-2.0693,-2.1064,-2.1484,-2.1787,0.0,0.0,0.0,0.0,0.0,0.0,0.0,0.0,0.0,0.0,0.0,0.0,0.0,0.0,0.0,0.0,0.0,0.0,0.0,0.0,0.0,0.0,0.0,0.0,0.0,0.0,0.0,0.0,0.0,-1.6668,-1.659,-1.659,-1.6951,-1.7756,-1.7774,-1.8182,-1.8987,-1.8866,-1.8732,-1.8587,-1.8437,-1.8494,-1.8782,-1.9218,-1.9734,-2.0285,-2.0285,-2.0572,-2.1075,-2.1155,-2.119,-2.119,-2.119,-2.1454,-2.1743,-2.1351,-2.1646,-2.2218,0.0,0.0,0.0,0.0,0.0,0.0,0.0,0.0,0.0,0.0,-1.4419,-1.4141,-1.3341,-1.2581,-1.2204,-1.2425,-1.2412,-1.2345,0.0,0.0,0.0,0.0,0.0,0.0,0.0,0.0,0.0,0.0,0.0,0.0,0.0,0.0,0.0,-1.1973,0.0,0.0,0.0,0.0,-1.3292,-1.244,-1.3835,-1.4353,-1.453,-1.6317,-1.7324,-1.7891,-1.8919,-1.9301,-1.939,-1.9557,-1.9794,0.0,0.0,0.0,0.0,-2.1064,-2.1239,0.0,0.0,0.0,0.0,0.0,0.0,0.0,0.0,0.0,0.0,0.0,0.0,0.0,0.0,0.0,0.0,0.0,0.0,0.0,0.0,0.0,0.0,0.0,0.0,0.0,0.0,0.0,0.0,0.0,-1.6697,-1.6562,-1.6202,-1.6183,-1.6536,-1.7255,-1.73,-1.7849,-1.8987,-1.8866,-1.8732,-1.8587,-1.8302,-1.8146,-1.8215,-1.8295,-1.8845,-1.978,-1.978,-2.0056,-2.0549,-2.1017,-2.119,-2.119,-2.119,-2.1236,-2.1282,-2.1224,-2.1438,-2.1792,0.0,0.0,0.0,0.0,0.0,0.0,0.0,0.0,0.0,0.0,0.0,-1.4185,-1.38,-1.2952,-1.2382,-1.2305,-1.2305,0.0,0.0,0.0,0.0,0.0,0.0,0.0,0.0,0.0,0.0,0.0,0.0,0.0,0.0,-1.4122,-1.3539,0.0,0.0,0.0,0.0,0.0,-1.4521,-1.3369,-1.3985,-1.4552,-1.5171,-1.6211,-1.7432,-1.8623,-1.9119,-1.939,-1.9518,-1.9715,-1.9951,-2.0177,-2.042,0.0,0.0,0.0,0.0,0.0,0.0,0.0,0.0,0.0,0.0,0.0,0.0,0.0,0.0,0.0,0.0,0.0,0.0,0.0,0.0,0.0,0.0,0.0,0.0,0.0,0.0,0.0,0.0,0.0,0.0,0.0,0.0,0.0,-1.6133,-1.6048,-1.6195,-1.6214,-1.6662,-1.7683,-1.7699,-1.812,-1.8987,-1.8946,-1.8813,-1.8587,-1.8275,-1.8084,-1.8084,-1.8084,-1.8513,-1.9241,-1.9241,-1.9539,-2.0044,-2.0538,-2.0745,-2.0768,-2.1086,-2.1374,-2.156,-2.1305,-2.1545,-2.1958,0.0,0.0,0.0,0.0,0.0,0.0,0.0,0.0,0.0,0.0,0.0,-1.4198,-1.4277,0.0,0.0,0.0,-1.2345,0.0,0.0,0.0,0.0,0.0,0.0,0.0,0.0,0.0,0.0,0.0,0.0,0.0,-1.5545,-1.534,-1.5097,0.0,-1.5822,0.0,0.0,0.0,0.0,-1.4017,-1.4416,-1.5181,-1.6155,-1.6915,-1.8212,-1.9595,-1.9494,-1.9546,-1.9696,-1.9743,-1.9942,-2.0216,-2.0372,0.0,0.0,0.0,0.0,0.0,0.0,0.0,0.0,0.0,0.0,0.0,0.0,0.0,0.0,0.0,0.0,0.0,0.0,0.0,0.0,0.0,0.0,0.0,0.0,0.0,0.0,0.0,0.0,0.0,0.0,0.0,0.0,0.0,-1.5664,-1.5661,-1.6283,-1.6312,-1.6866,-1.8066,-1.8093,-1.8402,-1.8987,-1.8934,-1.8801,-1.8587,-1.81,-1.7936,-1.8084,-1.7936,-1.8168,-1.8713,-1.8839,-1.9126,-1.9528,-2.0021,-2.0297,-2.0446,-2.0856,-2.1284,-2.1686,-2.1339,-2.1527,-2.1978,0.0,0.0,0.0,0.0,0.0,0.0,0.0,0.0,0.0,0.0,0.0,-1.3353,-1.3628,-1.3139,-1.2777,-1.2764,-1.2465,0.0,0.0,0.0,0.0,0.0,0.0,0.0,0.0,0.0,0.0,0.0,0.0,0.0,-1.5443,-1.6742,-1.7071,-1.6575,-1.6783,-1.612,-1.4966,0.0,0.0,-1.3797,-1.5698,-1.6621,-1.7041,-1.8997,-2.0026,-2.0411,-1.9994,-1.9857,-1.9833,-1.9479,-1.9578,-1.9902,-1.9942,-2.0255,-2.0605,0.0,0.0,0.0,0.0,0.0,0.0,0.0,0.0,0.0,0.0,0.0,0.0,0.0,0.0,0.0,0.0,0.0,0.0,0.0,0.0,0.0,0.0,0.0,0.0,0.0,0.0,0.0,0.0,0.0,0.0,0.0,-1.5664,-1.5661,-1.6283,-1.6312,-1.6866,-1.8066,-1.8093,-1.8402,-1.8987,-1.8747,-1.8614,-1.8587,-1.7683,-1.7556,-1.8084,-1.7501,-1.7567,-1.818,-1.869,-1.8908,-1.8977,-1.9516,-1.9998,-2.0412,-2.0435,-2.0756,-2.1224,-2.1201,-2.1296,-2.1466,0.0,0.0,0.0,0.0,0.0,0.0,0.0,0.0,0.0,0.0,0.0,0.0,0.0,-1.328,-1.3005,-1.2804,-1.2472,0.0,0.0,0.0,0.0,0.0,0.0,0.0,0.0,0.0,0.0,0.0,0.0,-1.4006,-1.5718,-1.6317,-1.7057,-1.7912,-1.7597,-1.7247,-1.6833,-1.7009,0.0,-1.642,-1.7181,-1.7749,-1.8202,-1.9096,-2.0032,-2.0814,-2.0122,-1.9893,-1.987,-1.9577,-1.9666,-1.9894,-1.9745,-1.9918,-2.0146,-2.0146,0.0,0.0,0.0,0.0,0.0,0.0,0.0,0.0,0.0,0.0,0.0,0.0,0.0,0.0,0.0,0.0,0.0,0.0,0.0,0.0,0.0,0.0,0.0,0.0,0.0,0.0,0.0,0.0,0.0,0.0,0.0,-1.6738,-1.7418,-1.7451,-1.7847,-1.8655,-1.8682,-1.8762,-1.8987,-1.8721,-1.8425,-1.8023,-1.7462,-1.7118,-1.6933,-1.7118,-1.7313,-1.7556,-1.8129,-1.8387,-1.8421,-1.8965,-1.9287,-1.9505,-2.0159,-2.0527,-2.0722,-2.1075,-2.1221,-2.1316,0.0,0.0,0.0,-2.1406,0.0,-1.905,-1.7278,-1.6062,-1.4995,-1.3898,0.0,0.0,0.0,0.0,-1.3233,-1.2965,-1.2719,-1.2559,-1.2458,0.0,0.0,0.0,0.0,0.0,0.0,0.0,0.0,0.0,0.0,0.0,0.0,-1.6656,-1.7616,-1.8519,-1.7989,-1.7786,0.0,0.0,0.0,-1.7505,-1.8226,-1.8711,-1.9021,-1.9615,-2.0434,-2.12,-2.0223,-1.9976,-2.0063,0.0,-1.9788,-1.9894,-1.9735,-1.9715,-1.9707,-1.9707,-1.9805,0.0,0.0,0.0,0.0,0.0,0.0,0.0,0.0,0.0,0.0,0.0,0.0,0.0,0.0,0.0,0.0,0.0,0.0,0.0,0.0,0.0,0.0,0.0,0.0,0.0,0.0,0.0,0.0,0.0,0.0,0.0,-1.8061,-1.8093,-1.8375,-1.8987,-1.8987,-1.8987,-1.8987,-1.8521,-1.8116,-1.7694,-1.695,-1.65,-1.6301,-1.6726,-1.6894,-1.6922,-1.7529,-1.7909,-1.8134,-1.8478,-1.8747,-1.8977,-1.9838,-2.0262,-2.0469,-2.1006,-2.119,-2.1265,-2.2003,-2.1865,-2.1283,-2.0034,-1.8731,-1.7455,-1.6221,-1.4685,-1.3761,-1.4048,0.0,0.0,0.0,0.0,0.0,-1.3233,-1.3213,-1.308,-1.2804,-1.2784,0.0,0.0,0.0,0.0,0.0,0.0,0.0,0.0,0.0,0.0,0.0,0.0,-1.8722,-1.836,-1.7919,-1.7625,-1.7562,0.0,-1.7819,-1.6778,0.0,-1.9435,-1.9393,0.0,-2.1312,-2.1504,-2.0332,-2.0149,0.0,-2.0003,0.0,-1.9902,-1.9874,-1.9601,-1.9248,-1.9268,-1.957,-1.9893,0.0,0.0,0.0,0.0,0.0,0.0,0.0,0.0,0.0,0.0,0.0,0.0,0.0,0.0,0.0,0.0,0.0,0.0,0.0,0.0,0.0,0.0,0.0,0.0,0.0,0.0,0.0,0.0,-1.7284,-1.738,-1.81,-1.812,-1.8402,-1.8987,-1.8987,-1.8987,-1.8987,-1.8131,-1.7694,-1.7655,-1.6122,-1.569,-1.6255,-1.6283,-1.6283,-1.6312,-1.6922,-1.7501,-1.8057,-1.8057,-1.837,-1.8891,-1.943,-1.9964,-2.0446,-2.0983,-2.1178,-2.1265,-2.1385,-2.1015,-2.0593,-2.0202,-1.8844,-1.7431,-1.6432,-1.5503,-1.4726,0.0,0.0,0.0,-1.4082,-1.378,-1.3487,-1.3233,-1.3213,-1.308,-1.2804,-1.2784,-1.265,-1.2318,-1.2305,-1.2305,0.0,0.0,0.0,0.0,0.0,0.0,0.0,0.0,0.0,0.0,-1.8142,-1.8088,-1.7627,-1.755,0.0,-1.9146,-1.8635,-1.9105,0.0,0.0,0.0,0.0,0.0,-2.0204,-1.9985,0.0,-1.9561,-1.9651,-1.9354,-1.8728,-1.8234,-1.865,-1.9121,-1.9463,-1.9463,0.0,0.0,0.0,0.0,0.0,0.0,0.0,0.0,0.0,0.0,0.0,0.0,0.0,0.0,0.0,0.0,0.0,0.0,0.0,0.0,0.0,0.0,0.0,0.0,0.0,0.0,0.0,-1.8761,-1.8793,-1.8756,-1.8735,-1.8815,-1.8987,-1.8987,-1.8987,-1.8987,-1.8131,-1.7462,-1.6968,-1.5911,-1.5274,-1.502,-1.5439,-1.5661,-1.569,-1.6283,-1.6641,-1.6793,-1.6793,-1.7149,-1.7717,-1.8267,-1.9043,-1.9953,-2.0435,-2.0879,-2.1221,-2.1114,-2.0988,-2.0576,-1.9639,-1.8539,-1.7293,-1.582,-1.517,-1.4699,0.0,0.0,0.0,-1.4088,-1.4041,-1.3853,-1.3601,-1.3574,-1.3394,-1.3005,-1.2978,-1.279,-1.2318,-1.2305,-1.2305,-1.2305,0.0,0.0,0.0,0.0,0.0,0.0,0.0,0.0,0.0,-1.8123,-1.8218,-1.8184,-1.7532,0.0,0.0,-1.891,0.0,0.0,-1.9911,-2.0177,0.0,0.0,0.0,-1.9847,-1.965,-1.9577,0.0,-1.9125,-1.8658,-1.8299,-1.8543,-1.8945,-1.9326,-1.9502,-1.9727,0.0,0.0,0.0,0.0,0.0,-2.0049,0.0,0.0,0.0,0.0,0.0,0.0,0.0,0.0,0.0,0.0,0.0,0.0,0.0,0.0,0.0,0.0,0.0,-2.0834,-2.0807,-2.0003,-2.0073,-1.993,-1.9357,-1.9107,-1.8987,-1.8987,-1.8987,-1.8987,-1.8987,-1.8131,-1.7368,-1.6687,-1.5825,-1.5069,-1.4515,-1.5128,-1.5274,-1.5049,-1.5661,-1.5777,-1.5555,-1.5555,-1.6054,-1.6881,-1.7413,-1.8291,-1.9355,-1.9851,-2.0503,-2.1221,0.0,-2.1286,-2.0829,-1.8677,-1.7977,-1.6978,-1.4817,-1.4275,-1.4088,0.0,-1.4088,-1.4088,-1.4088,-1.4315,-1.4382,-1.4155,-1.4108,-1.3861,-1.334,-1.3247,-1.2953,-1.2378,-1.2318,-1.2305,-1.2342,-1.3237,0.0,0.0,0.0,0.0,0.0,0.0,0.0,0.0,-1.7982,-1.8174,-1.8822,-1.8027,-1.7448,-1.7249,-1.9128,-1.9462,0.0,0.0,-2.0191,-2.0292,-1.9613,-1.9586,-1.982,-1.982,-1.9675,0.0,-1.9126,-1.9006,-1.8927,-1.8721,-1.9014,0.0,-1.9756,-1.9883,-1.999,-2.0312,-2.0098,0.0,-2.0273,-2.0088,0.0,0.0,0.0,0.0,0.0,0.0,0.0,0.0,0.0,0.0,0.0,0.0,0.0,0.0,0.0,0.0,-2.1223,-2.1861,-2.1972,-2.1223,-2.1029,-2.0631,-1.9853,-1.9302,-1.8987,-1.8987,-1.8987,-1.896,-1.8907,-1.805,-1.7285,-1.6602,-1.5738,-1.504,-1.4515,-1.5049,-1.502,-1.4545,-1.5079,-1.499,-1.4515,-1.4515,-1.5157,-1.6239,-1.6807,-1.766,-1.8693,-1.93,-2.0205,-2.1152,-2.0558,-2.0348,-1.9698,-1.8495,-1.7395,-1.6192,-1.473,-1.4275,-1.4088,-1.4088,-1.4088,-1.4088,-1.4088,-1.4135,-1.4242,-1.4422,-1.4222,-1.4041,-1.3921,-1.3474,-1.3046,-1.2717,-1.2432,-1.2378,-1.2526,-1.3317,-1.4178,0.0,0.0,0.0,0.0,0.0,0.0,0.0,-1.7979,-1.8037,-1.8232,-1.8579,0.0,-1.7051,-1.7705,0.0,-1.9825,-1.9356,-1.9295,-1.9558,-1.9701,-1.9641,-1.9421,-1.9421,-1.9164,-1.8922,0.0,-1.9013,-1.882,-1.9071,-1.9463,-1.9736,-1.9482,-1.9658,-1.9766,-1.9124,-1.9209,0.0,-1.9072,-1.9219,-1.9434,0.0,0.0,0.0,0.0,0.0,0.0,0.0,0.0,0.0,0.0,0.0,0.0,0.0,0.0,0.0,-2.1594,-2.1991,-2.2046,-2.1693,-2.0663,-1.9993,-1.9793,-1.9302,-1.8987,-1.8987,-1.8987,-1.8774,-1.8294,-1.7529,-1.6775,-1.6036,-1.5235,-1.4725,-1.4515,-1.4625,-1.4595,-1.4515,-1.4625,-1.4595,-1.4515,-1.4515,-1.4931,-1.5613,-1.6243,-1.7132,-1.8251,-1.9276,-2.0045,-2.0638,-2.0149,-2.0312,-1.9896,-1.829,-1.7544,-1.6542,-1.4774,-1.4275,-1.4135,-1.4282,-1.4436,-1.4512,-1.4322,-1.4302,-1.4362,-1.4502,-1.4255,-1.4021,-1.3874,-1.3454,-1.3073,-1.2797,-1.2496,-1.2556,-1.3142,-1.3991,-1.4985,0.0,0.0,0.0,0.0,0.0,0.0,0.0,-1.8105,-1.8125,-1.8305,0.0,-1.8218,-1.7855,-1.8323,0.0,-1.8647,-1.8756,-1.8754,-1.8742,-1.8914,-1.8859,-1.8742,-1.8944,-1.888,0.0,-1.9069,-1.9212,-1.9307,0.0,-1.9671,-1.9912,-1.9922,-1.9922,-1.9814,-1.9348,0.0,0.0,0.0,-1.8965,-1.9023,-1.9238,0.0,0.0,0.0,0.0,0.0,0.0,0.0,0.0,0.0,0.0,0.0,0.0,0.0,0.0,-2.2322,-2.2838,-2.3058,-2.2831,-2.1689,-2.0863,-2.061,-1.9856,-1.9411,-1.9411,-1.9158,-1.8709,-1.8093,-1.7667,-1.6916,-1.5902,-1.5381,-1.4931,-1.4515,-1.4515,-1.4515,-1.4515,-1.4515,-1.4515,-1.4515,-1.4515,-1.4684,-1.502,-1.5613,-1.6543,-1.7699,-1.8799,-1.9693,-2.0511,-1.9875,-2.0334,-2.0095,-1.8032,-1.7644,-1.6891,-1.4817,-1.4275,-1.4168,0.0,0.0,-1.485,-1.4556,-1.4569,-1.4629,-1.4683,-1.4422,-1.4155,-1.3873,-1.3574,-1.324,-1.2971,-1.2616,-1.2859,-1.3842,-1.4804,-1.5796,-1.6754,0.0,0.0,0.0,0.0,0.0,0.0,0.0,0.0,0.0,0.0,0.0,-1.8773,0.0,-1.8536,-1.7298,-1.8276,-1.8332,-1.7895,-1.8044,-1.8091,-1.8145,-1.8577,-1.8715,-1.8762,-1.9017,-1.9492,0.0,0.0,0.0,-2.0117,0.0,0.0,-2.0,-1.9834,0.0,-1.9346,0.0,0.0,0.0,-1.8984,0.0,0.0,0.0,0.0,0.0,0.0,0.0,0.0,0.0,0.0,0.0,0.0,0.0,0.0,0.0,-2.3811,-2.4108,-2.3944,-2.2847,-2.2005,-2.1584,-2.043,-1.9856,-1.9937,-1.9324,-1.8703,-1.8093,-1.786,-1.7056,-1.5729,-1.5536,-1.5108,-1.4515,-1.4515,-1.4515,-1.4515,-1.4515,-1.4515,-1.4515,-1.4515,-1.4515,-1.4565,-1.5157,-1.6036,-1.7091,-1.8159,-1.9283,-2.0434,-1.982,-1.9572,-1.8972,-1.7905,-1.707,-1.6104,-1.473,-1.4275,-1.4095,0.0,0.0,0.0,0.0,0.0,0.0,0.0,0.0,0.0,-1.4861,-1.4295,-1.3854,-1.3513,-1.3038,-1.3261,-1.438,-1.5275,-1.627,-1.7386,0.0,0.0,0.0,0.0,-1.8559,-1.8617,-1.8994,0.0,0.0,0.0,-1.917,0.0,-1.8861,-1.8253,0.0,-1.8212,-1.7877,-1.7203,-1.7858,-1.8091,-1.8145,0.0,-1.8715,-1.8817,0.0,-1.9717,-1.9932,-2.0168,0.0,0.0,0.0,0.0,0.0,0.0,-1.96,0.0,0.0,0.0,-1.851,-1.8223,0.0,0.0,0.0,0.0,0.0,0.0,0.0,0.0,0.0,0.0,0.0,0.0,0.0,0.0,0.0,-2.4261,-2.4451,-2.4412,-2.3039,-2.2161,-2.2101,-2.0622,-2.0009,-2.0502,-1.9528,-1.8678,-1.8037,-1.7403,-1.6446,-1.5088,-1.4893,-1.4695,-1.4515,-1.4515,-1.4515,-1.4515,-1.4515,-1.4515,-1.4515,-1.4515,-1.4515,-1.4565,-1.5157,-1.5807,-1.6532,-1.7644,-1.889,-2.0064,-1.8748,-1.8811,-1.828,-1.6661,-1.6385,-1.5907,-1.4507,-1.4456,-1.464,0.0,0.0,0.0,0.0,0.0,0.0,0.0,0.0,-1.5189,0.0,0.0,-1.4549,-1.4367,-1.4289,-1.4678,-1.5586,-1.6516,-1.7406,-1.8138,-1.8708,0.0,0.0,0.0,-1.9014,-1.9033,-1.9463,0.0,-1.9648,0.0,-1.9365,0.0,0.0,0.0,0.0,-1.7617,-1.7484,-1.6973,-1.727,-1.7386,-1.7477,0.0,-1.8174,0.0,0.0,0.0,0.0,-2.0225,0.0,0.0,0.0,0.0,0.0,0.0,0.0,0.0,-1.8461,0.0,-1.8188,0.0,0.0,0.0,0.0,0.0,0.0,0.0,0.0,0.0,0.0,0.0,0.0,0.0,0.0,0.0,0.0,0.0,0.0,0.0,-2.364,-2.2999,-2.2666,-2.1428,-2.0652,-2.0439,-1.945,-1.8464,-1.7427,-1.678,-1.597,-1.5,-1.4813,-1.4636,-1.4515,-1.4515,-1.4515,-1.4515,-1.4515,-1.4515,-1.4515,-1.4515,-1.4515,-1.4545,-1.4793,-1.5468,-1.6449,-1.7568,-1.8753,-1.9894,-1.735,-1.7565,-1.7361,-1.5772,-1.5807,-1.5629,-1.4518,-1.4733,-1.5008,-1.5008,0.0,0.0,-1.5378,-1.5084,0.0,0.0,-1.5591,-1.5478,0.0,0.0,-1.5165,-1.503,-1.5255,-1.5832,-1.6674,-1.7605,-1.836,-1.8948,-1.9307,0.0,0.0,0.0,-1.9287,-1.9307,0.0,-1.9912,-1.9912,0.0,-1.9629,-1.9104,-1.8657,-1.775,-1.6724,-1.6925,-1.6968,-1.6908,-1.6908,-1.6908,-1.6963,-1.7358,-1.7697,0.0,-1.8638,0.0,-1.9601,0.0,0.0,0.0,-2.039,0.0,0.0,0.0,0.0,0.0,0.0,0.0,0.0,0.0,0.0,0.0,0.0,0.0,0.0,0.0,0.0,0.0,0.0,0.0,0.0,0.0,0.0,0.0,0.0,0.0,0.0,0.0,0.0,-2.3782,-2.3264,-2.203,-2.1068,-2.0553,-1.9272,-1.8162,-1.7221,-1.6448,-1.5681,-1.5,-1.4754,-1.4586,-1.4515,-1.4515,-1.4515,-1.4515,-1.4515,-1.4515,-1.4515,-1.4515,-1.4515,-1.4515,-1.4515,-1.5245,-1.641,-1.7273,-1.8543,-1.9912,-1.5643,-1.5692,0.0,-1.5812,-1.536,-1.5046,-1.4981,-1.4995,-1.5008,-1.5008,0.0,0.0,0.0,0.0,0.0,0.0,0.0,-1.5999,-1.5424,0.0,-1.5631,-1.5308,-1.5532,-1.625,-1.7422,-1.8144,-1.8918,-1.9873,-1.9883,-1.9883,0.0,0.0,0.0,0.0,-1.9727,-1.9912,-1.9912,-1.9912,-2.0137,-2.0429,-1.9104,-1.823,-1.7535,0.0,-1.6298,-1.6908,-1.6908,0.0,0.0,-1.7358,-1.7504,0.0,0.0,0.0,0.0,0.0,0.0,0.0,0.0,0.0,0.0,-1.9404,0.0,0.0,0.0,0.0,-1.8125,0.0,0.0,0.0,0.0,0.0,0.0,-1.8578,0.0,0.0,0.0,0.0,0.0,0.0,0.0,0.0,0.0,0.0,0.0,0.0,0.0,0.0,-2.3806,-2.2095,-2.1101,-2.108,-1.9037,-1.7868,-1.7781,-1.6523,-1.5594,-1.5,-1.4654,-1.4515,-1.4515,-1.4515,-1.4515,-1.4515,-1.4515,-1.4515,-1.4515,-1.4515,-1.4515,-1.4515,-1.4515,-1.5245,-1.6312,-1.6503,-1.8087,-2.0205,0.0,0.0,0.0,0.0,0.0,-1.5075,-1.5217,-1.5129,-1.5075,0.0,0.0,0.0,0.0,-1.5598,-1.5618,0.0,0.0,-1.6498,-1.6252,-1.6503,0.0,-1.6992,-1.7641,-1.812,0.0,-1.9615,-2.0139,-1.9912,-2.0205,-2.0195,0.0,0.0,0.0,0.0,0.0,-2.0185,0.0,0.0,0.0,0.0,0.0,-1.812,-1.752,0.0,-1.689,-1.7072,-1.6943,-1.6908,0.0,-1.7195,-1.7381,-1.7594,-1.822,-1.8556,-1.8765,-1.9105,-1.926,0.0,0.0,0.0,-1.8997,-1.8851,0.0,0.0,0.0,0.0,0.0,0.0,0.0,0.0,0.0,0.0,0.0,0.0,0.0,0.0,0.0,0.0,0.0,0.0,0.0,0.0,0.0,0.0,0.0,0.0,-2.4784,0.0,0.0,-2.2402,-2.1274,-2.0463,-1.8737,-1.7543,-1.6939,-1.5859,-1.5137,-1.4813,-1.4595,-1.4515,-1.4515,-1.4515,-1.4515,-1.4515,-1.4515,-1.4515,-1.4515,-1.4515,-1.4515,-1.4563,-1.5324,-1.5949,-1.6495,-1.6885,-1.8284,-2.0112,-1.4435,0.0,0.0,0.0,0.0,-1.5109,-1.5351,-1.515,0.0,0.0,-1.5237,0.0,-1.5731,0.0,-1.5631,0.0,-1.6426,-1.6679,-1.6677,-1.7036,0.0,-1.8284,-1.9006,0.0,0.0,-2.0912,-2.1073,-2.0342,-2.0664,-2.0576,0.0,0.0,0.0,0.0,0.0,-1.9873,-1.9521,0.0,-2.0488,0.0,0.0,-1.812,0.0,0.0,-1.721,-1.7072,0.0,-1.6908,-1.6908,-1.7038,-1.7169,-1.7355,-1.7833,-1.8038,-1.8218,-1.8405,-1.8463,-1.8533,-1.8533,-1.8364,0.0,-1.8159,-1.7988,0.0,-1.7978,0.0,-1.8174,0.0,0.0,0.0,0.0,0.0,0.0,0.0,0.0,0.0,0.0,-2.0719,0.0,0.0,0.0,0.0,0.0,0.0,-2.4915,-2.5276,0.0,0.0,0.0,0.0,-2.1618,-2.0435,-1.8628,-1.7305,-1.6507,-1.5417,-1.4843,-1.4715,-1.4556,-1.4515,-1.4515,-1.4515,-1.4515,-1.4515,-1.4515,-1.4515,-1.4515,-1.4515,-1.4515,-1.4593,-1.5544,-1.6144,-1.6623,-1.7595,-1.9018,-2.0564,-1.4202,0.0,0.0,0.0,-1.5042,0.0,0.0,0.0,-1.5122,0.0,-1.5391,-1.5504,-1.5731,-1.5758,-1.5859,-1.615,-1.6464,-1.6663,-1.6623,-1.7141,0.0,0.0,-1.9448,-2.0279,-2.1542,-2.1749,-2.1641,-2.1161,-2.1161,-2.0967,0.0,0.0,0.0,0.0,-1.9297,0.0,-1.8715,-2.0029,-2.0106,-1.9248,-1.8773,-1.824,-1.7672,-1.7529,-1.722,-1.6908,-1.6908,-1.6908,-1.6908,-1.6908,-1.6908,-1.6943,-1.7141,-1.7182,-1.7133,-1.6968,-1.6992,-1.7052,-1.7095,-1.7236,-1.7353,-1.7353,-1.7353,0.0,0.0,0.0,-1.8184,0.0,0.0,0.0,0.0,0.0,0.0,0.0,0.0,0.0,0.0,0.0,0.0,0.0,0.0,0.0,0.0,0.0,-2.4218,-2.5192,-2.5264,0.0,0.0,0.0,-2.2128,-2.0929,-1.8648,-1.7129,-1.6507,-1.5308,-1.4715,-1.4686,-1.4556,-1.4515,-1.4515,-1.4515,-1.4515,-1.4515,-1.4515,-1.4515,-1.4515,-1.4515,-1.4515,-1.4575,-1.5244,-1.5972,-1.6889,-1.8589,-2.015,-2.1476,-1.499,-1.5291,-1.5451,0.0,-1.5464,-1.5484,0.0,0.0,0.0,0.0,-1.5264,-1.5424,-1.5504,-1.5504,-1.5511,-1.5604,-1.5818,0.0,0.0,0.0,0.0,-1.8089,-1.909,-1.9648,-1.9687,-2.0786,-2.1182,-2.0732,0.0,0.0,-2.0078,0.0,0.0,0.0,0.0,0.0,-1.9189,-2.0194,-2.0106,-1.9248,-1.8695,-1.8085,-1.7529,0.0,-1.7107,-1.6908,-1.6908,-1.6908,-1.6934,-1.7063,-1.7003,-1.6978,-1.7323,-1.7107,-1.6801,-1.6997,-1.6846,-1.6661,-1.6799,-1.6831,-1.6863,-1.6863,-1.6863,-1.6892,0.0,0.0,0.0,0.0,0.0,0.0,0.0,0.0,0.0,0.0,0.0,0.0,0.0,0.0,0.0,-2.3095,0.0,0.0,0.0,-2.3953,-2.4446,-2.4699,-2.4723,0.0,0.0,0.0,0.0,-2.0929,-1.8209,-1.6614,-1.6287,-1.5247,-1.4666,-1.4565,-1.4506,-1.4515,-1.4515,-1.4515,-1.4515,-1.4515,-1.4515,-1.4515,-1.4515,-1.4515,-1.4515,-1.4653,-1.6098,-1.7685,-1.9189,-1.9412,-2.0297,-2.1416,-1.5331,0.0,0.0,-1.5812,0.0,0.0,-1.5244,-1.5184,0.0,-1.5157,-1.5184,0.0,-1.5384,-1.5284,-1.5249,-1.5334,-1.5568,0.0,-1.6567,0.0,0.0,-1.8063,-1.8696,-1.9318,-1.9937,-2.0583,0.0,-2.0859,0.0,0.0,-1.9912,0.0,0.0,0.0,0.0,-1.9496,0.0,-1.9374,-1.9343,-1.8877,-1.8299,-1.7808,0.0,-1.7245,-1.7072,-1.6908,-1.6908,-1.6908,-1.6908,-1.7038,-1.6892,-1.6686,-1.6983,-1.6693,-1.6328,-1.6398,-1.6347,-1.6179,-1.6067,-1.6101,-1.6122,-1.6122,-1.6122,-1.6229,-1.6609,-1.6697,-1.6824,0.0,-1.7715,-1.8027,0.0,0.0,0.0,0.0,0.0,0.0,0.0,0.0,0.0,0.0,-2.3011,0.0,-2.3011,-2.3713,-2.4278,-2.4472,-2.4735,0.0,0.0,0.0,0.0,-2.0756,-1.8247,-1.6699,-1.6192,-1.5207,-1.4636,-1.4515,-1.4515,-1.4515,-1.4515,-1.4515,-1.4515,-1.4515,-1.4515,-1.4515,-1.4515,-1.4515,-1.4654,-1.5068,-1.6728,-1.8232,-1.9434,-1.936,-2.0217,-2.1404,-1.5504,0.0,0.0,0.0,0.0,0.0,0.0,-1.5237,0.0,-1.5317,0.0,-1.5129,-1.5264,-1.5057,-1.4986,-1.5195,0.0,-1.5669,-1.5931,-1.6422,-1.7169,-1.8128,-1.8173,-1.8935,-2.0585,-2.0525,-2.0641,0.0,-2.0781,-2.04,0.0,0.0,0.0,0.0,0.0,0.0,0.0,-1.8404,-1.8421,-1.8382,-1.7849,-1.7467,-1.7201,-1.7166,-1.7038,-1.6908,-1.6908,-1.6908,-1.6908,-1.6908,-1.6642,-1.6346,-1.6452,-1.6202,-1.5828,-1.5659,-1.567,-1.5637,-1.5311,-1.5313,-1.541,-1.541,-1.541,-1.5615,-1.6356,-1.6531,-1.6638,-1.7041,-1.7461,-1.7646,0.0,0.0,0.0,0.0,0.0,0.0,0.0,0.0,0.0,0.0,0.0,0.0,0.0,-2.3433,-2.3881,-2.4386,-2.4843,0.0,0.0,0.0,0.0,-2.0459,-1.8404,-1.6962,-1.6224,0.0,-1.4606,-1.4515,-1.4515,-1.4515,-1.4515,-1.4515,-1.4515,-1.4515,-1.4515,-1.4515,-1.4515,-1.4595,-1.502,-1.5806,-1.7185,-1.8077,-1.8667,-1.8907,-1.9925,-2.1187,-1.6072,0.0,0.0,0.0,0.0,-1.5872,-1.5772,-1.5712,-1.5524,-1.5142,-1.5204,-1.5157,-1.4723,-1.4629,-1.4596,-1.464,-1.462,0.0,0.0,0.0,0.0,-1.6334,-1.7036,-1.7439,-1.7474,-1.9156,-1.9887,-1.965,-2.0609,-2.0664,-1.9912,0.0,0.0,0.0,0.0,0.0,-1.9342,-1.9006,0.0,-1.8558,-1.764,-1.7235,-1.7166,-1.7003,-1.6943,-1.6908,-1.6908,-1.6908,-1.6908,-1.6908,-1.6701,-1.6485,-1.6485,-1.6103,-1.5681,-1.5727,-1.556,-1.5302,-1.5352,-1.5391,-1.541,-1.541,-1.541,-1.5449,-1.5576,-1.5644,-1.5664,-1.5742,-1.6103,-1.6418,-1.6339,0.0,0.0,0.0,0.0,0.0,0.0,0.0,0.0,0.0,0.0,-2.2498,0.0,-2.3063,-2.3372,-2.389,0.0,0.0,0.0,0.0,0.0,0.0,-1.7655,0.0,0.0,0.0,-1.4506,-1.4515,-1.4515,-1.4515,-1.4515,-1.4515,-1.4515,-1.4515,-1.4515,-1.4515,-1.4536,-1.5049,-1.595,-1.7101,-1.7639,-1.8236,-1.8798,-1.8934,-1.9444,-2.0097,0.0,0.0,0.0,0.0,0.0,0.0,0.0,-1.5605,-1.5504,-1.5224,-1.5185,-1.5021,-1.473,-1.464,-1.4581,-1.4581,-1.4705,-1.4951,-1.5347,-1.5447,-1.553,-1.5622,-1.6022,-1.6391,-1.6698,-1.7871,-1.8743,-1.9301,-1.9823,-2.004,-1.9912,0.0,0.0,0.0,0.0,-1.9587,0.0,0.0,0.0,-1.8495,-1.8024,-1.7581,-1.7201,-1.7107,-1.7003,-1.6908,-1.6908,-1.6908,-1.6908,-1.6908,-1.6529,-1.6104,-1.6169,-1.577,-1.5333,-1.5453,-1.5389,-1.5313,-1.5391,-1.541,-1.541,-1.541,-1.541,-1.541,-1.541,-1.5244,-1.5146,-1.5371,-1.541,-1.5566,-1.6016,-1.6611,0.0,0.0,0.0,0.0,0.0,0.0,-2.0973,0.0,0.0,0.0,0.0,0.0,0.0,0.0,0.0,0.0,0.0,0.0,0.0,0.0,0.0,0.0,0.0,0.0,0.0,-1.4616,-1.4536,-1.4515,-1.4515,-1.4515,-1.4515,-1.4515,-1.4515,-1.4684,-1.5049,-1.6036,-1.6821,-1.7462,-1.8116,-1.8545,-1.8825,-1.8946,-1.9351,-1.9844,0.0,-1.6406,0.0,0.0,-1.6086,0.0,-1.5464,-1.5344,-1.5284,-1.5217,-1.4994,-1.477,-1.4745,-1.4683,-1.465,-1.465,-1.4866,-1.5048,-1.509,-1.5257,-1.5347,-1.5389,-1.5389,-1.5707,-1.6419,-1.6964,-1.7755,0.0,-1.9141,-1.9453,0.0,-1.9886,-1.9697,-1.9307,0.0,0.0,0.0,0.0,-1.916,-1.8397,-1.8321,-1.7804,-1.7132,-1.7132,-1.7038,-1.6908,-1.6908,-1.6908,-1.6908,-1.6908,-1.6367,-1.5753,-1.5849,-1.5489,-1.5029,-1.5127,-1.5225,-1.5303,-1.5303,-1.5303,-1.5332,-1.5362,-1.5284,-1.5245,-1.5283,-1.4951,-1.4736,-1.5068,-1.4951,-1.5048,-1.5811,-1.6525,0.0,0.0,0.0,0.0,0.0,0.0,0.0,0.0,0.0,0.0,-2.2836,0.0,0.0,0.0,0.0,0.0,-2.0635,0.0,0.0,0.0,0.0,-1.6602,-1.6434,0.0,-1.4843,-1.4656,-1.4565,-1.4515,-1.4515,-1.4515,-1.4515,-1.4515,-1.4654,-1.5128,-1.5921,-1.7045,-1.7584,-1.7776,-1.8533,-1.8851,-1.8878,-1.8972,-1.9278,-1.9712,0.0,0.0,0.0,0.0,0.0,0.0,-1.5404,-1.517,-1.4955,-1.4636,-1.4556,-1.4422,-1.4197,-1.4341,-1.444,-1.444,-1.4608,-1.4824,-1.5082,-1.5131,-1.5215,-1.5389,-1.5389,-1.5431,-1.5506,-1.6721,-1.7375,0.0,0.0,-1.9734,0.0,-1.9812,-1.9697,-1.9307,0.0,0.0,0.0,-1.9677,-1.9183,-1.8359,-1.7985,-1.7487,-1.6943,-1.6943,-1.6908,-1.6908,-1.6908,-1.6908,-1.6908,-1.6908,-1.6468,-1.5882,-1.5882,-1.5489,-1.5,-1.5029,-1.5029,-1.5029,-1.5029,-1.5029,-1.5059,-1.5186,-1.4936,-1.4703,-1.4816,-1.4502,-1.4182,-1.4221,-1.4531,-1.4932,-1.5381,-1.5537,-1.5743,0.0,0.0,0.0,0.0,0.0,-2.0749,-2.0258,0.0,0.0,0.0,0.0,0.0,0.0,0.0,0.0,0.0,0.0,0.0,-1.812,0.0,-1.6434,-1.6224,-1.5247,-1.4666,-1.4506,-1.4506,-1.4515,-1.4515,-1.4515,-1.4515,-1.4545,-1.5069,-1.6036,-1.724,-1.7678,-1.8182,-1.8691,-1.8893,-1.8999,-1.8999,-1.8987,-1.9023,-1.9143,0.0,0.0,0.0,0.0,0.0,0.0,0.0,-1.4776,-1.4589,-1.4302,-1.4545,-1.4625,-1.4313,-1.4447,-1.465,-1.4824,-1.4873,-1.5041,-1.5257,-1.5257,-1.5305,-1.5389,-1.5389,-1.5389,-1.5389,-1.6342,-1.6823,0.0,0.0,0.0,0.0,-1.9485,-1.9389,-1.9162,0.0,-2.0005,-1.9773,-1.9821,-1.9345,-1.8562,-1.8402,-1.7834,-1.7072,-1.7072,-1.7003,-1.6908,-1.6908,-1.6908,-1.6908,-1.6908,-1.6401,-1.5785,-1.5785,-1.5356,-1.4813,-1.4813,-1.4911,-1.5029,-1.5098,-1.5127,-1.5147,-1.5284,-1.5022,-1.4729,-1.4785,-1.4258,-1.3802,-1.4055,-1.4241,-1.4531,-1.4951,-1.5244,-1.5469,-1.5644,0.0,0.0,0.0,0.0,0.0,-1.9378,0.0,-1.958,0.0,0.0,0.0,0.0,0.0,-2.2748,-2.0895,0.0,0.0,-1.8398,0.0,-1.6329,-1.637,-1.5247,-1.4565,-1.4255,-1.4197,-1.413,-1.413,-1.413,-1.4521,-1.5196,-1.6169,-1.6961,-1.7628,-1.8209,-1.8572,-1.8798,-1.8946,-1.8987,-1.8987,-1.8987,-1.8987,-1.9119,-1.5705,0.0,-1.5244,0.0,-1.497,-1.4763,-1.4556,-1.4449,-1.4349,-1.4229,-1.4494,-1.4572,-1.4348,-1.4482,-1.4699,-1.4873,-1.4957,-1.5041,-1.5166,-1.5173,-1.5173,-1.5173,-1.5257,0.0,-1.5305,-1.5819,-1.6335,-1.6775,-1.8046,0.0,-1.9226,-1.9396,-1.942,0.0,-1.9902,-2.0069,-1.9902,-1.9902,-1.9486,-1.8778,-1.8665,-1.8086,-1.7265,-1.7144,-1.7003,-1.6908,-1.6908,-1.6908,-1.6908,-1.6908,-1.6441,-1.5854,-1.5725,-1.5389,-1.4963,-1.4751,-1.4868,-1.5102,-1.5126,-1.5156,-1.5147,-1.5177,-1.4846,-1.4505,-1.4443,-1.3848,-1.3408,-1.3685,-1.3841,-1.4055,-1.4512,-1.4941,-1.5264,-1.5391,0.0,0.0,0.0,-1.7093,0.0,-1.8616,-1.8352,-1.861,-1.9919,0.0,0.0,0.0,0.0,-2.2446,-2.104,0.0,0.0,0.0,0.0,0.0,-1.6188,-1.5191,-1.4546,-1.421,-1.4123,-1.4066,-1.4066,-1.4258,-1.4888,-1.5862,-1.7006,-1.7667,-1.7995,-1.8614,-1.8878,-1.8866,-1.8972,-1.8987,-1.8987,-1.8987,-1.8987,-1.9119,-1.5398,-1.517,-1.4921,-1.4583,-1.4529,-1.4479,-1.4522,-1.4282,-1.4195,-1.4476,-1.4269,-1.4095,-1.4088,-1.4279,-1.4398,-1.4398,-1.4608,-1.4692,-1.4692,-1.4692,-1.4692,0.0,0.0,-1.509,-1.509,-1.5305,-1.592,-1.6908,0.0,0.0,-1.9091,-1.9645,-1.9902,-1.9902,-1.9902,-1.9902,-1.9902,-1.9902,-1.954,-1.8956,-1.8564,-1.8045,-1.744,-1.7055,-1.6908,-1.6908,-1.6908,-1.6908,-1.6908,-1.6908,-1.6642,-1.6206,-1.5817,-1.568,-1.5546,-1.4888,-1.4984,-1.5256,-1.5054,-1.5,-1.4934,-1.4676,-1.4271,-1.3838,-1.3597,-1.3193,-1.2915,-1.2915,-1.3232,-1.3617,-1.4036,-1.4502,-1.4932,-1.5342,0.0,0.0,0.0,-1.8021,0.0,-1.81,-1.8246,-1.8308,-1.807,0.0,0.0,0.0,0.0,-2.0294,-1.9768,0.0,0.0,-1.7162,-1.6516,0.0,-1.5401,-1.495,-1.4636,-1.4506,-1.4476,-1.4476,-1.4506,-1.5118,-1.5709,-1.633,-1.7296,-1.8034,-1.8614,-1.8881,-1.8987,-1.8987,-1.8987,-1.8987,-1.8987,-1.8987,-1.8987,-1.9071,-1.5149,-1.4863,-1.4629,-1.4536,-1.4355,-1.4222,-1.4222,-1.4142,-1.4122,-1.4215,-1.4142,-1.4088,-1.4088,-1.4166,-1.4328,0.0,-1.4524,-1.4699,0.0,-1.5041,-1.5041,-1.5173,-1.5257,-1.5298,-1.5298,-1.5474,-1.5567,-1.5654,0.0,0.0,0.0,-1.8949,-1.8935,-1.8856,-1.9429,-1.9627,-1.9499,-1.9499,-1.9071,-1.8377,-1.8248,-1.7742,-1.7082,-1.6954,-1.6908,-1.6908,-1.6908,-1.6908,-1.6908,-1.6908,-1.6817,-1.6652,-1.6248,-1.5918,-1.562,-1.5118,-1.5053,-1.5103,-1.4857,-1.4813,-1.4805,-1.4858,-1.4372,-1.3878,-1.3806,-1.3313,-1.2881,-1.2783,-1.2939,-1.3301,-1.3977,-1.4221,-1.4552,-1.5264,-1.5615,0.0,-1.6619,0.0,-1.7573,-1.7939,-1.8083,-1.8087,0.0,-1.8961,0.0,0.0,0.0,0.0,0.0,0.0,0.0,0.0,-1.6328,0.0,-1.5546,-1.4879,-1.4389,-1.4084,-1.4084,-1.4305,-1.4725,-1.5598,-1.6397,-1.7101,-1.7941,-1.8479,-1.8732,-1.8946,-1.8987,-1.8987,-1.8987,-1.8987,-1.8987,-1.8987,-1.8987,-1.9071,-1.4796,-1.4556,-1.4355,-1.4355,-1.4208,-1.4088,-1.4088,-1.4088,-1.4088,-1.4088,-1.4088,-1.4088,-1.4088,-1.4088,0.0,-1.4447,-1.4363,-1.4454,-1.4887,-1.4797,-1.4797,-1.4999,-1.5082,-1.5166,-1.5305,-1.5459,0.0,-1.5575,-1.7053,-1.7951,-1.8336,-1.8198,-1.8158,-1.8336,-1.8785,-1.9103,-1.9301,-1.9301,-1.8935,-1.8292,-1.8145,-1.7724,-1.711,-1.6963,-1.6908,-1.6908,-1.6908,-1.6908,-1.6908,-1.6908,-1.6908,-1.6862,-1.6615,-1.6358,-1.601,-1.5376,-1.5195,-1.5133,-1.4866,-1.4804,-1.4805,-1.4742,-1.4449,-1.4098,-1.3806,-1.3319,-1.2881,-1.2774,-1.2832,-1.3135,-1.3948,-1.4104,-1.4387,-1.5273,-1.5664,-1.6073,-1.6619,0.0,-1.7236,0.0,0.0,0.0,0.0,-1.8494,-1.8697,0.0,0.0,0.0,0.0,0.0,0.0,-1.744,-1.6056,-1.5296,-1.5258,-1.4745,-1.4378,-1.4121,-1.4371,-1.4773,-1.5385,-1.6318,-1.6961,-1.7446,-1.8306,-1.8706,-1.8798,-1.8946,-1.8987,-1.8987,-1.8987,-1.8987,-1.8987,-1.8987,-1.9119,-1.9387,-1.4489,-1.4269,-1.4088,0.0,-1.4088,0.0,-1.4088,-1.4088,-1.4088,-1.4088,-1.4088,-1.4088,-1.4088,-1.4088,-1.4088,-1.4088,0.0,0.0,0.0,-1.4124,-1.4201,-1.4398,-1.4608,-1.4824,-1.509,-1.5257,-1.5665,-1.6312,-1.7082,-1.7489,-1.761,-1.731,-1.7545,-1.8175,-1.7997,-1.8359,-1.9134,-1.9134,-1.8876,-1.8486,-1.8161,-1.7742,-1.7306,-1.6977,-1.6857,-1.683,-1.683,-1.6874,-1.6908,-1.6908,-1.6908,-1.6908,-1.6908,-1.689,-1.6676,-1.5642,-1.5352,-1.5272,-1.5072,-1.4999,-1.4846,-1.443,-1.4468,-1.4385,-1.3649,-1.3203,-1.2954,-1.292,-1.2954,-1.3184,-1.3997,-1.4172,-1.4465,-1.5322,-1.6141,-1.6697,-1.6697,-1.7109,-1.7529,0.0,0.0,0.0,-1.7906,-1.747,-1.7283,0.0,0.0,0.0,0.0,0.0,-1.7235,-1.6494,-1.5691,-1.5086,-1.4686,-1.4556,-1.4515,-1.4565,-1.5157,-1.5777,-1.6397,-1.7101,-1.7446,-1.7529,-1.8398,-1.8798,-1.8798,-1.8946,-1.8987,-1.8987,-1.8987,-1.8987,-1.8999,-1.9035,-1.9387,-1.988,0.0,0.0,-1.4088,-1.4088,-1.4088,-1.4088,-1.4088,-1.4088,-1.4088,-1.4088,-1.4088,-1.4088,-1.4088,-1.4088,-1.4088,-1.4088,-1.4088,-1.425,-1.4531,-1.4405,-1.4398,-1.4608,-1.465,-1.4734,-1.4783,-1.4699,-1.4985,-1.5643,-1.52,-1.5643,-1.6903,-1.6214,-1.6288,-1.7066,-1.7025,-1.7107,-1.731,-1.731,-1.7064,-1.6775,-1.7355,-1.6796,-1.5716,-1.6289,-1.6332,-1.6044,-1.6044,-1.6403,-1.6908,-1.6908,-1.6908,-1.6908,-1.6908,-1.6697,-1.6404,-1.6144,-1.584,-1.5532,-1.5158,-1.4856,-1.4627,-1.4604,-1.4592,-1.4385,-1.3546,-1.3352,-1.3334,-1.3233,-1.3284,-1.3623,-1.4473,-1.4893,-1.5283,-1.585,-1.6377,-1.6697,-1.6697,-1.7109,-1.7379,0.0,-1.7417,-1.7504,-1.7623,-1.7478,-1.7326,0.0,0.0,0.0,0.0,-1.6256,-1.6141,-1.6256,-1.5329,-1.4809,-1.4715,-1.4556,-1.4734,-1.5186,-1.5584,-1.6265,-1.7157,-1.749,-1.7815,-1.8193,-1.861,-1.8744,-1.8679,-1.8907,-1.8987,-1.8987,-1.8987,-1.8987,-1.9035,-1.9471,-1.97,-1.988,-1.4088,-1.4088,-1.4088,-1.4088,-1.4088,-1.4088,-1.4088,-1.4088,-1.4088,-1.4088,-1.4088,-1.4088,-1.4088,-1.4088,-1.4088,-1.4088,-1.4088,-1.4208,-1.4412,-1.4321,-1.4363,-1.4566,-1.4566,-1.4608,-1.4692,-1.4608,-1.4734,-1.5068,-1.4615,-1.4859,-1.576,-1.5228,-1.5428,-1.6255,-1.6173,-1.6329,-1.6698,-1.6698,-1.6459,-1.615,-1.6625,-1.6205,-1.531,-1.5671,-1.5892,-1.5958,-1.5858,-1.6263,-1.6908,-1.6908,-1.6908,-1.6908,-1.6908,-1.6762,-1.6587,-1.6587,-1.6037,-1.5377,-1.5157,-1.4808,-1.4536,-1.4656,-1.4581,-1.4325,-1.3876,-1.3724,-1.3632,-1.3511,-1.3547,-1.3801,-1.4446,-1.4898,-1.5321,-1.5814,-1.6444,-1.6883,-1.6883,-1.7161,-1.735,-1.7232,-1.7228,-1.7181,-1.7059,-1.6959,-1.6798,-1.6524,-1.6229,0.0,-1.5978,-1.5417,-1.5338,-1.5898,-1.5132,-1.4834,-1.5118,-1.5235,-1.5633,-1.6226,-1.6397,-1.6905,-1.7733,-1.7925,-1.8166,-1.8422,-1.8625,-1.8679,-1.8637,-1.8981,-1.9143,-1.9131,-1.9212,-1.9239,-1.9239,-1.9369,-1.9732,-2.0201,-1.4088,-1.4088,-1.4088,-1.4088,-1.4088,-1.4088,-1.4088,-1.4088,-1.4088,-1.4088,-1.4088,-1.4088,-1.4088,-1.4088,-1.4088,-1.4088,-1.4088,-1.4088,-1.4088,-1.4088,-1.4166,-1.4363,-1.4356,-1.444,-1.4615,-1.4615,-1.4615,-1.4615,-1.4615,-1.4615,-1.4615,-1.444,-1.4734,-1.5443,-1.5276,-1.5594,-1.6288,-1.6288,-1.6126,-1.583,-1.595,-1.5771,-1.5374,-1.5235,-1.5626,-1.6186,-1.5899,-1.6263,-1.6908,-1.6908,-1.6908,-1.6908,-1.6908,-1.6908,-1.6908,-1.6908,-1.6092,-1.5194,-1.5194,-1.4854,-1.4556,-1.4656,-1.4542,-1.4393,-1.4336,-1.4117,-1.3941,-1.3825,-1.3797,-1.393,-1.4336,-1.479,-1.5224,-1.5685,-1.6533,-1.7191,-1.7133,0.0,-1.7353,-1.7252,-1.6889,-1.6602,-1.6443,-1.6265,-1.6077,-1.588,-1.5389,-1.5221,-1.5496,-1.4873,-1.4782,-1.5421,-1.4932,-1.4951,-1.5565,-1.5979,-1.6528,-1.7202,-1.7257,-1.7584,-1.815,-1.8329,-1.8422,-1.8422,-1.8545,-1.8587,-1.8622,-1.9042,-1.923,-1.9285,-1.9373,-1.9428,-1.9408,-1.9198,-1.9696,-2.0502,-1.4088,-1.4088,-1.4088,-1.4088,-1.4088,-1.4088,-1.4088,-1.4088,-1.4088,-1.4088,-1.4088,-1.4088,-1.4088,-1.4088,-1.4088,-1.4088,-1.4088,-1.4088,-1.4088,-1.4088,-1.413,-1.4166,-1.4166,-1.4166,-1.4208,-1.4208,-1.4208,-1.4208,-1.4208,-1.4208,-1.4208,-1.4166,-1.4208,-1.4334,-1.4334,-1.4377,-1.4496,-1.4496,-1.4468,-1.4469,-1.5197,-1.5286,-1.5033,-1.5451,-1.5922,-1.634,-1.5935,-1.6263,-1.6908,-1.6908,-1.6908,-1.6908,-1.6908,-1.6908,-1.6908,-1.6908,-1.6285,-1.5597,-1.5597,-1.5139,-1.4656,-1.4686,-1.4796,-1.4781,-1.4393,-1.427,-1.4241,-1.4213,-1.4223,-1.4346,-1.48,-1.5491,-1.6084,-1.6328,-1.7071,-1.7562,-1.7389,0.0,-1.7171,-1.6632,-1.6494,-1.6329,-1.6019,-1.5946,-1.5742,-1.5284,-1.5139,-1.4983,-1.4708,-1.4579,-1.4543,-1.4657,-1.4572,-1.4823,-1.5439,-1.5613,-1.6208,-1.7202,-1.749,-1.787,-1.8367,-1.8518,-1.8518,-1.8422,-1.8545,-1.8587,-1.8614,-1.88,-1.8932,-1.9066,-1.908,-1.9092,-1.9128,-1.9516,-1.9784,-1.9973,-1.4088,-1.4088,-1.4088,-1.4088,-1.4088,-1.4088,-1.4088,-1.4088,-1.4088,-1.4088,-1.4088,-1.4088,-1.4088,-1.4088,-1.4088,-1.4088,-1.4088,-1.4088,-1.4088,-1.4088,-1.4088,-1.4088,-1.4088,-1.4088,-1.4088,-1.4088,-1.4088,-1.4088,-1.4088,-1.4088,-1.4088,-1.4088,-1.4088,-1.4088,-1.4088,-1.4088,-1.4088,-1.4088,-1.4088,-1.413,-1.4538,-1.4615,-1.4537,-1.5048,-1.5258,-1.5281,-1.5426,-1.5827,-1.6228,-1.5824,-1.6219,-1.683,-1.6438,-1.6586,-1.6908,-1.6908,-1.6331,-1.5597,-1.5166,-1.4842,-1.4586,-1.4586,-1.4725,-1.4767,-1.4472,-1.4445,-1.4503,-1.4425,-1.4396,-1.4556,-1.4956,-1.5545,-1.602,-1.6328,-1.6986,0.0,-1.7297,-1.7187,-1.6923,-1.6367,-1.6087,-1.5775,-1.5303,-1.5253,-1.5118,-1.4799,-1.4781,-1.4708,-1.4524,-1.4515,-1.4515,-1.4515,-1.5128,-1.5604,-1.5882,-1.6578,-1.7207,-1.7705,-1.7843,-1.8018,-1.8232,-1.8302,-1.8356,-1.8394,-1.8464,-1.8491,-1.8514,-1.8905,-1.9065,-1.9081,-1.9217,-1.9272,-1.9272,-1.9345,-1.972,-2.0225,-1.4088,-1.4088,-1.4088,-1.4088,-1.4088,-1.4088,-1.4088,-1.4088,-1.4088,-1.4088,-1.4088,-1.4088,-1.4088,-1.4088,-1.4088,-1.4088,-1.4088,-1.4088,-1.4088,-1.4088,-1.4088,-1.4088,-1.4088,-1.4088,-1.4088,-1.4088,-1.4088,-1.4088,-1.4088,-1.4088,-1.4088,-1.4088,-1.4088,-1.4088,-1.4088,-1.4088,-1.4088,-1.4088,-1.4088,-1.4088,-1.4088,-1.4208,-1.442,-1.4758,-1.4786,-1.4679,-1.5036,-1.532,-1.5436,-1.4816,-1.5392,-1.6263,-1.5692,-1.6044,-1.6656,-1.6656,-1.6187,-1.556,-1.4955,-1.4653,-1.4515,-1.4515,-1.4586,-1.4636,-1.4506,-1.4586,-1.4606,-1.4506,-1.4515,-1.4607,-1.4909,-1.5285,-1.5693,-1.6038,0.0,-1.6921,0.0,-1.6741,-1.647,-1.6088,-1.5721,-1.5213,-1.4613,-1.466,-1.4619,-1.4378,-1.446,-1.4515,-1.4515,-1.4515,-1.4515,-1.4515,-1.541,-1.6026,-1.6312,-1.7224,-1.7826,-1.8084,-1.8084,-1.8084,-1.8084,-1.8084,-1.8262,-1.8514,-1.8387,-1.8437,-1.8592,-1.9072,-1.9153,-1.902,-1.9333,-1.9392,-1.9254,-1.9036,-1.9473,-2.0145,-1.4088,-1.4088,-1.4088,-1.4088,-1.4088,-1.4088,-1.4088,-1.4088,-1.4088,-1.4088,-1.4088,-1.4088,-1.4088,-1.4088,-1.4088,-1.4088,-1.4088,-1.4088,-1.4088,-1.4088,-1.4088,-1.4088,-1.4088,-1.4088,-1.4088,-1.4088,-1.4088,-1.4088,-1.4088,-1.4088,-1.4088,-1.4088,-1.4088,-1.4088,-1.4088,-1.4088,-1.4088,-1.4088,-1.4088,-1.4088,-1.4088,-1.458,-1.5282,-1.4928,-1.5157,-1.5549,-1.5223,-1.494,-1.4673,-1.4601,-1.4673,-1.4744,-1.4716,-1.5251,-1.5868,-1.5868,-1.5808,-1.568,-1.5615,-1.5065,-1.4515,-1.4515,-1.4506,-1.4506,-1.4515,-1.4506,-1.4506,-1.4515,-1.4515,-1.4524,-1.4552,-1.4873,-1.521,-1.5414,0.0,0.0,-1.6254,-1.5936,-1.5692,-1.5664,-1.5294,-1.4827,-1.4203,-1.4492,-1.4499,-1.3984,-1.4295,-1.4515,-1.4515,-1.4515,-1.4515,-1.4515,-1.4595,-1.5157,-1.6283,-1.6397,-1.7,-1.8084,-1.8084,-1.8084,-1.8084,-1.8084,-1.8364,-1.8844,-1.8345,-1.8485,-1.9041,-1.9111,-1.8927,-1.8693,-1.9148,-1.9042,-1.8672,-1.8783,-1.8872,-1.903,-1.4088,-1.4088,-1.4088,-1.4088,-1.4088,-1.4088,-1.4088,-1.4088,-1.4088,-1.4088,-1.4088,-1.4088,-1.4088,-1.4088,-1.4088,-1.4088,-1.4088,-1.4088,-1.4088,-1.4088,-1.4088,-1.4088,-1.4088,-1.4088,-1.4088,-1.4088,-1.4088,-1.4088,-1.4088,-1.4088,-1.4088,-1.4088,-1.4088,-1.4088,-1.4088,-1.4088,-1.4088,-1.4088,-1.4088,-1.4088,-1.4088,-1.4292,-1.4629,-1.4799,-1.4562,-1.4173,-1.4411,-1.4251,-1.3854,-1.3346,-1.381,-1.453,-1.4063,-1.4788,-1.5903,-1.6333,-1.6301,-1.6028,-1.5762,-1.5111,-1.4515,-1.4515,-1.4515,-1.4515,-1.4515,-1.4515,-1.4515,-1.4515,-1.4515,-1.4588,-1.4836,-1.5001,-1.5206,-1.5549,0.0,-1.5817,-1.5872,-1.5529,-1.5278,-1.5278,-1.4925,-1.4488,-1.4014,-1.4346,-1.4381,-1.3938,-1.4277,-1.4515,-1.4515,-1.4515,-1.4515,-1.4515,-1.4515,-1.4902,-1.5719,-1.6472,-1.7101,-1.7556,-1.7909,-1.8084,-1.8123,-1.8432,-1.8757,-1.9026,-1.9165,-1.917,-1.9123,-1.9545,-1.9223,-1.8546,-1.9432,-1.9312,-1.8696,-1.9344,-1.962,-1.9644,-1.4088,-1.4088,-1.4088,-1.4088,-1.4088,-1.4088,-1.4088,-1.4088,-1.4088,-1.4088,-1.4088,-1.4088,-1.4088,-1.4088,-1.4088,-1.4088,-1.4088,-1.4088,-1.4088,-1.4088,-1.4088,-1.4088,-1.4088,-1.4088,-1.4088,-1.4088,-1.4088,-1.4088,-1.4088,-1.4088,-1.4088,-1.4088,-1.4088,-1.4088,-1.4088,-1.4088,-1.4088,-1.4088,-1.4088,-1.4088,-1.4088,-1.4088,-1.4146,-1.4503,-1.4053,-1.3259,-1.3663,-1.3536,-1.3025,-1.2482,-1.2981,-1.3774,-1.3273,-1.4178,-1.5578,-1.6333,-1.6353,-1.6056,-1.5762,-1.5111,-1.4515,-1.4515,-1.4515,-1.4515,-1.4515,-1.4515,-1.4515,-1.4515,-1.4515,-1.4588,-1.4864,-1.4909,-1.5001,-1.5276,-1.5322,-1.5322,-1.5322,-1.5084,-1.4909,-1.4909,-1.468,-1.4341,-1.3957,-1.4268,-1.4341,-1.3938,-1.4277,-1.4515,-1.4515,-1.4515,-1.4515,-1.4515,-1.4515,-1.4714,-1.5098,-1.614,-1.6726,-1.6922,-1.7529,-1.7906,-1.8075,-1.8651,-1.9114,-1.9512,-1.972,-1.9645,-1.9344,-1.9942,-1.9546,-1.8677,-1.9756,-1.9685,-1.9036,-1.9824,-2.0111,-2.0135,-1.4088,-1.4088,-1.4088,-1.4088,-1.4088,-1.4088,-1.4088,-1.4088,-1.4088,-1.4088,-1.4088,-1.4088,-1.4088,-1.4088,-1.4088,-1.4088,-1.4088,-1.4088,-1.4088,-1.4088,-1.4088,-1.4088,-1.4088,-1.4088,-1.4088,-1.4088,-1.4088,-1.4088,-1.4088,-1.4088,-1.4088,-1.4088,-1.4088,-1.4088,-1.4088,-1.4088,-1.4088,-1.4088,-1.4088,-1.4088,-1.4088,-1.4088,-1.4088,-1.4082,-1.3721,-1.3213,-1.3206,-1.2819,-1.2305,-1.2305,-1.2305,-1.2305,-1.2305,-1.3346,-1.4752,-1.5542,-1.5741,-1.5698,-1.5698,-1.512,-1.4494,-1.4515,-1.4515,-1.4515,-1.4515,-1.4515,-1.4515,-1.4515,-1.4515,-1.4515,-1.4515,-1.4515,-1.4515,-1.4515,-1.4515,-1.4515,-1.4515,-1.4515,-1.4515,-1.4515,-1.4515,-1.4341,-1.3957,-1.4268,-1.4341,-1.3938,-1.4277,-1.4515,-1.4515,-1.4515,-1.4515,-1.4515,-1.4515,-1.4515,-1.4515,-1.5098,-1.569,-1.6312,-1.6922,-1.7492,-1.8013,-1.864,-1.9447,-2.0377,-1.9907,-1.97,-1.9734,-2.0217,-1.9815,-1.9,-2.0021,-2.0113,-1.9718,-2.0018,-2.0123,-2.0223,-1.4088,-1.4088,-1.4088,-1.4088,-1.4088,-1.4088,-1.4088,-1.4088,-1.4088,-1.4088,-1.4088,-1.4088,-1.4088,-1.4088,-1.4088,-1.4088,-1.4088,-1.4088,-1.4088,-1.4088,-1.4088,-1.4088,-1.4088,-1.4088,-1.4088,-1.4088,-1.4088,-1.4088,-1.4088,-1.4088,-1.4088,-1.4088,-1.4088,-1.4088,-1.4088,-1.4088,-1.4088,-1.4088,-1.4088,-1.4088,-1.4088,-1.4088,-1.4062,-1.3854,-1.35,-1.318,-1.3005,-1.2632,-1.2305,-1.2305,-1.2305,-1.2409,-1.2952,-1.3455,-1.3998,-1.4752,-1.4952,-1.4869,-1.4578,-1.4535,-1.4558,-1.4493,-1.4515,-1.4515,-1.4515,-1.4515,-1.4515,-1.4515,-1.4515,-1.4515,-1.4515,-1.4515,-1.4515,-1.4515,-1.4515,-1.4515,-1.4515,-1.4515,-1.4515,-1.4515,-1.4515,-1.4341,-1.3957,-1.4268,-1.4341,-1.3938,-1.4277,-1.4515,-1.4515,-1.4515,-1.4515,-1.4515,-1.4515,-1.4515,-1.4515,-1.5098,-1.569,-1.6312,-1.6922,-1.7512,-1.8103,-1.904,-1.962,-1.9941,-2.0523,-2.0527,-2.0228,-2.0733,-2.0385,-1.9551,-2.058,-2.0515,-1.9905,-2.0611,-2.0787,-2.0764,-1.4088,-1.4088,-1.4088,-1.4088,-1.4088,-1.4088,-1.4088,-1.4088,-1.4088,-1.4088,-1.4088,-1.4088,-1.4088,-1.4088,-1.4088,-1.4088,-1.4088,-1.4088,-1.4088,-1.4088,-1.4088,-1.4088,-1.4088,-1.4088,-1.4088,-1.4088,-1.4088,-1.4088,-1.4088,-1.4088,-1.4088,-1.4088,-1.4088,-1.4088,-1.4088,-1.4088,-1.4088,-1.4088,-1.4088,-1.4088,-1.4088,-1.4015,-1.3895,-1.3673,-1.3387,-1.3006,-1.2851,-1.2589,-1.2305,-1.2305,-1.2305,-1.2372,-1.2879,-1.3244,-1.3608,-1.4034,-1.4264,-1.432,-1.4079,-1.397,-1.3969,-1.3915,-1.4225,-1.4515,-1.4515,-1.4515,-1.4515,-1.4515,-1.4515,-1.4515,-1.4515,-1.4515,-1.4515,-1.4515,-1.4515,-1.4515,-1.4515,-1.4515,-1.4515,-1.4515,-1.4515,-1.4414,-1.4157,-1.4359,-1.4405,-1.4148,-1.4368,-1.4515,-1.4515,-1.4515,-1.4515,-1.4515,-1.4515,-1.4515,-1.4515,-1.4852,-1.5362,-1.594,-1.6557,-1.7381,-1.8357,-1.9057,-1.973,-2.0327,-2.073,-2.0687,-2.0446,-2.0983,-2.073,-2.0056,-2.0879,-2.0884,-2.0484,-2.1054,-2.1202,-2.1167,-1.4055,-1.4068,-1.4088,-1.4088,-1.4088,-1.4088,-1.4088,-1.4088,-1.4088,-1.4088,-1.4088,-1.4088,-1.4088,-1.4088,-1.4088,-1.4088,-1.4088,-1.4088,-1.4088,-1.4088,-1.4088,-1.4088,-1.4088,-1.4088,-1.4088,-1.4088,-1.4088,-1.4088,-1.4088,-1.4088,-1.4088,-1.4088,-1.4088,-1.4088,-1.4088,-1.4088,-1.4088,-1.4088,-1.4088,-1.4088,-1.4088,-1.3928,-1.364,-1.3613,-1.33,-1.2857,-1.2837,-1.2636,-1.2338,-1.2311,-1.2305,-1.2305,-1.2305,-1.2806,-1.339,-1.339,-1.3607,-1.3863,-1.3863,-1.3413,-1.2995,-1.2963,-1.365,-1.4363,-1.4396,-1.4417,-1.4417,-1.4476,-1.4515,-1.4515,-1.4515,-1.4515,-1.4515,-1.4515,-1.4515,-1.4515,-1.4515,-1.4515,-1.4515,-1.4515,-1.4515,-1.4515,-1.4515,-1.4515,-1.4515,-1.4515,-1.4515,-1.4515,-1.4515,-1.4515,-1.4515,-1.4515,-1.4515,-1.4515,-1.4515,-1.4515,-1.4793,-1.541,-1.5997,-1.7117,-1.8657,-1.8878,-1.9775,-2.1098,-2.0653,-2.0481,-2.0515,-2.1006,-2.0925,-2.0527,-2.1017,-2.1221,-2.1221,-2.1336,-2.14,-2.1463,-1.374,-1.3928,-1.4088,-1.4088,-1.4088,-1.4088,-1.4088,-1.4088,-1.4088,-1.4088,-1.4088,-1.4088,-1.4088,-1.4088,-1.4088,-1.4088,-1.4088,-1.4088,-1.4088,-1.4088,-1.4088,-1.4088,-1.4088,-1.4088,-1.4088,-1.4088,-1.4088,-1.4088,-1.4088,-1.4088,-1.4088,-1.4088,-1.4088,-1.4088,-1.4088,-1.4088,-1.4088,-1.4088,-1.4088,-1.4088,-1.4088,-1.4048,-1.3968,-1.3693,-1.352,-1.338,-1.3193,-1.2913,-1.265,-1.2378,-1.2305,-1.2305,-1.2305,-1.2409,-1.2556,-1.2556,-1.2618,-1.2672,-1.2672,-1.2792,-1.2853,-1.2594,-1.2928,-1.3395,-1.367,-1.3731,-1.3881,-1.4387,-1.4515,-1.4515,-1.4515,-1.4515,-1.4515,-1.4515,-1.4515,-1.4515,-1.4515,-1.4515,-1.4515,-1.4515,-1.4515,-1.4515,-1.4515,-1.4515,-1.4515,-1.4515,-1.4515,-1.4515,-1.4515,-1.4515,-1.4515,-1.4515,-1.4515,-1.4515,-1.4515,-1.4515,-1.4793,-1.541,-1.5997,-1.6948,-1.8178,-1.9104,-1.9907,-2.0595,-2.0871,-2.1029,-2.104,-2.1144,-2.1132,-2.104,-2.1144,-2.1253,-2.1368,-2.1285,-2.1423,-2.1624,-1.366,-1.3881,-1.4088,-1.4088,-1.4088,-1.4088,-1.4088,-1.4088,-1.4088,-1.4088,-1.4088,-1.4088,-1.4088,-1.4088,-1.4088,-1.4088,-1.4088,-1.4088,-1.4088,-1.4088,-1.4088,-1.4088,-1.4088,-1.4088,-1.4088,-1.4088,-1.4088,-1.4088,-1.4088,-1.4088,-1.4088,-1.4088,-1.4088,-1.4088,-1.4088,-1.4088,-1.4088,-1.4088,-1.4088,-1.4088,-1.4088,-1.4001,-1.3854,-1.366,-1.3427,-1.3213,-1.3213,-1.3106,-1.2946,-1.2786,-1.2639,-1.2549,-1.2549,-1.2418,-1.2305,-1.2305,-1.2305,-1.2305,-1.2305,-1.2374,-1.2396,-1.2193,-1.2185,-1.2475,-1.3325,-1.3511,-1.3692,-1.4357,-1.4515,-1.4515,-1.4515,-1.4515,-1.4515,-1.4515,-1.4515,-1.4515,-1.4515,-1.4515,-1.4515,-1.4515,-1.4515,-1.4515,-1.4515,-1.4515,-1.4515,-1.4515,-1.4515,-1.4515,-1.4515,-1.4515,-1.4515,-1.4515,-1.4515,-1.4515,-1.4515,-1.4515,-1.4747,-1.5254,-1.5881,-1.6929,-1.8342,-1.8651,-1.9527,-2.0776,-2.0316,-2.0523,-2.1155,-2.0684,-2.0764,-2.1167,-2.0925,-2.1014,-2.1305,-2.1221,-2.1296,-2.1466,-1.36,-1.3848,-1.4088,-1.4088,-1.4088,-1.4088,-1.4088,-1.4088,-1.4088,-1.4088,-1.4088,-1.4088,-1.4088,-1.4088,-1.4088,-1.4088,-1.4088,-1.4088,-1.4088,-1.4088,-1.4088,-1.4088,-1.4088,-1.4088,-1.4088,-1.4088,-1.4088,-1.4088,-1.4088,-1.4088,-1.4088,-1.4088,-1.4088,-1.4088,-1.4088,-1.4088,-1.4088,-1.4088,-1.4088,-1.4088,-1.4088,-1.3941,-1.3673,-1.362,-1.3367,-1.3038,-1.3213,-1.3287,-1.3273,-1.3227,-1.3006,-1.2784,-1.2784,-1.2583,-1.2305,-1.2305,-1.2305,-1.2305,-1.2305,-1.2124,-1.1966,-1.1913,-1.1683,-1.179,-1.3034,-1.328,-1.3436,-1.4178,-1.4327,-1.4357,-1.4485,-1.4515,-1.4515,-1.4515,-1.4515,-1.4515,-1.4515,-1.4515,-1.4515,-1.4515,-1.4515,-1.4515,-1.4515,-1.4515,-1.4515,-1.4515,-1.4515,-1.4515,-1.4515,-1.4515,-1.4515,-1.4515,-1.4515,-1.4515,-1.4515,-1.4579,-1.4772,-1.5102,-1.5749,-1.6961,-1.862,-1.8154,-1.9121,-2.1109,-1.9684,-1.9867,-2.1121,-2.0194,-2.0297,-2.104,-2.0664,-2.0745,-2.1063,-2.1063,-2.1063,-2.1052,-1.338,-1.3707,-1.4088,-1.4088,-1.4088,-1.4088,-1.4088,-1.4088,-1.4088,-1.4088,-1.4088,-1.4088,-1.4088,-1.4088,-1.4088,-1.4088,-1.4088,-1.4088,-1.4088,-1.4088,-1.4088,-1.4088,-1.4088,-1.4088,-1.4088,-1.4088,-1.4088,-1.4088,-1.4088,-1.4088,-1.4088,-1.4088,-1.4088,-1.4088,-1.4088,-1.4088,-1.4088,-1.4088,-1.4088,-1.4088,-1.4088,-1.4062,-1.4001,-1.37,-1.3713,-1.3874,-1.362,-1.3547,-1.3507,-1.3293,-1.3006,-1.2784,-1.2784,-1.2583,-1.2305,-1.2305,-1.2305,-1.2305,-1.2305,-1.2271,-1.2184,-1.1966,-1.1873,-1.1962,-1.2426,-1.2357,-1.2489,-1.3458,-1.364,-1.3821,-1.4387,-1.4515,-1.4515,-1.4515,-1.4515,-1.4515,-1.4515,-1.4515,-1.4515,-1.4515,-1.4515,-1.4515,-1.4515,-1.4515,-1.4515,-1.4515,-1.4515,-1.4515,-1.4515,-1.4515,-1.4515,-1.4515,-1.4515,-1.4515,-1.4515,-1.4854,-1.5047,-1.5111,-1.5882,-1.7025,-1.8448,-1.847,-1.9474,-2.1132,-2.0044,-2.0212,-2.1144,-2.0549,-2.0389,-2.0549,-2.0948,-2.0836,-2.0515,-2.0515,-2.0515,-2.0446,-1.3331,-1.3581,-1.3913,-1.4088,-1.4088,-1.4088,-1.4088,-1.4088,-1.4088,-1.4088,-1.4088,-1.4088,-1.4088,-1.4088,-1.4088,-1.4088,-1.4088,-1.4088,-1.4088,-1.4088,-1.4088,-1.4088,-1.4088,-1.4088,-1.4088,-1.4088,-1.4088,-1.4088,-1.4088,-1.4088,-1.4088,-1.4088,-1.4088,-1.4088,-1.4088,-1.4088,-1.4088,-1.4088,-1.4088,-1.4088,-1.4088,-1.4088,-1.4075,-1.3941,-1.3868,-1.378,-1.3646,-1.3706,-1.3874,-1.3741,-1.35,-1.3247,-1.3247,-1.2926,-1.2589,-1.2589,-1.2432,-1.2305,-1.2305,-1.2305,-1.2271,-1.2144,-1.2111,-1.2103,-1.2123,-1.1888,-1.1966,-1.3011,-1.3057,-1.3161,-1.3821,-1.3941,-1.407,-1.4446,-1.4515,-1.4515,-1.4515,-1.4515,-1.4515,-1.4515,-1.4515,-1.4515,-1.4515,-1.4515,-1.4515,-1.4515,-1.4515,-1.4515,-1.4515,-1.4515,-1.4515,-1.4515,-1.4726,-1.4836,-1.4836,-1.523,-1.5551,-1.578,-1.6147,-1.7048,-1.8383,-1.8123,-1.9017,-2.0664,-1.9378,-1.9401,-2.0316,-1.947,-1.9453,-1.9998,-1.9948,-1.9941,-2.001,-2.001,-2.001,-1.9975]}]]